<?xml version='1.0' encoding='UTF-8'?><gpx version="1.1" creator="JPX - https://github.com/jenetics/jpx" xmlns="http://www.topografix.com/GPX/1/1"><trk><trkseg><trkpt lat="43.21806605148282" lon="11.93612931501911"><ele>262.0</ele><time>2026-03-23T15:13:38Z</time></trkpt><trkpt lat="43.218124184711506" lon="11.93618607275668"><ele>262.0</ele><time>2026-03-23T15:13:39Z</time></trkpt><trkpt lat="43.21818899168562" lon="11.93625017094827"><ele>262.0</ele><time>2026-03-23T15:13:40Z</time></trkpt><trkpt lat="43.21826560784645" lon="11.936320417482763"><ele>262.0</ele><time>2026-03-23T15:13:41Z</time></trkpt><trkpt lat="43.21833981877805" lon="11.93639058348189"><ele>262.0</ele><time>2026-03-23T15:13:42Z</time></trkpt><trkpt lat="43.218425206588634" lon="11.936475403577251"><ele>262.0</ele><time>2026-03-23T15:13:43Z</time></trkpt><trkpt lat="43.21849929723381" lon="11.936567945193781"><ele>262.0</ele><time>2026-03-23T15:13:44Z</time></trkpt><trkpt lat="43.21855344757452" lon="11.936677431899545"><ele>262.0</ele><time>2026-03-23T15:13:45Z</time></trkpt><trkpt lat="43.2186011802309" lon="11.936805087435234"><ele>262.0</ele><time>2026-03-23T15:13:46Z</time></trkpt><trkpt lat="43.21864743064273" lon="11.936956463831043"><ele>262.0</ele><time>2026-03-23T15:13:47Z</time></trkpt><trkpt lat="43.21869837150071" lon="11.937129140030143"><ele>262.5</ele><time>2026-03-23T15:13:48Z</time></trkpt><trkpt lat="43.2187572568138" lon="11.937311151785696"><ele>263.0</ele><time>2026-03-23T15:13:49Z</time></trkpt><trkpt lat="43.21881125204056" lon="11.937470453608675"><ele>263.5</ele><time>2026-03-23T15:13:50Z</time></trkpt><trkpt lat="43.21887574089341" lon="11.937648649438367"><ele>264.0</ele><time>2026-03-23T15:13:51Z</time></trkpt><trkpt lat="43.21893665941948" lon="11.937833358034064"><ele>264.0</ele><time>2026-03-23T15:13:52Z</time></trkpt><trkpt lat="43.218989067378544" lon="11.938018561820728"><ele>264.0</ele><time>2026-03-23T15:13:53Z</time></trkpt><trkpt lat="43.21903691178554" lon="11.938196068819598"><ele>264.0</ele><time>2026-03-23T15:13:54Z</time></trkpt><trkpt lat="43.21908646881563" lon="11.938383379682271"><ele>264.0</ele><time>2026-03-23T15:13:55Z</time></trkpt><trkpt lat="43.21913534086107" lon="11.938574552901477"><ele>265.0</ele><time>2026-03-23T15:13:56Z</time></trkpt><trkpt lat="43.21917230063143" lon="11.938741073104815"><ele>266.0</ele><time>2026-03-23T15:13:57Z</time></trkpt><trkpt lat="43.21921756086264" lon="11.938911379153314"><ele>267.0</ele><time>2026-03-23T15:13:58Z</time></trkpt><trkpt lat="43.219257895609445" lon="11.939064184279047"><ele>268.0</ele><time>2026-03-23T15:13:59Z</time></trkpt><trkpt lat="43.21928293936968" lon="11.939200539696293"><ele>268.8</ele><time>2026-03-23T15:14:00Z</time></trkpt><trkpt lat="43.2193086131654" lon="11.93933308689244"><ele>269.6</ele><time>2026-03-23T15:14:01Z</time></trkpt><trkpt lat="43.219323318695594" lon="11.93946776604905"><ele>270.4</ele><time>2026-03-23T15:14:02Z</time></trkpt><trkpt lat="43.21932888624885" lon="11.939616120576483"><ele>271.2</ele><time>2026-03-23T15:14:03Z</time></trkpt><trkpt lat="43.2193355111061" lon="11.939767050589504"><ele>272.0</ele><time>2026-03-23T15:14:04Z</time></trkpt><trkpt lat="43.21934480813573" lon="11.9399220458346"><ele>272.0</ele><time>2026-03-23T15:14:05Z</time></trkpt><trkpt lat="43.219355597740496" lon="11.940049798879139"><ele>272.0</ele><time>2026-03-23T15:14:06Z</time></trkpt><trkpt lat="43.21935895147642" lon="11.940173372789108"><ele>272.0</ele><time>2026-03-23T15:14:07Z</time></trkpt><trkpt lat="43.219366562833656" lon="11.940292170763732"><ele>272.0</ele><time>2026-03-23T15:14:08Z</time></trkpt><trkpt lat="43.21935085508204" lon="11.94038644598649"><ele>272.0</ele><time>2026-03-23T15:14:09Z</time></trkpt><trkpt lat="43.219314278669806" lon="11.94054574994518"><ele>273.0</ele><time>2026-03-23T15:14:11Z</time></trkpt><trkpt lat="43.21924695933867" lon="11.940701062506504"><ele>274.0</ele><time>2026-03-23T15:14:13Z</time></trkpt><trkpt lat="43.219221761793065" lon="11.940781952361531"><ele>275.0</ele><time>2026-03-23T15:14:14Z</time></trkpt><trkpt lat="43.2191224393332" lon="11.940918783234945"><ele>276.0</ele><time>2026-03-23T15:14:16Z</time></trkpt><trkpt lat="43.21904737997389" lon="11.94100763769127"><ele>277.0</ele><time>2026-03-23T15:14:17Z</time></trkpt><trkpt lat="43.21895109002826" lon="11.941075407720811"><ele>277.5</ele><time>2026-03-23T15:14:18Z</time></trkpt><trkpt lat="43.21886073511753" lon="11.941151611705479"><ele>278.0</ele><time>2026-03-23T15:14:19Z</time></trkpt><trkpt lat="43.21879048160549" lon="11.941204458322769"><ele>278.5</ele><time>2026-03-23T15:14:20Z</time></trkpt><trkpt lat="43.21872793370364" lon="11.941250548818601"><ele>279.0</ele><time>2026-03-23T15:14:21Z</time></trkpt><trkpt lat="43.21867098853505" lon="11.941292153550075"><ele>279.5</ele><time>2026-03-23T15:14:22Z</time></trkpt><trkpt lat="43.21860876313921" lon="11.941362541457309"><ele>280.0</ele><time>2026-03-23T15:14:23Z</time></trkpt><trkpt lat="43.21852382949644" lon="11.941412730494731"><ele>280.0</ele><time>2026-03-23T15:14:24Z</time></trkpt><trkpt lat="43.21844688464648" lon="11.941473693456585"><ele>280.0</ele><time>2026-03-23T15:14:25Z</time></trkpt><trkpt lat="43.21836331121004" lon="11.941533781879771"><ele>280.0</ele><time>2026-03-23T15:14:26Z</time></trkpt><trkpt lat="43.218268150362164" lon="11.94159869907881"><ele>280.0</ele><time>2026-03-23T15:14:27Z</time></trkpt><trkpt lat="43.218162548134686" lon="11.94167959503725"><ele>280.0</ele><time>2026-03-23T15:14:28Z</time></trkpt><trkpt lat="43.218052316334216" lon="11.941752380006353"><ele>280.25</ele><time>2026-03-23T15:14:29Z</time></trkpt><trkpt lat="43.21793897801622" lon="11.941837514940374"><ele>280.5</ele><time>2026-03-23T15:14:30Z</time></trkpt><trkpt lat="43.217819202504884" lon="11.941919321892092"><ele>280.75</ele><time>2026-03-23T15:14:31Z</time></trkpt><trkpt lat="43.21771336537196" lon="11.942029870195666"><ele>281.0</ele><time>2026-03-23T15:14:32Z</time></trkpt><trkpt lat="43.21761125356291" lon="11.94213073911084"><ele>281.0</ele><time>2026-03-23T15:14:33Z</time></trkpt><trkpt lat="43.217499096747716" lon="11.9422386096737"><ele>281.0</ele><time>2026-03-23T15:14:34Z</time></trkpt><trkpt lat="43.21737063149682" lon="11.942321248562289"><ele>281.0</ele><time>2026-03-23T15:14:35Z</time></trkpt><trkpt lat="43.21725793951665" lon="11.942410285018784"><ele>281.0</ele><time>2026-03-23T15:14:36Z</time></trkpt><trkpt lat="43.21714471788695" lon="11.942488258589407"><ele>281.5</ele><time>2026-03-23T15:14:37Z</time></trkpt><trkpt lat="43.217010942986036" lon="11.942564215040177"><ele>282.0</ele><time>2026-03-23T15:14:38Z</time></trkpt><trkpt lat="43.21687994530215" lon="11.942634177867117"><ele>282.5</ele><time>2026-03-23T15:14:39Z</time></trkpt><trkpt lat="43.216749948431485" lon="11.942720507844015"><ele>283.0</ele><time>2026-03-23T15:14:40Z</time></trkpt><trkpt lat="43.21661815166735" lon="11.942789757320039"><ele>283.0</ele><time>2026-03-23T15:14:41Z</time></trkpt><trkpt lat="43.216482162538306" lon="11.942842147252469"><ele>283.0</ele><time>2026-03-23T15:14:42Z</time></trkpt><trkpt lat="43.21636984787252" lon="11.942922351842624"><ele>283.0</ele><time>2026-03-23T15:14:43Z</time></trkpt><trkpt lat="43.2162502238001" lon="11.942981842608768"><ele>283.0</ele><time>2026-03-23T15:14:44Z</time></trkpt><trkpt lat="43.21614430431798" lon="11.943033629736883"><ele>283.0</ele><time>2026-03-23T15:14:45Z</time></trkpt><trkpt lat="43.21604372039997" lon="11.943076829962001"><ele>283.0</ele><time>2026-03-23T15:14:46Z</time></trkpt><trkpt lat="43.21595025407101" lon="11.943122031306935"><ele>283.0</ele><time>2026-03-23T15:14:47Z</time></trkpt><trkpt lat="43.215871243612774" lon="11.943160347905955"><ele>283.0</ele><time>2026-03-23T15:14:48Z</time></trkpt><trkpt lat="43.21579003718186" lon="11.94320120594569"><ele>283.0</ele><time>2026-03-23T15:14:49Z</time></trkpt><trkpt lat="43.215718738200735" lon="11.943229064348554"><ele>283.0</ele><time>2026-03-23T15:14:50Z</time></trkpt><trkpt lat="43.215666333399994" lon="11.943280611247935"><ele>283.3333333333333</ele><time>2026-03-23T15:14:51Z</time></trkpt><trkpt lat="43.21561289493254" lon="11.943346716124223"><ele>283.66666666666663</ele><time>2026-03-23T15:14:52Z</time></trkpt><trkpt lat="43.215570597841214" lon="11.94343313080442"><ele>284.0</ele><time>2026-03-23T15:14:53Z</time></trkpt><trkpt lat="43.215508459387316" lon="11.943506523341638"><ele>284.3333333333333</ele><time>2026-03-23T15:14:54Z</time></trkpt><trkpt lat="43.215457517157844" lon="11.943590568484394"><ele>284.6666666666667</ele><time>2026-03-23T15:14:55Z</time></trkpt><trkpt lat="43.215402014599505" lon="11.943690842190135"><ele>285.0</ele><time>2026-03-23T15:14:56Z</time></trkpt><trkpt lat="43.21535076450824" lon="11.943789014623283"><ele>285.0</ele><time>2026-03-23T15:14:57Z</time></trkpt><trkpt lat="43.215297329433454" lon="11.943880816903524"><ele>285.0</ele><time>2026-03-23T15:14:58Z</time></trkpt><trkpt lat="43.215229383981246" lon="11.943998338799716"><ele>285.0</ele><time>2026-03-23T15:14:59Z</time></trkpt><trkpt lat="43.215179203763654" lon="11.944097037262118"><ele>285.0</ele><time>2026-03-23T15:15:00Z</time></trkpt><trkpt lat="43.21513593454297" lon="11.944196059086599"><ele>285.0</ele><time>2026-03-23T15:15:01Z</time></trkpt><trkpt lat="43.21507935469173" lon="11.944275343363572"><ele>285.0</ele><time>2026-03-23T15:15:02Z</time></trkpt><trkpt lat="43.21504295804958" lon="11.944352555581393"><ele>284.8</ele><time>2026-03-23T15:15:03Z</time></trkpt><trkpt lat="43.21499126951043" lon="11.944490337384154"><ele>284.6</ele><time>2026-03-23T15:15:05Z</time></trkpt><trkpt lat="43.214929969831175" lon="11.94460900489182"><ele>284.4</ele><time>2026-03-23T15:15:13Z</time></trkpt><trkpt lat="43.2148709723943" lon="11.944698691177782"><ele>284.2</ele><time>2026-03-23T15:15:14Z</time></trkpt><trkpt lat="43.21481017250367" lon="11.944813842614456"><ele>284.0</ele><time>2026-03-23T15:15:15Z</time></trkpt><trkpt lat="43.21474957346881" lon="11.94494854494864"><ele>283.8</ele><time>2026-03-23T15:15:16Z</time></trkpt><trkpt lat="43.214679047677244" lon="11.94507473442024"><ele>283.59999999999997</ele><time>2026-03-23T15:15:17Z</time></trkpt><trkpt lat="43.21460514033165" lon="11.94521017493056"><ele>283.4</ele><time>2026-03-23T15:15:18Z</time></trkpt><trkpt lat="43.21453000392498" lon="11.94531527381421"><ele>283.2</ele><time>2026-03-23T15:15:19Z</time></trkpt><trkpt lat="43.2144748456051" lon="11.945387225085113"><ele>283.0</ele><time>2026-03-23T15:15:20Z</time></trkpt><trkpt lat="43.214450114710566" lon="11.945505315623649"><ele>283.0</ele><time>2026-03-23T15:15:21Z</time></trkpt><trkpt lat="43.21443912603097" lon="11.94564430114507"><ele>283.0</ele><time>2026-03-23T15:15:22Z</time></trkpt><trkpt lat="43.21444322854095" lon="11.945805175655401"><ele>283.0</ele><time>2026-03-23T15:15:23Z</time></trkpt><trkpt lat="43.21444417176935" lon="11.945979222550195"><ele>283.0</ele><time>2026-03-23T15:15:24Z</time></trkpt><trkpt lat="43.21444066186056" lon="11.946152082450897"><ele>282.8</ele><time>2026-03-23T15:15:25Z</time></trkpt><trkpt lat="43.21443501211339" lon="11.94629710915716"><ele>282.6</ele><time>2026-03-23T15:15:26Z</time></trkpt><trkpt lat="43.2144201581798" lon="11.946407517917555"><ele>282.4</ele><time>2026-03-23T15:15:27Z</time></trkpt><trkpt lat="43.2143914297935" lon="11.946528649899971"><ele>282.2</ele><time>2026-03-23T15:15:28Z</time></trkpt><trkpt lat="43.21433694398836" lon="11.946647561036961"><ele>282.0</ele><time>2026-03-23T15:15:29Z</time></trkpt><trkpt lat="43.214271424931056" lon="11.946774953331419"><ele>281.6</ele><time>2026-03-23T15:15:30Z</time></trkpt><trkpt lat="43.21420229217269" lon="11.946904241200853"><ele>281.2</ele><time>2026-03-23T15:15:31Z</time></trkpt><trkpt lat="43.2141399953669" lon="11.947018195192207"><ele>280.8</ele><time>2026-03-23T15:15:32Z</time></trkpt><trkpt lat="43.21408472261011" lon="11.947122927210835"><ele>280.4</ele><time>2026-03-23T15:15:33Z</time></trkpt><trkpt lat="43.214030070130676" lon="11.947208079736185"><ele>280.0</ele><time>2026-03-23T15:15:34Z</time></trkpt><trkpt lat="43.2139655949113" lon="11.947290773618072"><ele>279.8</ele><time>2026-03-23T15:15:35Z</time></trkpt><trkpt lat="43.21388332667931" lon="11.947374359998653"><ele>279.6</ele><time>2026-03-23T15:15:36Z</time></trkpt><trkpt lat="43.21379389371922" lon="11.947453194975804"><ele>279.4</ele><time>2026-03-23T15:15:37Z</time></trkpt><trkpt lat="43.21371438806413" lon="11.94752204861579"><ele>279.2</ele><time>2026-03-23T15:15:38Z</time></trkpt><trkpt lat="43.21364290896001" lon="11.947607447199413"><ele>279.0</ele><time>2026-03-23T15:15:39Z</time></trkpt><trkpt lat="43.2135782073356" lon="11.947707225106583"><ele>278.2</ele><time>2026-03-23T15:15:40Z</time></trkpt><trkpt lat="43.21353001465349" lon="11.947791640854945"><ele>277.4</ele><time>2026-03-23T15:15:41Z</time></trkpt><trkpt lat="43.21348566241803" lon="11.947891197628303"><ele>276.6</ele><time>2026-03-23T15:15:42Z</time></trkpt><trkpt lat="43.21344089648216" lon="11.94800505375558"><ele>275.8</ele><time>2026-03-23T15:15:43Z</time></trkpt><trkpt lat="43.21339731802904" lon="11.948129721650181"><ele>275.0</ele><time>2026-03-23T15:15:44Z</time></trkpt><trkpt lat="43.21335542071275" lon="11.948268992670837"><ele>275.0</ele><time>2026-03-23T15:15:45Z</time></trkpt><trkpt lat="43.213304917409076" lon="11.948405722443923"><ele>275.0</ele><time>2026-03-23T15:15:46Z</time></trkpt><trkpt lat="43.21325956251551" lon="11.948538749647327"><ele>275.0</ele><time>2026-03-23T15:15:47Z</time></trkpt><trkpt lat="43.213215979720246" lon="11.948662658410408"><ele>275.0</ele><time>2026-03-23T15:15:48Z</time></trkpt><trkpt lat="43.2131705882856" lon="11.948783229620357"><ele>275.0</ele><time>2026-03-23T15:15:49Z</time></trkpt><trkpt lat="43.213104638753684" lon="11.948884043736582"><ele>275.0</ele><time>2026-03-23T15:15:50Z</time></trkpt><trkpt lat="43.21306444229728" lon="11.9490017278301"><ele>275.0</ele><time>2026-03-23T15:15:51Z</time></trkpt><trkpt lat="43.21299158391029" lon="11.949109486609073"><ele>275.0</ele><time>2026-03-23T15:15:52Z</time></trkpt><trkpt lat="43.212911916045016" lon="11.949220892115079"><ele>275.0</ele><time>2026-03-23T15:15:53Z</time></trkpt><trkpt lat="43.2128255781448" lon="11.949332567397017"><ele>275.0</ele><time>2026-03-23T15:15:54Z</time></trkpt><trkpt lat="43.21271841675772" lon="11.949429051004673"><ele>275.0</ele><time>2026-03-23T15:15:55Z</time></trkpt><trkpt lat="43.21262625075992" lon="11.94955143709729"><ele>275.0</ele><time>2026-03-23T15:15:56Z</time></trkpt><trkpt lat="43.21253086174627" lon="11.94966548215708"><ele>275.0</ele><time>2026-03-23T15:15:57Z</time></trkpt><trkpt lat="43.21244867753875" lon="11.949773348177631"><ele>275.0</ele><time>2026-03-23T15:15:58Z</time></trkpt><trkpt lat="43.21236230250695" lon="11.94988973558883"><ele>275.25</ele><time>2026-03-23T15:15:59Z</time></trkpt><trkpt lat="43.21227983383574" lon="11.950020195294135"><ele>275.5</ele><time>2026-03-23T15:16:00Z</time></trkpt><trkpt lat="43.21218714228541" lon="11.950154006632495"><ele>275.75</ele><time>2026-03-23T15:16:01Z</time></trkpt><trkpt lat="43.212095041166044" lon="11.950279504329425"><ele>276.0</ele><time>2026-03-23T15:16:02Z</time></trkpt><trkpt lat="43.21200223034398" lon="11.950412891917303"><ele>276.8</ele><time>2026-03-23T15:16:03Z</time></trkpt><trkpt lat="43.21191954190727" lon="11.950529153228436"><ele>277.6</ele><time>2026-03-23T15:16:04Z</time></trkpt><trkpt lat="43.21184278466343" lon="11.950639618084725"><ele>278.4</ele><time>2026-03-23T15:16:05Z</time></trkpt><trkpt lat="43.21178041360856" lon="11.95072979911059"><ele>279.2</ele><time>2026-03-23T15:16:06Z</time></trkpt><trkpt lat="43.21173342995293" lon="11.950807038608472"><ele>280.0</ele><time>2026-03-23T15:16:07Z</time></trkpt><trkpt lat="43.21169440665936" lon="11.950897606349796"><ele>280.0</ele><time>2026-03-23T15:16:08Z</time></trkpt><trkpt lat="43.211666245340986" lon="11.950989978893004"><ele>280.0</ele><time>2026-03-23T15:16:09Z</time></trkpt><trkpt lat="43.21164593160194" lon="11.951112328124054"><ele>280.0</ele><time>2026-03-23T15:16:10Z</time></trkpt><trkpt lat="43.211627829184906" lon="11.951242707301198"><ele>280.0</ele><time>2026-03-23T15:16:11Z</time></trkpt><trkpt lat="43.211606100925025" lon="11.951365437071697"><ele>280.0</ele><time>2026-03-23T15:16:12Z</time></trkpt><trkpt lat="43.211579198784925" lon="11.951485703852331"><ele>280.0</ele><time>2026-03-23T15:16:13Z</time></trkpt><trkpt lat="43.21154879515665" lon="11.951614212126206"><ele>280.2</ele><time>2026-03-23T15:16:14Z</time></trkpt><trkpt lat="43.21151480910631" lon="11.951761291617972"><ele>280.4</ele><time>2026-03-23T15:16:15Z</time></trkpt><trkpt lat="43.21148044281187" lon="11.951899174874749"><ele>280.6</ele><time>2026-03-23T15:16:16Z</time></trkpt><trkpt lat="43.21145544707254" lon="11.952034334461796"><ele>280.8</ele><time>2026-03-23T15:16:17Z</time></trkpt><trkpt lat="43.21142724542404" lon="11.952157706075047"><ele>281.0</ele><time>2026-03-23T15:16:18Z</time></trkpt><trkpt lat="43.21140001594616" lon="11.95226170897142"><ele>281.0</ele><time>2026-03-23T15:16:19Z</time></trkpt><trkpt lat="43.211377121909095" lon="11.952357882379788"><ele>281.0</ele><time>2026-03-23T15:16:20Z</time></trkpt><trkpt lat="43.211358466726836" lon="11.952447861737289"><ele>281.0</ele><time>2026-03-23T15:16:21Z</time></trkpt><trkpt lat="43.21131562527623" lon="11.95261535461259"><ele>281.0</ele><time>2026-03-23T15:16:23Z</time></trkpt><trkpt lat="43.211290972307275" lon="11.952738269250736"><ele>281.0</ele><time>2026-03-23T15:16:25Z</time></trkpt><trkpt lat="43.21125728556419" lon="11.952818612648972"><ele>281.0</ele><time>2026-03-23T15:16:45Z</time></trkpt><trkpt lat="43.2111554198479" lon="11.952767546527062"><ele>281.0</ele><time>2026-03-23T15:16:48Z</time></trkpt><trkpt lat="43.21107625384454" lon="11.952741357617914"><ele>281.0</ele><time>2026-03-23T15:16:49Z</time></trkpt><trkpt lat="43.21100063632857" lon="11.952676709822207"><ele>281.0</ele><time>2026-03-23T15:16:50Z</time></trkpt><trkpt lat="43.21092046681144" lon="11.952618703114155"><ele>281.0</ele><time>2026-03-23T15:16:51Z</time></trkpt><trkpt lat="43.21082275740968" lon="11.95255460542106"><ele>281.0</ele><time>2026-03-23T15:16:52Z</time></trkpt><trkpt lat="43.210721879611704" lon="11.952497613466905"><ele>281.0</ele><time>2026-03-23T15:16:53Z</time></trkpt><trkpt lat="43.21061610746818" lon="11.95243192448212"><ele>281.0</ele><time>2026-03-23T15:16:54Z</time></trkpt><trkpt lat="43.210528287716215" lon="11.952367964116387"><ele>281.0</ele><time>2026-03-23T15:16:55Z</time></trkpt><trkpt lat="43.21044878832242" lon="11.952314623682463"><ele>281.0</ele><time>2026-03-23T15:16:56Z</time></trkpt><trkpt lat="43.210388083836186" lon="11.952274028900776"><ele>281.0</ele><time>2026-03-23T15:16:57Z</time></trkpt><trkpt lat="43.21029370796776" lon="11.952229168960995"><ele>281.0</ele><time>2026-03-23T15:16:59Z</time></trkpt><trkpt lat="43.21023070702867" lon="11.952280304938489"><ele>281.0</ele><time>2026-03-23T15:17:01Z</time></trkpt><trkpt lat="43.210176149614554" lon="11.952341047937518"><ele>281.0</ele><time>2026-03-23T15:17:02Z</time></trkpt><trkpt lat="43.21012155284144" lon="11.9524197988731"><ele>281.0</ele><time>2026-03-23T15:17:03Z</time></trkpt><trkpt lat="43.21006781753347" lon="11.952495402135483"><ele>281.0</ele><time>2026-03-23T15:17:04Z</time></trkpt><trkpt lat="43.20996160325249" lon="11.952513986438328"><ele>281.0</ele><time>2026-03-23T15:17:06Z</time></trkpt><trkpt lat="43.20982315543903" lon="11.952476550767827"><ele>281.2</ele><time>2026-03-23T15:17:08Z</time></trkpt><trkpt lat="43.209731189946325" lon="11.952423141832899"><ele>281.40000000000003</ele><time>2026-03-23T15:17:09Z</time></trkpt><trkpt lat="43.20966027793672" lon="11.952377285738631"><ele>281.6</ele><time>2026-03-23T15:17:10Z</time></trkpt><trkpt lat="43.20956511838359" lon="11.952315124409498"><ele>281.8</ele><time>2026-03-23T15:17:11Z</time></trkpt><trkpt lat="43.20947218555713" lon="11.952275672450476"><ele>282.0</ele><time>2026-03-23T15:17:12Z</time></trkpt><trkpt lat="43.209377726784965" lon="11.952212929733594"><ele>282.0</ele><time>2026-03-23T15:17:13Z</time></trkpt><trkpt lat="43.209277773592525" lon="11.952151421994582"><ele>282.0</ele><time>2026-03-23T15:17:14Z</time></trkpt><trkpt lat="43.20917140959016" lon="11.952104939692433"><ele>282.0</ele><time>2026-03-23T15:17:15Z</time></trkpt><trkpt lat="43.20907795511392" lon="11.95205457819629"><ele>282.0</ele><time>2026-03-23T15:17:16Z</time></trkpt><trkpt lat="43.208983131340226" lon="11.952008208886081"><ele>282.0</ele><time>2026-03-23T15:17:17Z</time></trkpt><trkpt lat="43.20892328972016" lon="11.951961665519365"><ele>282.0</ele><time>2026-03-23T15:17:18Z</time></trkpt><trkpt lat="43.20883745564646" lon="11.951915876476457"><ele>282.0</ele><time>2026-03-23T15:17:19Z</time></trkpt><trkpt lat="43.20875061350064" lon="11.951861931587072"><ele>282.0</ele><time>2026-03-23T15:17:20Z</time></trkpt><trkpt lat="43.208658666904036" lon="11.951795537570742"><ele>282.0</ele><time>2026-03-23T15:17:21Z</time></trkpt><trkpt lat="43.208602892584736" lon="11.951738878933131"><ele>282.0</ele><time>2026-03-23T15:17:22Z</time></trkpt><trkpt lat="43.20853414692357" lon="11.95159745696338"><ele>282.0</ele><time>2026-03-23T15:17:24Z</time></trkpt><trkpt lat="43.20849361409347" lon="11.951504471475795"><ele>282.0</ele><time>2026-03-23T15:17:25Z</time></trkpt><trkpt lat="43.20845946345238" lon="11.951419063672482"><ele>282.0</ele><time>2026-03-23T15:17:26Z</time></trkpt><trkpt lat="43.208403264485995" lon="11.951303787743962"><ele>282.0</ele><time>2026-03-23T15:17:27Z</time></trkpt><trkpt lat="43.20833860690556" lon="11.951217683355233"><ele>282.0</ele><time>2026-03-23T15:17:28Z</time></trkpt><trkpt lat="43.2082578367059" lon="11.951151233752128"><ele>282.0</ele><time>2026-03-23T15:17:29Z</time></trkpt><trkpt lat="43.20815607402829" lon="11.951091405599456"><ele>282.0</ele><time>2026-03-23T15:17:30Z</time></trkpt><trkpt lat="43.20806796340641" lon="11.951042029816232"><ele>282.0</ele><time>2026-03-23T15:17:31Z</time></trkpt><trkpt lat="43.20797156335794" lon="11.950992457492346"><ele>282.0</ele><time>2026-03-23T15:17:32Z</time></trkpt><trkpt lat="43.2078646975398" lon="11.950936255673989"><ele>282.0</ele><time>2026-03-23T15:17:33Z</time></trkpt><trkpt lat="43.20775547589513" lon="11.95087678544299"><ele>282.0</ele><time>2026-03-23T15:17:34Z</time></trkpt><trkpt lat="43.20764585046638" lon="11.950816320685716"><ele>282.0</ele><time>2026-03-23T15:17:35Z</time></trkpt><trkpt lat="43.20755665651595" lon="11.95076590970787"><ele>282.0</ele><time>2026-03-23T15:17:36Z</time></trkpt><trkpt lat="43.20746737390422" lon="11.950713314295044"><ele>282.0</ele><time>2026-03-23T15:17:37Z</time></trkpt><trkpt lat="43.20736266244199" lon="11.95067181547674"><ele>282.0</ele><time>2026-03-23T15:17:38Z</time></trkpt><trkpt lat="43.20727839549722" lon="11.950585006194574"><ele>282.0</ele><time>2026-03-23T15:17:39Z</time></trkpt><trkpt lat="43.20719646593011" lon="11.950521602077982"><ele>282.0</ele><time>2026-03-23T15:17:40Z</time></trkpt><trkpt lat="43.207108766515525" lon="11.950452269227622"><ele>282.0</ele><time>2026-03-23T15:17:41Z</time></trkpt><trkpt lat="43.207010116875786" lon="11.950375996009575"><ele>282.0</ele><time>2026-03-23T15:17:42Z</time></trkpt><trkpt lat="43.206918788434855" lon="11.95030686877236"><ele>282.0</ele><time>2026-03-23T15:17:43Z</time></trkpt><trkpt lat="43.20683871161968" lon="11.950246258024357"><ele>282.0</ele><time>2026-03-23T15:17:44Z</time></trkpt><trkpt lat="43.20675460066935" lon="11.9501825954302"><ele>282.0</ele><time>2026-03-23T15:17:45Z</time></trkpt><trkpt lat="43.20666099326121" lon="11.95010893050601"><ele>282.0</ele><time>2026-03-23T15:17:46Z</time></trkpt><trkpt lat="43.20656352307958" lon="11.950030582390326"><ele>282.0</ele><time>2026-03-23T15:17:47Z</time></trkpt><trkpt lat="43.20646714163657" lon="11.94995310933952"><ele>282.0</ele><time>2026-03-23T15:17:48Z</time></trkpt><trkpt lat="43.20637543370981" lon="11.94988208192723"><ele>282.0</ele><time>2026-03-23T15:17:49Z</time></trkpt><trkpt lat="43.206289723872544" lon="11.94981582308333"><ele>282.0</ele><time>2026-03-23T15:17:50Z</time></trkpt><trkpt lat="43.20619852978861" lon="11.949749018441707"><ele>282.0</ele><time>2026-03-23T15:17:51Z</time></trkpt><trkpt lat="43.20610220114743" lon="11.949683837817796"><ele>282.0</ele><time>2026-03-23T15:17:52Z</time></trkpt><trkpt lat="43.20599424071141" lon="11.949616884415502"><ele>282.0</ele><time>2026-03-23T15:17:53Z</time></trkpt><trkpt lat="43.20586862404175" lon="11.949546969416046"><ele>282.0</ele><time>2026-03-23T15:17:54Z</time></trkpt><trkpt lat="43.2057527575791" lon="11.94950461431124"><ele>282.0</ele><time>2026-03-23T15:17:55Z</time></trkpt><trkpt lat="43.20565450856174" lon="11.949461370580094"><ele>282.0</ele><time>2026-03-23T15:17:56Z</time></trkpt><trkpt lat="43.205561571795776" lon="11.949450774200818"><ele>282.0</ele><time>2026-03-23T15:17:57Z</time></trkpt><trkpt lat="43.2054441775839" lon="11.949437248981857"><ele>282.0</ele><time>2026-03-23T15:17:58Z</time></trkpt><trkpt lat="43.20532840811248" lon="11.949419561900333"><ele>282.4</ele><time>2026-03-23T15:17:59Z</time></trkpt><trkpt lat="43.205225214279906" lon="11.949395187510651"><ele>282.79999999999995</ele><time>2026-03-23T15:18:00Z</time></trkpt><trkpt lat="43.205114053444206" lon="11.949338796705293"><ele>283.2</ele><time>2026-03-23T15:18:01Z</time></trkpt><trkpt lat="43.20500660326628" lon="11.949297903611727"><ele>283.59999999999997</ele><time>2026-03-23T15:18:02Z</time></trkpt><trkpt lat="43.204919838057144" lon="11.9492642006214"><ele>284.0</ele><time>2026-03-23T15:18:03Z</time></trkpt><trkpt lat="43.20482835485654" lon="11.949227467314458"><ele>284.4</ele><time>2026-03-23T15:18:04Z</time></trkpt><trkpt lat="43.20472694078869" lon="11.949184180801502"><ele>284.79999999999995</ele><time>2026-03-23T15:18:05Z</time></trkpt><trkpt lat="43.20461966583886" lon="11.949137358764128"><ele>285.20000000000005</ele><time>2026-03-23T15:18:06Z</time></trkpt><trkpt lat="43.20452362177577" lon="11.949098360697972"><ele>285.6</ele><time>2026-03-23T15:18:07Z</time></trkpt><trkpt lat="43.20444193775483" lon="11.949066083870017"><ele>286.0</ele><time>2026-03-23T15:18:08Z</time></trkpt><trkpt lat="43.2043504485664" lon="11.949034033106122"><ele>286.0</ele><time>2026-03-23T15:18:09Z</time></trkpt><trkpt lat="43.204242690844126" lon="11.949005968797433"><ele>286.0</ele><time>2026-03-23T15:18:10Z</time></trkpt><trkpt lat="43.204139018038845" lon="11.948995490146954"><ele>286.0</ele><time>2026-03-23T15:18:11Z</time></trkpt><trkpt lat="43.20404470638801" lon="11.949011276273703"><ele>286.0</ele><time>2026-03-23T15:18:12Z</time></trkpt><trkpt lat="43.2039510982473" lon="11.949012000187073"><ele>286.0</ele><time>2026-03-23T15:18:13Z</time></trkpt><trkpt lat="43.20387270926848" lon="11.948982466837853"><ele>286.3333333333333</ele><time>2026-03-23T15:18:14Z</time></trkpt><trkpt lat="43.20380358110456" lon="11.948979342868284"><ele>286.66666666666663</ele><time>2026-03-23T15:18:16Z</time></trkpt><trkpt lat="43.203830794875756" lon="11.948896767110348"><ele>287.0</ele><time>2026-03-23T15:18:18Z</time></trkpt><trkpt lat="43.20384035573336" lon="11.948766972567636"><ele>287.3333333333333</ele><time>2026-03-23T15:18:21Z</time></trkpt><trkpt lat="43.20384438292785" lon="11.948673128168934"><ele>287.6666666666667</ele><time>2026-03-23T15:18:23Z</time></trkpt><trkpt lat="43.20387351968841" lon="11.948521724650835"><ele>288.0</ele><time>2026-03-23T15:18:26Z</time></trkpt><trkpt lat="43.20389247371585" lon="11.948396713657583"><ele>288.0</ele><time>2026-03-23T15:18:27Z</time></trkpt><trkpt lat="43.20391354337398" lon="11.948276112304569"><ele>288.0</ele><time>2026-03-23T15:18:28Z</time></trkpt><trkpt lat="43.20394272886483" lon="11.948143645708582"><ele>288.0</ele><time>2026-03-23T15:18:29Z</time></trkpt><trkpt lat="43.20397037873701" lon="11.947991383957163"><ele>288.0</ele><time>2026-03-23T15:18:30Z</time></trkpt><trkpt lat="43.20402353175384" lon="11.947849253541206"><ele>288.0</ele><time>2026-03-23T15:18:31Z</time></trkpt><trkpt lat="43.20404985079663" lon="11.947700481624858"><ele>287.75</ele><time>2026-03-23T15:18:32Z</time></trkpt><trkpt lat="43.20409452785506" lon="11.947552720881973"><ele>287.5</ele><time>2026-03-23T15:18:33Z</time></trkpt><trkpt lat="43.20416023408962" lon="11.947397015875826"><ele>287.25</ele><time>2026-03-23T15:18:34Z</time></trkpt><trkpt lat="43.20421023814421" lon="11.947228563529219"><ele>287.0</ele><time>2026-03-23T15:18:35Z</time></trkpt><trkpt lat="43.20425402824285" lon="11.947069173154613"><ele>287.25</ele><time>2026-03-23T15:18:36Z</time></trkpt><trkpt lat="43.20428904462386" lon="11.94689323358233"><ele>287.5</ele><time>2026-03-23T15:18:37Z</time></trkpt><trkpt lat="43.20435268703984" lon="11.946728118833978"><ele>287.75</ele><time>2026-03-23T15:18:38Z</time></trkpt><trkpt lat="43.204400521449244" lon="11.94657220053895"><ele>288.0</ele><time>2026-03-23T15:18:39Z</time></trkpt><trkpt lat="43.20444339567275" lon="11.946431610616505"><ele>288.0</ele><time>2026-03-23T15:18:40Z</time></trkpt><trkpt lat="43.20448524587366" lon="11.946283908964006"><ele>288.0</ele><time>2026-03-23T15:18:41Z</time></trkpt><trkpt lat="43.20452543654198" lon="11.946142064189468"><ele>288.0</ele><time>2026-03-23T15:18:42Z</time></trkpt><trkpt lat="43.20456148402488" lon="11.946019875809258"><ele>288.0</ele><time>2026-03-23T15:18:43Z</time></trkpt><trkpt lat="43.20459234177" lon="11.945917630053245"><ele>288.0</ele><time>2026-03-23T15:18:44Z</time></trkpt><trkpt lat="43.204621705912345" lon="11.945772055434606"><ele>287.4</ele><time>2026-03-23T15:18:46Z</time></trkpt><trkpt lat="43.204614547225525" lon="11.945648216272653"><ele>286.8</ele><time>2026-03-23T15:18:48Z</time></trkpt><trkpt lat="43.20451713145001" lon="11.94557548536504"><ele>286.2</ele><time>2026-03-23T15:18:50Z</time></trkpt><trkpt lat="43.204456644974904" lon="11.945511049279895"><ele>285.6</ele><time>2026-03-23T15:18:51Z</time></trkpt><trkpt lat="43.20435837829276" lon="11.945469336154014"><ele>285.0</ele><time>2026-03-23T15:18:52Z</time></trkpt><trkpt lat="43.20425799030468" lon="11.94542570986116"><ele>285.0</ele><time>2026-03-23T15:18:53Z</time></trkpt><trkpt lat="43.2041430137719" lon="11.945386978092943"><ele>285.0</ele><time>2026-03-23T15:18:54Z</time></trkpt><trkpt lat="43.20405529893793" lon="11.945343890093318"><ele>285.0</ele><time>2026-03-23T15:18:55Z</time></trkpt><trkpt lat="43.2039723257739" lon="11.945281031227603"><ele>285.0</ele><time>2026-03-23T15:18:56Z</time></trkpt><trkpt lat="43.20389586077998" lon="11.945223907654286"><ele>285.0</ele><time>2026-03-23T15:18:57Z</time></trkpt><trkpt lat="43.20380916933835" lon="11.94515769657903"><ele>285.3333333333333</ele><time>2026-03-23T15:18:58Z</time></trkpt><trkpt lat="43.203720953124204" lon="11.945088057631068"><ele>285.6666666666667</ele><time>2026-03-23T15:18:59Z</time></trkpt><trkpt lat="43.203642965353545" lon="11.945022496040183"><ele>286.0</ele><time>2026-03-23T15:19:00Z</time></trkpt><trkpt lat="43.203565871993085" lon="11.944954463074454"><ele>286.33333333333337</ele><time>2026-03-23T15:19:01Z</time></trkpt><trkpt lat="43.20351112688231" lon="11.944892211075679"><ele>286.6666666666667</ele><time>2026-03-23T15:19:02Z</time></trkpt><trkpt lat="43.20347203076667" lon="11.9448146959565"><ele>287.0</ele><time>2026-03-23T15:19:03Z</time></trkpt><trkpt lat="43.20343511379419" lon="11.944721173178836"><ele>287.0</ele><time>2026-03-23T15:19:04Z</time></trkpt><trkpt lat="43.20339845650739" lon="11.94463745359684"><ele>287.0</ele><time>2026-03-23T15:19:05Z</time></trkpt><trkpt lat="43.20335088851458" lon="11.944540195565438"><ele>287.0</ele><time>2026-03-23T15:19:06Z</time></trkpt><trkpt lat="43.20330159217832" lon="11.94446022081207"><ele>287.0</ele><time>2026-03-23T15:19:07Z</time></trkpt><trkpt lat="43.20321795840827" lon="11.944394542429276"><ele>287.0</ele><time>2026-03-23T15:19:08Z</time></trkpt><trkpt lat="43.20312515967175" lon="11.944339387300063"><ele>287.0</ele><time>2026-03-23T15:19:09Z</time></trkpt><trkpt lat="43.20302324956301" lon="11.94426957086918"><ele>287.6</ele><time>2026-03-23T15:19:10Z</time></trkpt><trkpt lat="43.20294304361702" lon="11.944193893252613"><ele>288.2</ele><time>2026-03-23T15:19:11Z</time></trkpt><trkpt lat="43.20287128058464" lon="11.944109608825352"><ele>288.8</ele><time>2026-03-23T15:19:12Z</time></trkpt><trkpt lat="43.2027995936088" lon="11.94402649496595"><ele>289.4</ele><time>2026-03-23T15:19:13Z</time></trkpt><trkpt lat="43.20272364582244" lon="11.943941103973298"><ele>290.0</ele><time>2026-03-23T15:19:14Z</time></trkpt><trkpt lat="43.20264573457749" lon="11.94385493304245"><ele>290.0</ele><time>2026-03-23T15:19:15Z</time></trkpt><trkpt lat="43.202571207053246" lon="11.943774703244372"><ele>290.0</ele><time>2026-03-23T15:19:16Z</time></trkpt><trkpt lat="43.20251404341738" lon="11.943714566918311"><ele>290.0</ele><time>2026-03-23T15:19:17Z</time></trkpt><trkpt lat="43.20243584612233" lon="11.943635283120678"><ele>290.0</ele><time>2026-03-23T15:19:18Z</time></trkpt><trkpt lat="43.2023710045362" lon="11.94357178457204"><ele>290.0</ele><time>2026-03-23T15:19:19Z</time></trkpt><trkpt lat="43.20230995626673" lon="11.943539701784983"><ele>290.0</ele><time>2026-03-23T15:19:20Z</time></trkpt><trkpt lat="43.20226108587552" lon="11.94347972989718"><ele>289.5</ele><time>2026-03-23T15:19:21Z</time></trkpt><trkpt lat="43.20217892522989" lon="11.943388105246578"><ele>289.0</ele><time>2026-03-23T15:19:23Z</time></trkpt><trkpt lat="43.2022545960066" lon="11.943184788948438"><ele>288.5</ele><time>2026-03-23T15:19:25Z</time></trkpt><trkpt lat="43.20227770364227" lon="11.943056363208813"><ele>288.0</ele><time>2026-03-23T15:19:26Z</time></trkpt><trkpt lat="43.20230067573535" lon="11.942929027577417"><ele>288.0</ele><time>2026-03-23T15:19:27Z</time></trkpt><trkpt lat="43.202327299487386" lon="11.942781450878083"><ele>288.0</ele><time>2026-03-23T15:19:28Z</time></trkpt><trkpt lat="43.202353542056876" lon="11.942639626687258"><ele>288.0</ele><time>2026-03-23T15:19:29Z</time></trkpt><trkpt lat="43.20237456957424" lon="11.942483057261484"><ele>288.0</ele><time>2026-03-23T15:19:30Z</time></trkpt><trkpt lat="43.202400872345315" lon="11.942324059441773"><ele>288.5</ele><time>2026-03-23T15:19:31Z</time></trkpt><trkpt lat="43.202438437353855" lon="11.942186529883331"><ele>289.0</ele><time>2026-03-23T15:19:32Z</time></trkpt><trkpt lat="43.202464690997495" lon="11.942030674161506"><ele>289.5</ele><time>2026-03-23T15:19:33Z</time></trkpt><trkpt lat="43.20249006344594" lon="11.941880820588656"><ele>290.0</ele><time>2026-03-23T15:19:34Z</time></trkpt><trkpt lat="43.202528544786" lon="11.941730222166994"><ele>290.0</ele><time>2026-03-23T15:19:35Z</time></trkpt><trkpt lat="43.20256402732196" lon="11.941564382847133"><ele>290.0</ele><time>2026-03-23T15:19:36Z</time></trkpt><trkpt lat="43.20257889710459" lon="11.94139938570548"><ele>290.0</ele><time>2026-03-23T15:19:37Z</time></trkpt><trkpt lat="43.202619699957" lon="11.941244672312004"><ele>290.0</ele><time>2026-03-23T15:19:38Z</time></trkpt><trkpt lat="43.202633502821755" lon="11.941079782794011"><ele>290.0</ele><time>2026-03-23T15:19:39Z</time></trkpt><trkpt lat="43.20267767196252" lon="11.940939128467225"><ele>290.0</ele><time>2026-03-23T15:19:40Z</time></trkpt><trkpt lat="43.20269216449036" lon="11.940809726647311"><ele>290.0</ele><time>2026-03-23T15:19:41Z</time></trkpt><trkpt lat="43.20271171968291" lon="11.940691610363778"><ele>290.0</ele><time>2026-03-23T15:19:42Z</time></trkpt><trkpt lat="43.20274774010446" lon="11.940590093621944"><ele>290.0</ele><time>2026-03-23T15:19:43Z</time></trkpt><trkpt lat="43.2027591169152" lon="11.940496596999672"><ele>290.0</ele><time>2026-03-23T15:19:45Z</time></trkpt><trkpt lat="43.202845007076185" lon="11.940569885444079"><ele>290.2</ele><time>2026-03-23T15:19:48Z</time></trkpt><trkpt lat="43.20292387879113" lon="11.940608889074717"><ele>290.4</ele><time>2026-03-23T15:19:49Z</time></trkpt><trkpt lat="43.203019924609805" lon="11.940635743139612"><ele>290.6</ele><time>2026-03-23T15:19:50Z</time></trkpt><trkpt lat="43.20312823885309" lon="11.940694937457037"><ele>290.8</ele><time>2026-03-23T15:19:51Z</time></trkpt><trkpt lat="43.20326008235837" lon="11.940759145287174"><ele>291.0</ele><time>2026-03-23T15:19:52Z</time></trkpt><trkpt lat="43.20339349088998" lon="11.940792839577842"><ele>291.0</ele><time>2026-03-23T15:19:53Z</time></trkpt><trkpt lat="43.203554210965706" lon="11.94078407546668"><ele>291.0</ele><time>2026-03-23T15:19:54Z</time></trkpt><trkpt lat="43.20371412686415" lon="11.940778727728029"><ele>291.0</ele><time>2026-03-23T15:19:55Z</time></trkpt><trkpt lat="43.20388023995011" lon="11.940778393621805"><ele>291.0</ele><time>2026-03-23T15:19:56Z</time></trkpt><trkpt lat="43.20405843468196" lon="11.940765992434283"><ele>291.0</ele><time>2026-03-23T15:19:57Z</time></trkpt><trkpt lat="43.204234703440484" lon="11.940755513676814"><ele>291.0</ele><time>2026-03-23T15:19:58Z</time></trkpt><trkpt lat="43.204397806668965" lon="11.940734858701177"><ele>291.0</ele><time>2026-03-23T15:19:59Z</time></trkpt><trkpt lat="43.20456772011858" lon="11.940703239624359"><ele>291.0</ele><time>2026-03-23T15:20:00Z</time></trkpt><trkpt lat="43.204740301046435" lon="11.94059155575218"><ele>291.0</ele><time>2026-03-23T15:20:01Z</time></trkpt><trkpt lat="43.204902488323725" lon="11.940480058429195"><ele>290.6666666666667</ele><time>2026-03-23T15:20:02Z</time></trkpt><trkpt lat="43.20505552022217" lon="11.940385069197227"><ele>290.33333333333337</ele><time>2026-03-23T15:20:03Z</time></trkpt><trkpt lat="43.205216644759595" lon="11.940335161387205"><ele>290.0</ele><time>2026-03-23T15:20:04Z</time></trkpt><trkpt lat="43.205394111794334" lon="11.94030958364104"><ele>290.0</ele><time>2026-03-23T15:20:05Z</time></trkpt><trkpt lat="43.20557109477082" lon="11.940311612848776"><ele>290.0</ele><time>2026-03-23T15:20:06Z</time></trkpt><trkpt lat="43.20574741191165" lon="11.940311090206338"><ele>290.0</ele><time>2026-03-23T15:20:07Z</time></trkpt><trkpt lat="43.20590997184773" lon="11.94031539891775"><ele>290.0</ele><time>2026-03-23T15:20:08Z</time></trkpt><trkpt lat="43.20605980516969" lon="11.940315031228732"><ele>290.0</ele><time>2026-03-23T15:20:09Z</time></trkpt><trkpt lat="43.20621812019556" lon="11.940332478008356"><ele>290.0</ele><time>2026-03-23T15:20:10Z</time></trkpt><trkpt lat="43.2063740463648" lon="11.940390066499042"><ele>290.6666666666667</ele><time>2026-03-23T15:20:11Z</time></trkpt><trkpt lat="43.20652985726286" lon="11.940478543411313"><ele>291.3333333333333</ele><time>2026-03-23T15:20:12Z</time></trkpt><trkpt lat="43.20669131599378" lon="11.940575169996865"><ele>292.0</ele><time>2026-03-23T15:20:13Z</time></trkpt><trkpt lat="43.206861824701384" lon="11.940662706679719"><ele>292.0</ele><time>2026-03-23T15:20:14Z</time></trkpt><trkpt lat="43.207020458160954" lon="11.940732838377167"><ele>292.0</ele><time>2026-03-23T15:20:15Z</time></trkpt><trkpt lat="43.20717332961421" lon="11.940819511385374"><ele>292.0</ele><time>2026-03-23T15:20:16Z</time></trkpt><trkpt lat="43.207317027922564" lon="11.94091067100387"><ele>291.3333333333333</ele><time>2026-03-23T15:20:17Z</time></trkpt><trkpt lat="43.20745852900054" lon="11.940991207984458"><ele>290.6666666666667</ele><time>2026-03-23T15:20:18Z</time></trkpt><trkpt lat="43.207605505674564" lon="11.941068133952605"><ele>290.0</ele><time>2026-03-23T15:20:19Z</time></trkpt><trkpt lat="43.20775749638814" lon="11.941153766691208"><ele>290.0</ele><time>2026-03-23T15:20:20Z</time></trkpt><trkpt lat="43.20791411327027" lon="11.941235352315864"><ele>290.0</ele><time>2026-03-23T15:20:21Z</time></trkpt><trkpt lat="43.2080809251719" lon="11.941304417242266"><ele>290.0</ele><time>2026-03-23T15:20:22Z</time></trkpt><trkpt lat="43.20825080735255" lon="11.941363150317041"><ele>289.6666666666667</ele><time>2026-03-23T15:20:23Z</time></trkpt><trkpt lat="43.20841427579158" lon="11.941425201519133"><ele>289.3333333333333</ele><time>2026-03-23T15:20:24Z</time></trkpt><trkpt lat="43.20858567020268" lon="11.94148978859172"><ele>289.0</ele><time>2026-03-23T15:20:25Z</time></trkpt><trkpt lat="43.208751749628945" lon="11.94154922135848"><ele>289.0</ele><time>2026-03-23T15:20:26Z</time></trkpt><trkpt lat="43.20890870907927" lon="11.941609524040318"><ele>289.0</ele><time>2026-03-23T15:20:27Z</time></trkpt><trkpt lat="43.209069860748315" lon="11.941673646470523"><ele>289.0</ele><time>2026-03-23T15:20:28Z</time></trkpt><trkpt lat="43.209238040248174" lon="11.941745413963174"><ele>288.3333333333333</ele><time>2026-03-23T15:20:29Z</time></trkpt><trkpt lat="43.20940959878599" lon="11.941819314462531"><ele>287.6666666666667</ele><time>2026-03-23T15:20:30Z</time></trkpt><trkpt lat="43.20958392783792" lon="11.941906417640238"><ele>287.0</ele><time>2026-03-23T15:20:31Z</time></trkpt><trkpt lat="43.209758321208234" lon="11.94200869271476"><ele>286.6666666666667</ele><time>2026-03-23T15:20:32Z</time></trkpt><trkpt lat="43.20992495196661" lon="11.942110267210422"><ele>286.3333333333333</ele><time>2026-03-23T15:20:33Z</time></trkpt><trkpt lat="43.21008825765617" lon="11.94221548952157"><ele>286.0</ele><time>2026-03-23T15:20:34Z</time></trkpt><trkpt lat="43.21025373219179" lon="11.942308760401104"><ele>286.0</ele><time>2026-03-23T15:20:35Z</time></trkpt><trkpt lat="43.21042063469533" lon="11.942377150085157"><ele>286.0</ele><time>2026-03-23T15:20:36Z</time></trkpt><trkpt lat="43.2105953264771" lon="11.942429663663189"><ele>286.0</ele><time>2026-03-23T15:20:37Z</time></trkpt><trkpt lat="43.21077752212131" lon="11.942476935178346"><ele>286.0</ele><time>2026-03-23T15:20:38Z</time></trkpt><trkpt lat="43.21096782195717" lon="11.942541320620577"><ele>286.0</ele><time>2026-03-23T15:20:39Z</time></trkpt><trkpt lat="43.211161371384215" lon="11.94261542242058"><ele>286.0</ele><time>2026-03-23T15:20:40Z</time></trkpt><trkpt lat="43.21135069360917" lon="11.94269941907034"><ele>286.66666666666663</ele><time>2026-03-23T15:20:41Z</time></trkpt><trkpt lat="43.21155158724652" lon="11.94277962097084"><ele>287.3333333333333</ele><time>2026-03-23T15:20:42Z</time></trkpt><trkpt lat="43.21162037564061" lon="11.942915138978051"><ele>288.0</ele><time>2026-03-23T15:20:43Z</time></trkpt><trkpt lat="43.21175683698731" lon="11.943089395967439"><ele>288.0</ele><time>2026-03-23T15:20:44Z</time></trkpt><trkpt lat="43.211902822623664" lon="11.94326465741809"><ele>288.0</ele><time>2026-03-23T15:20:45Z</time></trkpt><trkpt lat="43.21205518843278" lon="11.943436222664756"><ele>288.0</ele><time>2026-03-23T15:20:46Z</time></trkpt><trkpt lat="43.21219043864418" lon="11.94361516483071"><ele>287.3333333333333</ele><time>2026-03-23T15:20:47Z</time></trkpt><trkpt lat="43.21232074850815" lon="11.943774384196082"><ele>286.66666666666663</ele><time>2026-03-23T15:20:48Z</time></trkpt><trkpt lat="43.212446094424905" lon="11.943911474700895"><ele>286.0</ele><time>2026-03-23T15:20:49Z</time></trkpt><trkpt lat="43.21256868745048" lon="11.944019049601533"><ele>286.0</ele><time>2026-03-23T15:20:50Z</time></trkpt><trkpt lat="43.212690158147666" lon="11.944104269353685"><ele>286.0</ele><time>2026-03-23T15:20:51Z</time></trkpt><trkpt lat="43.212823633034596" lon="11.944157581204795"><ele>286.0</ele><time>2026-03-23T15:20:52Z</time></trkpt><trkpt lat="43.21297003714646" lon="11.944191892071869"><ele>286.0</ele><time>2026-03-23T15:20:53Z</time></trkpt><trkpt lat="43.21312173870738" lon="11.94421768730782"><ele>285.3333333333333</ele><time>2026-03-23T15:20:54Z</time></trkpt><trkpt lat="43.213286094998494" lon="11.944234100492215"><ele>284.6666666666667</ele><time>2026-03-23T15:20:55Z</time></trkpt><trkpt lat="43.21343432880836" lon="11.944244614683644"><ele>284.0</ele><time>2026-03-23T15:20:56Z</time></trkpt><trkpt lat="43.21358251135322" lon="11.944249696637948"><ele>284.0</ele><time>2026-03-23T15:20:57Z</time></trkpt><trkpt lat="43.21372910939321" lon="11.94425684006554"><ele>284.0</ele><time>2026-03-23T15:20:57.999Z</time></trkpt><trkpt lat="43.213884188639256" lon="11.944277659389872"><ele>284.0</ele><time>2026-03-23T15:20:58.999Z</time></trkpt><trkpt lat="43.21403739587539" lon="11.944296904015767"><ele>284.0</ele><time>2026-03-23T15:20:59.999Z</time></trkpt><trkpt lat="43.21417192998906" lon="11.94431231206897"><ele>284.0</ele><time>2026-03-23T15:21:00.999Z</time></trkpt><trkpt lat="43.21429551461397" lon="11.944327585155671"><ele>284.0</ele><time>2026-03-23T15:21:01.999Z</time></trkpt><trkpt lat="43.21441593404737" lon="11.944346253085921"><ele>284.0</ele><time>2026-03-23T15:21:02.999Z</time></trkpt><trkpt lat="43.21454389682219" lon="11.94439810515258"><ele>284.0</ele><time>2026-03-23T15:21:03.999Z</time></trkpt><trkpt lat="43.214684945176" lon="11.944459468753498"><ele>284.0</ele><time>2026-03-23T15:21:04.999Z</time></trkpt><trkpt lat="43.2148124303081" lon="11.944515085567469"><ele>284.0</ele><time>2026-03-23T15:21:05.999Z</time></trkpt><trkpt lat="43.21494219736522" lon="11.944585959023117"><ele>284.0</ele><time>2026-03-23T15:21:06.999Z</time></trkpt><trkpt lat="43.21507444349748" lon="11.944691552086658"><ele>284.0</ele><time>2026-03-23T15:21:07.999Z</time></trkpt><trkpt lat="43.21519886481919" lon="11.944803962981203"><ele>284.0</ele><time>2026-03-23T15:21:08.999Z</time></trkpt><trkpt lat="43.21531747367073" lon="11.944906550218704"><ele>284.0</ele><time>2026-03-23T15:21:09.999Z</time></trkpt><trkpt lat="43.21543129772799" lon="11.945005295786078"><ele>284.0</ele><time>2026-03-23T15:21:10.999Z</time></trkpt><trkpt lat="43.21555777789176" lon="11.945121956630352"><ele>283.0</ele><time>2026-03-23T15:21:11.999Z</time></trkpt><trkpt lat="43.21570036416449" lon="11.945244349914788"><ele>282.0</ele><time>2026-03-23T15:21:12.999Z</time></trkpt><trkpt lat="43.215837437699335" lon="11.94536394431588"><ele>281.0</ele><time>2026-03-23T15:21:13.999Z</time></trkpt><trkpt lat="43.21598361358887" lon="11.945480903725661"><ele>281.0</ele><time>2026-03-23T15:21:14.999Z</time></trkpt><trkpt lat="43.21612728443763" lon="11.945597151654997"><ele>281.0</ele><time>2026-03-23T15:21:15.999Z</time></trkpt><trkpt lat="43.21626553480279" lon="11.945722460940859"><ele>281.0</ele><time>2026-03-23T15:21:16.999Z</time></trkpt><trkpt lat="43.216384527795604" lon="11.945843387867988"><ele>281.0</ele><time>2026-03-23T15:21:18Z</time></trkpt><trkpt lat="43.21650303675753" lon="11.945970622851503"><ele>281.0</ele><time>2026-03-23T15:21:19Z</time></trkpt><trkpt lat="43.216594062864075" lon="11.9461086171652"><ele>281.0</ele><time>2026-03-23T15:21:20Z</time></trkpt><trkpt lat="43.21665981854677" lon="11.946234012728189"><ele>281.0</ele><time>2026-03-23T15:21:21Z</time></trkpt><trkpt lat="43.216715784340714" lon="11.946349745457345"><ele>281.0</ele><time>2026-03-23T15:21:22Z</time></trkpt><trkpt lat="43.216780224592554" lon="11.946470534712464"><ele>281.0</ele><time>2026-03-23T15:21:23Z</time></trkpt><trkpt lat="43.21687309980982" lon="11.946618164450946"><ele>281.0</ele><time>2026-03-23T15:21:24Z</time></trkpt><trkpt lat="43.21697987708519" lon="11.946730757982342"><ele>281.0</ele><time>2026-03-23T15:21:25Z</time></trkpt><trkpt lat="43.217101498661876" lon="11.946842823227486"><ele>280.33333333333337</ele><time>2026-03-23T15:21:26Z</time></trkpt><trkpt lat="43.21723607595327" lon="11.946959774342888"><ele>279.6666666666667</ele><time>2026-03-23T15:21:27Z</time></trkpt><trkpt lat="43.21736625972136" lon="11.9470675999077"><ele>279.0</ele><time>2026-03-23T15:21:28Z</time></trkpt><trkpt lat="43.2174849475507" lon="11.947165899615985"><ele>279.0</ele><time>2026-03-23T15:21:29.001Z</time></trkpt><trkpt lat="43.2176174974407" lon="11.947284127351434"><ele>279.0</ele><time>2026-03-23T15:21:30.001Z</time></trkpt><trkpt lat="43.217747220635175" lon="11.94739956071307"><ele>279.0</ele><time>2026-03-23T15:21:31.001Z</time></trkpt><trkpt lat="43.21787212254862" lon="11.947506054495628"><ele>279.25</ele><time>2026-03-23T15:21:32.001Z</time></trkpt><trkpt lat="43.21799867534619" lon="11.947609499774742"><ele>279.5</ele><time>2026-03-23T15:21:33.001Z</time></trkpt><trkpt lat="43.21811704758831" lon="11.9477027721363"><ele>279.75</ele><time>2026-03-23T15:21:34.001Z</time></trkpt><trkpt lat="43.218254185011716" lon="11.947801177712176"><ele>280.0</ele><time>2026-03-23T15:21:35.001Z</time></trkpt><trkpt lat="43.21838290659854" lon="11.947894017364822"><ele>280.0</ele><time>2026-03-23T15:21:36.001Z</time></trkpt><trkpt lat="43.218516085817036" lon="11.947986255297"><ele>280.0</ele><time>2026-03-23T15:21:37.001Z</time></trkpt><trkpt lat="43.21865086487884" lon="11.948084805825921"><ele>280.0</ele><time>2026-03-23T15:21:38.001Z</time></trkpt><trkpt lat="43.21879208710715" lon="11.94818750824545"><ele>280.0</ele><time>2026-03-23T15:21:39.001Z</time></trkpt><trkpt lat="43.21892735613601" lon="11.948285918932914"><ele>280.0</ele><time>2026-03-23T15:21:40.001Z</time></trkpt><trkpt lat="43.21907239610772" lon="11.948390127279145"><ele>280.0</ele><time>2026-03-23T15:21:41.001Z</time></trkpt><trkpt lat="43.21922032033596" lon="11.948494360865453"><ele>280.0</ele><time>2026-03-23T15:21:42.001Z</time></trkpt><trkpt lat="43.219353185573404" lon="11.948584223450453"><ele>280.0</ele><time>2026-03-23T15:21:43.001Z</time></trkpt><trkpt lat="43.21946007429377" lon="11.948657049107696"><ele>280.0</ele><time>2026-03-23T15:21:44.001Z</time></trkpt><trkpt lat="43.219558157209335" lon="11.948726933889647"><ele>280.0</ele><time>2026-03-23T15:21:45.001Z</time></trkpt><trkpt lat="43.21968914807863" lon="11.948810215483745"><ele>279.3333333333333</ele><time>2026-03-23T15:21:46.001Z</time></trkpt><trkpt lat="43.219832595320156" lon="11.948910695587221"><ele>278.6666666666667</ele><time>2026-03-23T15:21:47.001Z</time></trkpt><trkpt lat="43.21997218476699" lon="11.94901108501933"><ele>278.0</ele><time>2026-03-23T15:21:48.001Z</time></trkpt><trkpt lat="43.220109798697194" lon="11.949109663087485"><ele>278.0</ele><time>2026-03-23T15:21:49.001Z</time></trkpt><trkpt lat="43.220246875492116" lon="11.949204430042121"><ele>278.0</ele><time>2026-03-23T15:21:50.001Z</time></trkpt><trkpt lat="43.22038859656798" lon="11.94930050923972"><ele>278.0</ele><time>2026-03-23T15:21:51.001Z</time></trkpt><trkpt lat="43.22053317183559" lon="11.94939598893722"><ele>278.25</ele><time>2026-03-23T15:21:52.001Z</time></trkpt><trkpt lat="43.22066758483529" lon="11.949490802426263"><ele>278.5</ele><time>2026-03-23T15:21:53.001Z</time></trkpt><trkpt lat="43.220788056770374" lon="11.949581165688892"><ele>278.75</ele><time>2026-03-23T15:21:54.001Z</time></trkpt><trkpt lat="43.22090815117467" lon="11.949665275867192"><ele>279.0</ele><time>2026-03-23T15:21:55.001Z</time></trkpt><trkpt lat="43.22102043828376" lon="11.949740403959357"><ele>279.0</ele><time>2026-03-23T15:21:56.001Z</time></trkpt><trkpt lat="43.221111461890295" lon="11.949804852210319"><ele>279.0</ele><time>2026-03-23T15:21:57.001Z</time></trkpt><trkpt lat="43.22117721410653" lon="11.94985225632994"><ele>279.0</ele><time>2026-03-23T15:21:58.001Z</time></trkpt><trkpt lat="43.22125748783807" lon="11.94992807680744"><ele>279.0</ele><time>2026-03-23T15:22:00.001Z</time></trkpt><trkpt lat="43.22119649115429" lon="11.950077216273144"><ele>279.0</ele><time>2026-03-23T15:22:04.001Z</time></trkpt><trkpt lat="43.22113042378305" lon="11.950145296470282"><ele>278.75</ele><time>2026-03-23T15:22:05.001Z</time></trkpt><trkpt lat="43.22105216144723" lon="11.950217775707738"><ele>278.5</ele><time>2026-03-23T15:22:06.001Z</time></trkpt><trkpt lat="43.22094889244996" lon="11.950310546917468"><ele>278.25</ele><time>2026-03-23T15:22:07.001Z</time></trkpt><trkpt lat="43.220835333816055" lon="11.9504106139212"><ele>278.0</ele><time>2026-03-23T15:22:08.001Z</time></trkpt><trkpt lat="43.220715537332474" lon="11.950513973277326"><ele>277.25</ele><time>2026-03-23T15:22:09.001Z</time></trkpt><trkpt lat="43.220598183730566" lon="11.950608996926388"><ele>276.5</ele><time>2026-03-23T15:22:10.001Z</time></trkpt><trkpt lat="43.220482259703545" lon="11.95069626542046"><ele>275.75</ele><time>2026-03-23T15:22:11.001Z</time></trkpt><trkpt lat="43.220344921793135" lon="11.950776917212291"><ele>275.0</ele><time>2026-03-23T15:22:12.001Z</time></trkpt><trkpt lat="43.220209874572454" lon="11.95083666930468"><ele>274.75</ele><time>2026-03-23T15:22:13.001Z</time></trkpt><trkpt lat="43.22008147578909" lon="11.950886349586586"><ele>274.5</ele><time>2026-03-23T15:22:14.001Z</time></trkpt><trkpt lat="43.21995593173893" lon="11.95094094587138"><ele>274.25</ele><time>2026-03-23T15:22:15.001Z</time></trkpt><trkpt lat="43.21982186669276" lon="11.95101828113413"><ele>274.0</ele><time>2026-03-23T15:22:16.001Z</time></trkpt><trkpt lat="43.21967207631435" lon="11.951142914383404"><ele>273.0</ele><time>2026-03-23T15:22:17.001Z</time></trkpt><trkpt lat="43.219515061638056" lon="11.951277436058172"><ele>272.0</ele><time>2026-03-23T15:22:18.001Z</time></trkpt><trkpt lat="43.21936708610908" lon="11.951406579341489"><ele>271.0</ele><time>2026-03-23T15:22:19.001Z</time></trkpt><trkpt lat="43.21922198600336" lon="11.951560001796851"><ele>271.0</ele><time>2026-03-23T15:22:20.001Z</time></trkpt><trkpt lat="43.219060771987856" lon="11.951671388059081"><ele>271.0</ele><time>2026-03-23T15:22:21.001Z</time></trkpt><trkpt lat="43.21891845563408" lon="11.95178992019973"><ele>271.0</ele><time>2026-03-23T15:22:22.001Z</time></trkpt><trkpt lat="43.218772441251964" lon="11.951910563102912"><ele>270.3333333333333</ele><time>2026-03-23T15:22:23.001Z</time></trkpt><trkpt lat="43.21862361945612" lon="11.95203475089617"><ele>269.6666666666667</ele><time>2026-03-23T15:22:24.001Z</time></trkpt><trkpt lat="43.21847509338814" lon="11.952182458111073"><ele>269.0</ele><time>2026-03-23T15:22:25.001Z</time></trkpt><trkpt lat="43.21830471052107" lon="11.952296417376436"><ele>270.0</ele><time>2026-03-23T15:22:26.001Z</time></trkpt><trkpt lat="43.218116405737625" lon="11.952369252950199"><ele>271.0</ele><time>2026-03-23T15:22:27.001Z</time></trkpt><trkpt lat="43.21793389081818" lon="11.952452868169482"><ele>272.0</ele><time>2026-03-23T15:22:28.001Z</time></trkpt><trkpt lat="43.21775749767567" lon="11.952537894134357"><ele>271.33333333333337</ele><time>2026-03-23T15:22:29.001Z</time></trkpt><trkpt lat="43.21758898715323" lon="11.952615995999484"><ele>270.6666666666667</ele><time>2026-03-23T15:22:30.001Z</time></trkpt><trkpt lat="43.2174161238297" lon="11.952697434208638"><ele>270.0</ele><time>2026-03-23T15:22:31.001Z</time></trkpt><trkpt lat="43.21725230829006" lon="11.95279255882017"><ele>271.3333333333333</ele><time>2026-03-23T15:22:32.001Z</time></trkpt><trkpt lat="43.2170673858894" lon="11.952816362760299"><ele>272.66666666666663</ele><time>2026-03-23T15:22:33.001Z</time></trkpt><trkpt lat="43.21689575704362" lon="11.95284802256264"><ele>274.0</ele><time>2026-03-23T15:22:34.001Z</time></trkpt><trkpt lat="43.21669902547267" lon="11.952880702618288"><ele>274.0</ele><time>2026-03-23T15:22:35.001Z</time></trkpt><trkpt lat="43.21651131382155" lon="11.952918954508037"><ele>274.0</ele><time>2026-03-23T15:22:36.001Z</time></trkpt><trkpt lat="43.21632549944949" lon="11.952984036267377"><ele>274.0</ele><time>2026-03-23T15:22:37.001Z</time></trkpt><trkpt lat="43.21613563332133" lon="11.953004195560492"><ele>275.0</ele><time>2026-03-23T15:22:38.001Z</time></trkpt><trkpt lat="43.215951797814284" lon="11.953043006584084"><ele>276.0</ele><time>2026-03-23T15:22:39.001Z</time></trkpt><trkpt lat="43.21576283280216" lon="11.953081439283295"><ele>277.0</ele><time>2026-03-23T15:22:40.001Z</time></trkpt><trkpt lat="43.215576716545094" lon="11.953112980936494"><ele>277.3333333333333</ele><time>2026-03-23T15:22:41.001Z</time></trkpt><trkpt lat="43.21540482565784" lon="11.953138567178893"><ele>277.6666666666667</ele><time>2026-03-23T15:22:42.001Z</time></trkpt><trkpt lat="43.2152543650366" lon="11.953173779824322"><ele>278.0</ele><time>2026-03-23T15:22:43.001Z</time></trkpt><trkpt lat="43.2151098496647" lon="11.95318161289259"><ele>278.0</ele><time>2026-03-23T15:22:44.001Z</time></trkpt><trkpt lat="43.21497960765963" lon="11.953260735380736"><ele>278.0</ele><time>2026-03-23T15:22:45.001Z</time></trkpt><trkpt lat="43.21485717024912" lon="11.953332631641091"><ele>278.0</ele><time>2026-03-23T15:22:46.001Z</time></trkpt><trkpt lat="43.21472637617038" lon="11.953440712423912"><ele>278.0</ele><time>2026-03-23T15:22:47.001Z</time></trkpt><trkpt lat="43.21459897511035" lon="11.953582638764566"><ele>278.0</ele><time>2026-03-23T15:22:48.001Z</time></trkpt><trkpt lat="43.21445923195109" lon="11.953725757447696"><ele>278.0</ele><time>2026-03-23T15:22:49.001Z</time></trkpt><trkpt lat="43.2143151417747" lon="11.953865951444913"><ele>278.0</ele><time>2026-03-23T15:22:50.001Z</time></trkpt><trkpt lat="43.21416964377033" lon="11.95401367699872"><ele>278.0</ele><time>2026-03-23T15:22:51.001Z</time></trkpt><trkpt lat="43.214034163466785" lon="11.954142548241652"><ele>278.0</ele><time>2026-03-23T15:22:52.001Z</time></trkpt><trkpt lat="43.21390546476029" lon="11.954269432465416"><ele>278.0</ele><time>2026-03-23T15:22:53.001Z</time></trkpt><trkpt lat="43.21376165355664" lon="11.954381800292419"><ele>278.5</ele><time>2026-03-23T15:22:54.001Z</time></trkpt><trkpt lat="43.213626836983174" lon="11.954528343458323"><ele>279.0</ele><time>2026-03-23T15:22:55.001Z</time></trkpt><trkpt lat="43.213497821104056" lon="11.95465108011358"><ele>279.5</ele><time>2026-03-23T15:22:56.001Z</time></trkpt><trkpt lat="43.213402707826006" lon="11.954738462246663"><ele>280.0</ele><time>2026-03-23T15:22:57.001Z</time></trkpt><trkpt lat="43.2133484687814" lon="11.954785347170516"><ele>280.0</ele><time>2026-03-23T15:22:58.001Z</time></trkpt><trkpt lat="43.21327407347647" lon="11.954903185994972"><ele>280.0</ele><time>2026-03-23T15:23:01Z</time></trkpt><trkpt lat="43.21321552677763" lon="11.954973888545652"><ele>280.0</ele><time>2026-03-23T15:23:02Z</time></trkpt><trkpt lat="43.21315748953797" lon="11.95504596804338"><ele>280.0</ele><time>2026-03-23T15:23:03Z</time></trkpt><trkpt lat="43.21308647492627" lon="11.95511670139349"><ele>280.0</ele><time>2026-03-23T15:23:04Z</time></trkpt><trkpt lat="43.2130052929439" lon="11.955218356847851"><ele>279.75</ele><time>2026-03-23T15:23:05Z</time></trkpt><trkpt lat="43.21291413062663" lon="11.955331941559734"><ele>279.5</ele><time>2026-03-23T15:23:06Z</time></trkpt><trkpt lat="43.21283206959664" lon="11.95543648753102"><ele>279.25</ele><time>2026-03-23T15:23:07Z</time></trkpt><trkpt lat="43.2127457480531" lon="11.955550720165629"><ele>279.0</ele><time>2026-03-23T15:23:08Z</time></trkpt><trkpt lat="43.21263691309138" lon="11.95568756157991"><ele>279.0</ele><time>2026-03-23T15:23:09Z</time></trkpt><trkpt lat="43.21251377749368" lon="11.95583515004754"><ele>279.0</ele><time>2026-03-23T15:23:10Z</time></trkpt><trkpt lat="43.21239135299771" lon="11.95598817789555"><ele>279.0</ele><time>2026-03-23T15:23:11Z</time></trkpt><trkpt lat="43.212263816133735" lon="11.956155368278713"><ele>276.6666666666667</ele><time>2026-03-23T15:23:12Z</time></trkpt><trkpt lat="43.212132135533125" lon="11.956324627592398"><ele>274.33333333333337</ele><time>2026-03-23T15:23:13Z</time></trkpt><trkpt lat="43.21200231064277" lon="11.956491079591919"><ele>272.0</ele><time>2026-03-23T15:23:14Z</time></trkpt><trkpt lat="43.21187570954267" lon="11.956661597176284"><ele>271.5</ele><time>2026-03-23T15:23:15Z</time></trkpt><trkpt lat="43.21176778816083" lon="11.956793094973488"><ele>271.0</ele><time>2026-03-23T15:23:16Z</time></trkpt><trkpt lat="43.21165713691874" lon="11.956923502158203"><ele>270.5</ele><time>2026-03-23T15:23:17Z</time></trkpt><trkpt lat="43.21157106907237" lon="11.957028914055057"><ele>270.0</ele><time>2026-03-23T15:23:18Z</time></trkpt><trkpt lat="43.211505673670544" lon="11.957109023021312"><ele>270.0</ele><time>2026-03-23T15:23:19Z</time></trkpt><trkpt lat="43.21144542274386" lon="11.957190961533147"><ele>270.0</ele><time>2026-03-23T15:23:21Z</time></trkpt><trkpt lat="43.211493604858305" lon="11.957330117780517"><ele>270.0</ele><time>2026-03-23T15:23:26Z</time></trkpt><trkpt lat="43.211556737911046" lon="11.957368350668132"><ele>270.0</ele><time>2026-03-23T15:23:27Z</time></trkpt><trkpt lat="43.21162984957917" lon="11.957422164349378"><ele>270.0</ele><time>2026-03-23T15:23:28Z</time></trkpt><trkpt lat="43.21169897098446" lon="11.957504457234956"><ele>270.0</ele><time>2026-03-23T15:23:29Z</time></trkpt><trkpt lat="43.21178568164022" lon="11.957576793416523"><ele>269.4</ele><time>2026-03-23T15:23:30Z</time></trkpt><trkpt lat="43.21186312403378" lon="11.957625199339383"><ele>268.8</ele><time>2026-03-23T15:23:31Z</time></trkpt><trkpt lat="43.211954617260304" lon="11.957695195593196"><ele>268.2</ele><time>2026-03-23T15:23:32Z</time></trkpt><trkpt lat="43.21205191179744" lon="11.95776837250046"><ele>267.6</ele><time>2026-03-23T15:23:33Z</time></trkpt><trkpt lat="43.21215645948508" lon="11.957853434090255"><ele>267.0</ele><time>2026-03-23T15:23:34Z</time></trkpt><trkpt lat="43.21225915799569" lon="11.957929956041191"><ele>267.6666666666667</ele><time>2026-03-23T15:23:35Z</time></trkpt><trkpt lat="43.21234314420428" lon="11.957984397861198"><ele>268.3333333333333</ele><time>2026-03-23T15:23:36Z</time></trkpt><trkpt lat="43.212420044194126" lon="11.958034477487933"><ele>269.0</ele><time>2026-03-23T15:23:37Z</time></trkpt><trkpt lat="43.21248740530439" lon="11.958068987562347"><ele>269.66666666666663</ele><time>2026-03-23T15:23:38Z</time></trkpt><trkpt lat="43.21255385802238" lon="11.958101047247082"><ele>270.3333333333333</ele><time>2026-03-23T15:23:39Z</time></trkpt><trkpt lat="43.21266503374211" lon="11.958137041729042"><ele>271.0</ele><time>2026-03-23T15:23:41Z</time></trkpt><trkpt lat="43.212728881187424" lon="11.958135965217553"><ele>271.0</ele><time>2026-03-23T15:23:43Z</time></trkpt><trkpt lat="43.21275779883677" lon="11.95833821321336"><ele>271.0</ele><time>2026-03-23T15:23:44Z</time></trkpt><trkpt lat="43.21276663154811" lon="11.95848099635883"><ele>271.0</ele><time>2026-03-23T15:23:45Z</time></trkpt><trkpt lat="43.2127989252636" lon="11.95861890526541"><ele>271.0</ele><time>2026-03-23T15:23:46Z</time></trkpt><trkpt lat="43.21285097784965" lon="11.958738710967328"><ele>270.6</ele><time>2026-03-23T15:23:47Z</time></trkpt><trkpt lat="43.21289268177422" lon="11.958888094393053"><ele>270.20000000000005</ele><time>2026-03-23T15:23:48Z</time></trkpt><trkpt lat="43.21293060714589" lon="11.959028390688081"><ele>269.79999999999995</ele><time>2026-03-23T15:23:49Z</time></trkpt><trkpt lat="43.212954853801136" lon="11.95918269275473"><ele>269.4</ele><time>2026-03-23T15:23:50Z</time></trkpt><trkpt lat="43.21299045074577" lon="11.95932137838514"><ele>269.0</ele><time>2026-03-23T15:23:51Z</time></trkpt><trkpt lat="43.21304754725021" lon="11.959471731685236"><ele>268.59999999999997</ele><time>2026-03-23T15:23:52Z</time></trkpt><trkpt lat="43.21308844652714" lon="11.959615497154738"><ele>268.2</ele><time>2026-03-23T15:23:53Z</time></trkpt><trkpt lat="43.21312799740683" lon="11.959740829761898"><ele>267.79999999999995</ele><time>2026-03-23T15:23:54Z</time></trkpt><trkpt lat="43.213166505188134" lon="11.959866938542312"><ele>267.4</ele><time>2026-03-23T15:23:55Z</time></trkpt><trkpt lat="43.21321136565586" lon="11.96000632009884"><ele>267.0</ele><time>2026-03-23T15:23:56Z</time></trkpt><trkpt lat="43.213257181234745" lon="11.960115670696828"><ele>267.8</ele><time>2026-03-23T15:23:57Z</time></trkpt><trkpt lat="43.21330892407776" lon="11.960210531277369"><ele>268.6</ele><time>2026-03-23T15:23:58Z</time></trkpt><trkpt lat="43.213385855878734" lon="11.96032127950153"><ele>269.40000000000003</ele><time>2026-03-23T15:23:59Z</time></trkpt><trkpt lat="43.21348374719248" lon="11.960420563018188"><ele>270.2</ele><time>2026-03-23T15:24:00Z</time></trkpt><trkpt lat="43.21356136601045" lon="11.960519356721774"><ele>271.0</ele><time>2026-03-23T15:24:01Z</time></trkpt><trkpt lat="43.21363191344799" lon="11.960607921575738"><ele>271.0</ele><time>2026-03-23T15:24:02Z</time></trkpt><trkpt lat="43.21371396890421" lon="11.960710656367164"><ele>271.0</ele><time>2026-03-23T15:24:03Z</time></trkpt><trkpt lat="43.21379310790452" lon="11.960816774724194"><ele>271.0</ele><time>2026-03-23T15:24:04Z</time></trkpt><trkpt lat="43.213862758225204" lon="11.960943999772557"><ele>271.0</ele><time>2026-03-23T15:24:05Z</time></trkpt><trkpt lat="43.21394158494989" lon="11.961054756468544"><ele>271.5</ele><time>2026-03-23T15:24:06Z</time></trkpt><trkpt lat="43.214013826520485" lon="11.961192323580361"><ele>272.0</ele><time>2026-03-23T15:24:07Z</time></trkpt><trkpt lat="43.21407392279833" lon="11.961326080760186"><ele>272.5</ele><time>2026-03-23T15:24:08Z</time></trkpt><trkpt lat="43.214143172726295" lon="11.961449788995948"><ele>273.0</ele><time>2026-03-23T15:24:09Z</time></trkpt><trkpt lat="43.214229125477935" lon="11.961571222497398"><ele>273.0</ele><time>2026-03-23T15:24:10Z</time></trkpt><trkpt lat="43.21430765355125" lon="11.961693099943876"><ele>273.0</ele><time>2026-03-23T15:24:11Z</time></trkpt><trkpt lat="43.21438464518412" lon="11.9618238400299"><ele>273.0</ele><time>2026-03-23T15:24:12Z</time></trkpt><trkpt lat="43.214440780261775" lon="11.961956723371648"><ele>273.0</ele><time>2026-03-23T15:24:13Z</time></trkpt><trkpt lat="43.2145078095824" lon="11.962096887721888"><ele>272.0</ele><time>2026-03-23T15:24:14Z</time></trkpt><trkpt lat="43.214566831533425" lon="11.962230236410818"><ele>271.0</ele><time>2026-03-23T15:24:15Z</time></trkpt><trkpt lat="43.214622538142464" lon="11.96236009147816"><ele>270.0</ele><time>2026-03-23T15:24:16Z</time></trkpt><trkpt lat="43.214668926451736" lon="11.962477175229003"><ele>269.0</ele><time>2026-03-23T15:24:17Z</time></trkpt><trkpt lat="43.21471509514521" lon="11.962572510981614"><ele>268.0</ele><time>2026-03-23T15:24:18Z</time></trkpt><trkpt lat="43.2147650024659" lon="11.962712416498372"><ele>268.5</ele><time>2026-03-23T15:24:19Z</time></trkpt><trkpt lat="43.214818805779856" lon="11.962843917635569"><ele>269.0</ele><time>2026-03-23T15:24:20Z</time></trkpt><trkpt lat="43.214887779675756" lon="11.962969633144542"><ele>269.5</ele><time>2026-03-23T15:24:21Z</time></trkpt><trkpt lat="43.214967434398545" lon="11.963092189759827"><ele>270.0</ele><time>2026-03-23T15:24:22Z</time></trkpt><trkpt lat="43.215041329687665" lon="11.96321827808465"><ele>270.0</ele><time>2026-03-23T15:24:23Z</time></trkpt><trkpt lat="43.215109976212986" lon="11.963335597560077"><ele>270.0</ele><time>2026-03-23T15:24:24Z</time></trkpt><trkpt lat="43.21518065152687" lon="11.96345339684153"><ele>270.0</ele><time>2026-03-23T15:24:25Z</time></trkpt><trkpt lat="43.215249365478726" lon="11.963559336852757"><ele>270.0</ele><time>2026-03-23T15:24:26Z</time></trkpt><trkpt lat="43.21531150036834" lon="11.963653359080828"><ele>270.0</ele><time>2026-03-23T15:24:27Z</time></trkpt><trkpt lat="43.215366760422896" lon="11.963733467960177"><ele>269.5</ele><time>2026-03-23T15:24:28Z</time></trkpt><trkpt lat="43.21542154049633" lon="11.963803886996057"><ele>269.0</ele><time>2026-03-23T15:24:29Z</time></trkpt><trkpt lat="43.21549706772408" lon="11.96387792903927"><ele>268.5</ele><time>2026-03-23T15:24:30Z</time></trkpt><trkpt lat="43.21557358467318" lon="11.96396097724793"><ele>268.0</ele><time>2026-03-23T15:24:31Z</time></trkpt><trkpt lat="43.215649099866816" lon="11.964037593280711"><ele>267.5</ele><time>2026-03-23T15:24:32Z</time></trkpt><trkpt lat="43.21571736782494" lon="11.96410825293498"><ele>267.0</ele><time>2026-03-23T15:24:33Z</time></trkpt><trkpt lat="43.21578029567837" lon="11.964178366260368"><ele>266.0</ele><time>2026-03-23T15:24:34Z</time></trkpt><trkpt lat="43.21584542339764" lon="11.964251107209087"><ele>265.0</ele><time>2026-03-23T15:24:35Z</time></trkpt><trkpt lat="43.21590787684495" lon="11.96431391049729"><ele>264.0</ele><time>2026-03-23T15:24:36Z</time></trkpt><trkpt lat="43.21597789669752" lon="11.96439815328179"><ele>263.0</ele><time>2026-03-23T15:24:37Z</time></trkpt><trkpt lat="43.21606505367503" lon="11.96449229852947"><ele>262.0</ele><time>2026-03-23T15:24:38Z</time></trkpt><trkpt lat="43.21614121420084" lon="11.964590606274452"><ele>262.0</ele><time>2026-03-23T15:24:39Z</time></trkpt><trkpt lat="43.21621725366393" lon="11.964681291641751"><ele>262.0</ele><time>2026-03-23T15:24:40Z</time></trkpt><trkpt lat="43.21629658472718" lon="11.964775089450123"><ele>262.0</ele><time>2026-03-23T15:24:41Z</time></trkpt><trkpt lat="43.21637529981759" lon="11.964872374816853"><ele>262.0</ele><time>2026-03-23T15:24:42Z</time></trkpt><trkpt lat="43.2164448882489" lon="11.96495112802765"><ele>262.0</ele><time>2026-03-23T15:24:43Z</time></trkpt><trkpt lat="43.21650484070662" lon="11.96501096318178"><ele>261.6</ele><time>2026-03-23T15:24:44Z</time></trkpt><trkpt lat="43.21657123687817" lon="11.965072421658208"><ele>261.2</ele><time>2026-03-23T15:24:45Z</time></trkpt><trkpt lat="43.216655973031074" lon="11.965127047459603"><ele>260.8</ele><time>2026-03-23T15:24:46Z</time></trkpt><trkpt lat="43.21675056430444" lon="11.965178269089895"><ele>260.4</ele><time>2026-03-23T15:24:47Z</time></trkpt><trkpt lat="43.21683698226358" lon="11.965209126801293"><ele>260.0</ele><time>2026-03-23T15:24:48Z</time></trkpt><trkpt lat="43.21694371244066" lon="11.965243320536239"><ele>260.0</ele><time>2026-03-23T15:24:49Z</time></trkpt><trkpt lat="43.21701447902607" lon="11.96527001857488"><ele>260.0</ele><time>2026-03-23T15:24:50Z</time></trkpt><trkpt lat="43.21707542200431" lon="11.96529310238915"><ele>260.0</ele><time>2026-03-23T15:24:51Z</time></trkpt><trkpt lat="43.21713417558296" lon="11.965337266343917"><ele>260.0</ele><time>2026-03-23T15:24:52Z</time></trkpt><trkpt lat="43.21722744009027" lon="11.965427465943348"><ele>260.0</ele><time>2026-03-23T15:24:54Z</time></trkpt><trkpt lat="43.21729305574267" lon="11.965458375050213"><ele>260.0</ele><time>2026-03-23T15:24:56Z</time></trkpt><trkpt lat="43.217369532647076" lon="11.965407173698248"><ele>260.2</ele><time>2026-03-23T15:24:59Z</time></trkpt><trkpt lat="43.21745667518306" lon="11.965355084888655"><ele>260.4</ele><time>2026-03-23T15:25:01Z</time></trkpt><trkpt lat="43.21756625080836" lon="11.965348427109822"><ele>260.6</ele><time>2026-03-23T15:25:03Z</time></trkpt><trkpt lat="43.21763839505162" lon="11.965343694939968"><ele>260.8</ele><time>2026-03-23T15:25:04.001Z</time></trkpt><trkpt lat="43.217737897455386" lon="11.96533653690927"><ele>261.0</ele><time>2026-03-23T15:25:05.001Z</time></trkpt><trkpt lat="43.21782988979603" lon="11.965317927132995"><ele>261.0</ele><time>2026-03-23T15:25:06Z</time></trkpt><trkpt lat="43.21789946926615" lon="11.965333601706991"><ele>261.0</ele><time>2026-03-23T15:25:07Z</time></trkpt><trkpt lat="43.21800004026709" lon="11.965323424880399"><ele>261.0</ele><time>2026-03-23T15:25:09Z</time></trkpt><trkpt lat="43.21806947657749" lon="11.965306682919417"><ele>261.0</ele><time>2026-03-23T15:25:13Z</time></trkpt><trkpt lat="43.218112418833904" lon="11.965508831112444"><ele>261.0</ele><time>2026-03-23T15:25:14Z</time></trkpt><trkpt lat="43.21815269407298" lon="11.96565766389834"><ele>261.2</ele><time>2026-03-23T15:25:16Z</time></trkpt><trkpt lat="43.2181985825933" lon="11.965722046163924"><ele>261.40000000000003</ele><time>2026-03-23T15:25:18Z</time></trkpt><trkpt lat="43.21827669483747" lon="11.96572879826286"><ele>261.6</ele><time>2026-03-23T15:25:20Z</time></trkpt><trkpt lat="43.21839159392012" lon="11.965584297347245"><ele>261.8</ele><time>2026-03-23T15:25:23Z</time></trkpt><trkpt lat="43.218487679798834" lon="11.965505573709155"><ele>262.0</ele><time>2026-03-23T15:25:25Z</time></trkpt><trkpt lat="43.21860315874913" lon="11.965441050326131"><ele>262.0</ele><time>2026-03-23T15:25:27Z</time></trkpt><trkpt lat="43.21866191249902" lon="11.965401392539952"><ele>262.0</ele><time>2026-03-23T15:25:28Z</time></trkpt><trkpt lat="43.2187662648728" lon="11.965336717346137"><ele>262.0</ele><time>2026-03-23T15:25:30Z</time></trkpt><trkpt lat="43.21884500294689" lon="11.96527293757732"><ele>262.0</ele><time>2026-03-23T15:25:32Z</time></trkpt><trkpt lat="43.21889960864698" lon="11.96521689425717"><ele>262.0</ele><time>2026-03-23T15:25:34Z</time></trkpt><trkpt lat="43.21889377341322" lon="11.965117004911189"><ele>262.0</ele><time>2026-03-23T15:27:37Z</time></trkpt><trkpt lat="43.21890337337894" lon="11.965212182607452"><ele>262.0</ele><time>2026-03-23T15:27:43Z</time></trkpt><trkpt lat="43.2188312682472" lon="11.965286634627995"><ele>262.0</ele><time>2026-03-23T15:27:44Z</time></trkpt><trkpt lat="43.2187543975908" lon="11.965332619538103"><ele>262.0</ele><time>2026-03-23T15:27:45Z</time></trkpt><trkpt lat="43.21868203105142" lon="11.965377948709152"><ele>262.0</ele><time>2026-03-23T15:27:46Z</time></trkpt><trkpt lat="43.21859736826874" lon="11.965436013582416"><ele>262.0</ele><time>2026-03-23T15:27:47Z</time></trkpt><trkpt lat="43.21852190915061" lon="11.965483979241068"><ele>262.0</ele><time>2026-03-23T15:27:48Z</time></trkpt><trkpt lat="43.21844640337453" lon="11.965536171313962"><ele>262.0</ele><time>2026-03-23T15:27:49Z</time></trkpt><trkpt lat="43.21837657864036" lon="11.96558635092351"><ele>262.0</ele><time>2026-03-23T15:27:50Z</time></trkpt><trkpt lat="43.21831377793238" lon="11.965635483017918"><ele>262.0</ele><time>2026-03-23T15:27:51Z</time></trkpt><trkpt lat="43.21822732703139" lon="11.965693264836808"><ele>262.0</ele><time>2026-03-23T15:27:53Z</time></trkpt><trkpt lat="43.218159611566605" lon="11.965670257323168"><ele>262.0</ele><time>2026-03-23T15:27:55Z</time></trkpt><trkpt lat="43.21809091381126" lon="11.965570801776638"><ele>262.0</ele><time>2026-03-23T15:27:57Z</time></trkpt><trkpt lat="43.21806439463868" lon="11.965476812169497"><ele>261.8333333333333</ele><time>2026-03-23T15:27:58Z</time></trkpt><trkpt lat="43.21801816286999" lon="11.965355606635855"><ele>261.66666666666663</ele><time>2026-03-23T15:28:00Z</time></trkpt><trkpt lat="43.21792548440663" lon="11.965311730645405"><ele>261.5</ele><time>2026-03-23T15:28:02Z</time></trkpt><trkpt lat="43.21785901868915" lon="11.965304095224175"><ele>261.3333333333333</ele><time>2026-03-23T15:28:03Z</time></trkpt><trkpt lat="43.21778729419881" lon="11.965310337964613"><ele>261.1666666666667</ele><time>2026-03-23T15:28:04Z</time></trkpt><trkpt lat="43.217686445412525" lon="11.965294641143899"><ele>261.0</ele><time>2026-03-23T15:28:05Z</time></trkpt><trkpt lat="43.2176029669102" lon="11.965300646439525"><ele>261.0</ele><time>2026-03-23T15:28:06Z</time></trkpt><trkpt lat="43.21751254192096" lon="11.965312184948363"><ele>261.0</ele><time>2026-03-23T15:28:07Z</time></trkpt><trkpt lat="43.217439135291016" lon="11.965329975531798"><ele>261.0</ele><time>2026-03-23T15:28:08Z</time></trkpt><trkpt lat="43.21737106673674" lon="11.965367153598226"><ele>261.0</ele><time>2026-03-23T15:28:09Z</time></trkpt><trkpt lat="43.21732258666513" lon="11.965423657361752"><ele>261.0</ele><time>2026-03-23T15:28:10Z</time></trkpt><trkpt lat="43.21725401007132" lon="11.965435330614978"><ele>261.0</ele><time>2026-03-23T15:28:26Z</time></trkpt><trkpt lat="43.21719110785314" lon="11.96533799887039"><ele>260.8</ele><time>2026-03-23T15:28:28Z</time></trkpt><trkpt lat="43.21707713777328" lon="11.965264829537741"><ele>260.6</ele><time>2026-03-23T15:28:30Z</time></trkpt><trkpt lat="43.21699622094707" lon="11.96524737860677"><ele>260.4</ele><time>2026-03-23T15:28:32Z</time></trkpt><trkpt lat="43.216896637860785" lon="11.965215517152567"><ele>260.2</ele><time>2026-03-23T15:28:47Z</time></trkpt><trkpt lat="43.21681786843472" lon="11.965163177199967"><ele>260.0</ele><time>2026-03-23T15:28:48Z</time></trkpt><trkpt lat="43.216726522878666" lon="11.965145452197275"><ele>260.0</ele><time>2026-03-23T15:28:49Z</time></trkpt><trkpt lat="43.21666996167017" lon="11.965091935718636"><ele>260.0</ele><time>2026-03-23T15:28:50Z</time></trkpt><trkpt lat="43.21658728251275" lon="11.965042272056357"><ele>260.0</ele><time>2026-03-23T15:28:51Z</time></trkpt><trkpt lat="43.21652103166515" lon="11.964988238365938"><ele>260.0</ele><time>2026-03-23T15:28:52Z</time></trkpt><trkpt lat="43.21645512310569" lon="11.964922602579321"><ele>260.0</ele><time>2026-03-23T15:28:53Z</time></trkpt><trkpt lat="43.21637351056836" lon="11.964831322334547"><ele>260.0</ele><time>2026-03-23T15:28:54Z</time></trkpt><trkpt lat="43.21628801545587" lon="11.964730149638687"><ele>260.5</ele><time>2026-03-23T15:28:55Z</time></trkpt><trkpt lat="43.21618299332727" lon="11.96462253540093"><ele>261.0</ele><time>2026-03-23T15:28:56Z</time></trkpt><trkpt lat="43.21609348661477" lon="11.96449468232517"><ele>261.5</ele><time>2026-03-23T15:28:57Z</time></trkpt><trkpt lat="43.216006108263265" lon="11.96441310217812"><ele>262.0</ele><time>2026-03-23T15:28:58Z</time></trkpt><trkpt lat="43.215932245182614" lon="11.964308151558525"><ele>262.0</ele><time>2026-03-23T15:28:59Z</time></trkpt><trkpt lat="43.21585193824916" lon="11.964247961294303"><ele>262.0</ele><time>2026-03-23T15:29:00Z</time></trkpt><trkpt lat="43.215779226053556" lon="11.964165425446371"><ele>262.0</ele><time>2026-03-23T15:29:01Z</time></trkpt><trkpt lat="43.215701128930995" lon="11.96408226184974"><ele>262.0</ele><time>2026-03-23T15:29:02Z</time></trkpt><trkpt lat="43.2156379417281" lon="11.964007364973858"><ele>262.0</ele><time>2026-03-23T15:29:03Z</time></trkpt><trkpt lat="43.21556851322455" lon="11.963933231427266"><ele>262.0</ele><time>2026-03-23T15:29:04Z</time></trkpt><trkpt lat="43.21549043567547" lon="11.963856186728568"><ele>262.0</ele><time>2026-03-23T15:29:05Z</time></trkpt><trkpt lat="43.21543044444377" lon="11.963794709388097"><ele>262.0</ele><time>2026-03-23T15:29:06Z</time></trkpt><trkpt lat="43.21541208762331" lon="11.96370936181436"><ele>262.0</ele><time>2026-03-23T15:29:08Z</time></trkpt><trkpt lat="43.21543731372622" lon="11.963792062583009"><ele>262.0</ele><time>2026-03-23T15:29:20Z</time></trkpt><trkpt lat="43.215175695682326" lon="11.964267418150866"><ele>262.0</ele><time>2026-03-23T15:29:28Z</time></trkpt><trkpt lat="43.21509724796963" lon="11.964388766990991"><ele>262.0</ele><time>2026-03-23T15:29:30Z</time></trkpt><trkpt lat="43.21501079290506" lon="11.964497344852093"><ele>262.0</ele><time>2026-03-23T15:29:32Z</time></trkpt><trkpt lat="43.21495958347973" lon="11.964571620904021"><ele>262.0</ele><time>2026-03-23T15:29:33Z</time></trkpt><trkpt lat="43.21491539177367" lon="11.964638548230317"><ele>262.0</ele><time>2026-03-23T15:29:34Z</time></trkpt><trkpt lat="43.214831697885685" lon="11.964738708680917"><ele>262.16666666666663</ele><time>2026-03-23T15:29:36Z</time></trkpt><trkpt lat="43.21477134122352" lon="11.964827826807058"><ele>262.3333333333333</ele><time>2026-03-23T15:29:38Z</time></trkpt><trkpt lat="43.21468775160041" lon="11.964942797604628"><ele>262.5</ele><time>2026-03-23T15:29:40Z</time></trkpt><trkpt lat="43.21463943182938" lon="11.96500669352441"><ele>262.6666666666667</ele><time>2026-03-23T15:29:41Z</time></trkpt><trkpt lat="43.2145962121947" lon="11.965074072094515"><ele>262.83333333333337</ele><time>2026-03-23T15:29:42Z</time></trkpt><trkpt lat="43.2145478547102" lon="11.965138758976103"><ele>263.0</ele><time>2026-03-23T15:29:43Z</time></trkpt><trkpt lat="43.21445868096172" lon="11.965258320950062"><ele>262.6666666666667</ele><time>2026-03-23T15:29:45Z</time></trkpt><trkpt lat="43.21440366866458" lon="11.965330364339108"><ele>262.33333333333337</ele><time>2026-03-23T15:29:46Z</time></trkpt><trkpt lat="43.21434446072398" lon="11.965405768852971"><ele>262.0</ele><time>2026-03-23T15:29:47Z</time></trkpt><trkpt lat="43.2142955140785" lon="11.96547608724696"><ele>261.6666666666667</ele><time>2026-03-23T15:29:48Z</time></trkpt><trkpt lat="43.21424380384382" lon="11.965548902711307"><ele>261.3333333333333</ele><time>2026-03-23T15:29:49Z</time></trkpt><trkpt lat="43.214161548526214" lon="11.965665385325297"><ele>261.0</ele><time>2026-03-23T15:29:51Z</time></trkpt><trkpt lat="43.21410880748026" lon="11.965769541821585"><ele>261.1666666666667</ele><time>2026-03-23T15:29:53Z</time></trkpt><trkpt lat="43.21410632122431" lon="11.965894337346194"><ele>261.3333333333333</ele><time>2026-03-23T15:29:55Z</time></trkpt><trkpt lat="43.214119937025856" lon="11.966040747006323"><ele>261.5</ele><time>2026-03-23T15:29:57Z</time></trkpt><trkpt lat="43.21410768477319" lon="11.966133178154722"><ele>261.66666666666663</ele><time>2026-03-23T15:29:59Z</time></trkpt><trkpt lat="43.21402917412094" lon="11.96620168663325"><ele>261.8333333333333</ele><time>2026-03-23T15:30:02Z</time></trkpt><trkpt lat="43.21400957413183" lon="11.966295066375341"><ele>262.0</ele><time>2026-03-23T15:30:04Z</time></trkpt><trkpt lat="43.214053075713345" lon="11.9664286351415"><ele>262.0</ele><time>2026-03-23T15:30:06Z</time></trkpt><trkpt lat="43.214091854939134" lon="11.966516698264165"><ele>262.0</ele><time>2026-03-23T15:30:07Z</time></trkpt><trkpt lat="43.21411713922381" lon="11.966596009988448"><ele>262.0</ele><time>2026-03-23T15:30:08Z</time></trkpt><trkpt lat="43.214165864266334" lon="11.96673837390273"><ele>262.0</ele><time>2026-03-23T15:30:10Z</time></trkpt><trkpt lat="43.21417908022075" lon="11.966839720503113"><ele>262.0</ele><time>2026-03-23T15:30:12Z</time></trkpt><trkpt lat="43.21414985649239" lon="11.966947505274655"><ele>262.0</ele><time>2026-03-23T15:30:14Z</time></trkpt><trkpt lat="43.214076661333465" lon="11.967078270722585"><ele>262.4</ele><time>2026-03-23T15:30:16Z</time></trkpt><trkpt lat="43.21402605113553" lon="11.967157346445163"><ele>262.79999999999995</ele><time>2026-03-23T15:30:17Z</time></trkpt><trkpt lat="43.21397487671128" lon="11.96724411879148"><ele>263.2</ele><time>2026-03-23T15:30:18Z</time></trkpt><trkpt lat="43.21391948777605" lon="11.967339312499979"><ele>263.59999999999997</ele><time>2026-03-23T15:30:19Z</time></trkpt><trkpt lat="43.213832316634154" lon="11.967471234637188"><ele>264.0</ele><time>2026-03-23T15:30:21Z</time></trkpt><trkpt lat="43.213756750966546" lon="11.967598316825278"><ele>264.0</ele><time>2026-03-23T15:30:23Z</time></trkpt><trkpt lat="43.21371728812734" lon="11.967682968022066"><ele>264.0</ele><time>2026-03-23T15:30:24Z</time></trkpt><trkpt lat="43.21367632524822" lon="11.967772597214145"><ele>264.0</ele><time>2026-03-23T15:30:25Z</time></trkpt><trkpt lat="43.213634645114595" lon="11.967863088221714"><ele>264.0</ele><time>2026-03-23T15:30:26Z</time></trkpt><trkpt lat="43.21359395180852" lon="11.967940655936598"><ele>264.0</ele><time>2026-03-23T15:30:27Z</time></trkpt><trkpt lat="43.21355659588775" lon="11.968013407027707"><ele>264.0</ele><time>2026-03-23T15:30:28Z</time></trkpt><trkpt lat="43.21349830273082" lon="11.96811315786168"><ele>264.0</ele><time>2026-03-23T15:30:30Z</time></trkpt><trkpt lat="43.21344188117511" lon="11.968209376371567"><ele>264.0</ele><time>2026-03-23T15:30:32Z</time></trkpt><trkpt lat="43.213384319152595" lon="11.968310932089423"><ele>264.0</ele><time>2026-03-23T15:30:34Z</time></trkpt><trkpt lat="43.21334186305924" lon="11.968409810761298"><ele>264.0</ele><time>2026-03-23T15:30:37Z</time></trkpt><trkpt lat="43.21329566583987" lon="11.968474513637654"><ele>264.0</ele><time>2026-03-23T15:30:40Z</time></trkpt><trkpt lat="43.213269013979684" lon="11.968567288770771"><ele>264.0</ele><time>2026-03-23T15:30:43Z</time></trkpt><trkpt lat="43.2133557215563" lon="11.96864004858505"><ele>263.6666666666667</ele><time>2026-03-23T15:30:44Z</time></trkpt><trkpt lat="43.213341745384895" lon="11.96874940398369"><ele>263.3333333333333</ele><time>2026-03-23T15:30:46Z</time></trkpt><trkpt lat="43.213317514264936" lon="11.96888332845477"><ele>263.0</ele><time>2026-03-23T15:30:48Z</time></trkpt><trkpt lat="43.21329502626405" lon="11.968971926287189"><ele>262.66666666666663</ele><time>2026-03-23T15:30:49Z</time></trkpt><trkpt lat="43.21327108866379" lon="11.969061284510104"><ele>262.3333333333333</ele><time>2026-03-23T15:30:50Z</time></trkpt><trkpt lat="43.21327305683564" lon="11.969211849954565"><ele>262.0</ele><time>2026-03-23T15:30:52Z</time></trkpt><trkpt lat="43.21332333765726" lon="11.969327547199947"><ele>261.8</ele><time>2026-03-23T15:30:54Z</time></trkpt><trkpt lat="43.21341745881904" lon="11.969418014530142"><ele>261.6</ele><time>2026-03-23T15:30:56Z</time></trkpt><trkpt lat="43.21348204490744" lon="11.969455561492369"><ele>261.40000000000003</ele><time>2026-03-23T15:30:57Z</time></trkpt><trkpt lat="43.21357042027004" lon="11.969504499476095"><ele>261.2</ele><time>2026-03-23T15:30:58Z</time></trkpt><trkpt lat="43.21366875952305" lon="11.969575346195207"><ele>261.0</ele><time>2026-03-23T15:30:59Z</time></trkpt><trkpt lat="43.21376468853968" lon="11.969655306106768"><ele>261.0</ele><time>2026-03-23T15:31:00Z</time></trkpt><trkpt lat="43.21386082516873" lon="11.969728508363415"><ele>261.0</ele><time>2026-03-23T15:31:01Z</time></trkpt><trkpt lat="43.21395922759018" lon="11.969797242121142"><ele>261.0</ele><time>2026-03-23T15:31:02Z</time></trkpt><trkpt lat="43.21405888412911" lon="11.969873379566176"><ele>261.0</ele><time>2026-03-23T15:31:03Z</time></trkpt><trkpt lat="43.214157362624064" lon="11.969947800524993"><ele>261.0</ele><time>2026-03-23T15:31:04Z</time></trkpt><trkpt lat="43.21425713888532" lon="11.970025366980579"><ele>261.0</ele><time>2026-03-23T15:31:05Z</time></trkpt><trkpt lat="43.214362068131905" lon="11.970104656577675"><ele>261.0</ele><time>2026-03-23T15:31:06Z</time></trkpt><trkpt lat="43.214466459230486" lon="11.970181684631374"><ele>261.0</ele><time>2026-03-23T15:31:07Z</time></trkpt><trkpt lat="43.214566059225994" lon="11.97025406375791"><ele>261.0</ele><time>2026-03-23T15:31:08Z</time></trkpt><trkpt lat="43.21465550282602" lon="11.970325389954276"><ele>261.0</ele><time>2026-03-23T15:31:09Z</time></trkpt><trkpt lat="43.21473595814653" lon="11.97037912887498"><ele>261.0</ele><time>2026-03-23T15:31:10Z</time></trkpt><trkpt lat="43.21480215609691" lon="11.970425854799231"><ele>261.0</ele><time>2026-03-23T15:31:11Z</time></trkpt><trkpt lat="43.21485737257586" lon="11.970473020940425"><ele>261.0</ele><time>2026-03-23T15:31:12Z</time></trkpt><trkpt lat="43.214900652057736" lon="11.970578193938481"><ele>261.0</ele><time>2026-03-23T15:31:14Z</time></trkpt><trkpt lat="43.21486869685703" lon="11.970734954428227"><ele>261.0</ele><time>2026-03-23T15:31:16Z</time></trkpt><trkpt lat="43.21483703482142" lon="11.970828438921249"><ele>261.2</ele><time>2026-03-23T15:31:17Z</time></trkpt><trkpt lat="43.21477847980738" lon="11.970948132789523"><ele>261.40000000000003</ele><time>2026-03-23T15:31:18Z</time></trkpt><trkpt lat="43.214727434658606" lon="11.971090598416934"><ele>261.6</ele><time>2026-03-23T15:31:19Z</time></trkpt><trkpt lat="43.21467943573471" lon="11.971244651983872"><ele>261.8</ele><time>2026-03-23T15:31:20Z</time></trkpt><trkpt lat="43.214647054803734" lon="11.971367447730273"><ele>262.0</ele><time>2026-03-23T15:31:21Z</time></trkpt><trkpt lat="43.21460441185316" lon="11.971494002839547"><ele>262.0</ele><time>2026-03-23T15:31:22Z</time></trkpt><trkpt lat="43.21458193993572" lon="11.971580862588084"><ele>262.0</ele><time>2026-03-23T15:31:23Z</time></trkpt><trkpt lat="43.21456942053394" lon="11.971684281082936"><ele>262.0</ele><time>2026-03-23T15:31:24Z</time></trkpt><trkpt lat="43.214569977833065" lon="11.971785806681224"><ele>262.0</ele><time>2026-03-23T15:31:25Z</time></trkpt><trkpt lat="43.214584583420596" lon="11.971876171135856"><ele>262.0</ele><time>2026-03-23T15:31:26Z</time></trkpt><trkpt lat="43.214602734198955" lon="11.972019578114221"><ele>262.0</ele><time>2026-03-23T15:31:28Z</time></trkpt><trkpt lat="43.21464308919177" lon="11.972133716009862"><ele>261.6</ele><time>2026-03-23T15:31:30Z</time></trkpt><trkpt lat="43.21471290428065" lon="11.972285452815726"><ele>261.2</ele><time>2026-03-23T15:31:32Z</time></trkpt><trkpt lat="43.21474409085202" lon="11.972376074313328"><ele>260.8</ele><time>2026-03-23T15:31:33Z</time></trkpt><trkpt lat="43.214761594251605" lon="11.972489662652148"><ele>260.4</ele><time>2026-03-23T15:31:35Z</time></trkpt><trkpt lat="43.214713138202846" lon="11.972630774704387"><ele>260.0</ele><time>2026-03-23T15:31:37Z</time></trkpt><trkpt lat="43.21465997761428" lon="11.972691583270885"><ele>260.0</ele><time>2026-03-23T15:31:38Z</time></trkpt><trkpt lat="43.21461220648571" lon="11.972776402403584"><ele>260.0</ele><time>2026-03-23T15:31:39Z</time></trkpt><trkpt lat="43.21458434574503" lon="11.97285446936775"><ele>260.0</ele><time>2026-03-23T15:31:40Z</time></trkpt><trkpt lat="43.21455505258394" lon="11.972986525257026"><ele>260.0</ele><time>2026-03-23T15:31:42Z</time></trkpt><trkpt lat="43.2145839695444" lon="11.973115339508254"><ele>260.0</ele><time>2026-03-23T15:31:44Z</time></trkpt><trkpt lat="43.21466474269496" lon="11.973240499309474"><ele>260.0</ele><time>2026-03-23T15:31:46Z</time></trkpt><trkpt lat="43.21472521907517" lon="11.973327649664505"><ele>260.0</ele><time>2026-03-23T15:31:47Z</time></trkpt><trkpt lat="43.214814459075306" lon="11.97345420949788"><ele>260.0</ele><time>2026-03-23T15:31:48Z</time></trkpt><trkpt lat="43.21490643903688" lon="11.973580049332817"><ele>260.0</ele><time>2026-03-23T15:31:49Z</time></trkpt><trkpt lat="43.215000152083604" lon="11.973735868273213"><ele>259.75</ele><time>2026-03-23T15:31:50Z</time></trkpt><trkpt lat="43.21508873848312" lon="11.973852833349587"><ele>259.5</ele><time>2026-03-23T15:31:51Z</time></trkpt><trkpt lat="43.21517115098003" lon="11.973980336255964"><ele>259.25</ele><time>2026-03-23T15:31:52Z</time></trkpt><trkpt lat="43.21524518948294" lon="11.974100912116725"><ele>259.0</ele><time>2026-03-23T15:31:53Z</time></trkpt><trkpt lat="43.2153271555931" lon="11.974213731697999"><ele>259.4</ele><time>2026-03-23T15:31:54Z</time></trkpt><trkpt lat="43.21539583121077" lon="11.974319248631547"><ele>259.79999999999995</ele><time>2026-03-23T15:31:55Z</time></trkpt><trkpt lat="43.21546097003069" lon="11.974426174757207"><ele>260.20000000000005</ele><time>2026-03-23T15:31:56Z</time></trkpt><trkpt lat="43.21551967227172" lon="11.974514486634746"><ele>260.6</ele><time>2026-03-23T15:31:57Z</time></trkpt><trkpt lat="43.21558496547878" lon="11.974617763054184"><ele>261.0</ele><time>2026-03-23T15:31:59Z</time></trkpt><trkpt lat="43.21546626546505" lon="11.974746859660668"><ele>261.0</ele><time>2026-03-23T15:32:05Z</time></trkpt><trkpt lat="43.21539623140598" lon="11.974785470975153"><ele>261.0</ele><time>2026-03-23T15:32:06Z</time></trkpt><trkpt lat="43.215342764688884" lon="11.974878599965274"><ele>261.0</ele><time>2026-03-23T15:32:09Z</time></trkpt><trkpt lat="43.21528716697449" lon="11.9749484169383"><ele>261.0</ele><time>2026-03-23T15:32:12Z</time></trkpt><trkpt lat="43.21522336904412" lon="11.975044635458051"><ele>261.0</ele><time>2026-03-23T15:32:16Z</time></trkpt><trkpt lat="43.21516316260001" lon="11.975108940009784"><ele>261.0</ele><time>2026-03-23T15:32:18Z</time></trkpt><trkpt lat="43.21509837691435" lon="11.97516116102584"><ele>260.5</ele><time>2026-03-23T15:32:20Z</time></trkpt><trkpt lat="43.21503684135051" lon="11.975218407022307"><ele>260.0</ele><time>2026-03-23T15:32:23Z</time></trkpt><trkpt lat="43.21496829394805" lon="11.975315031138857"><ele>259.5</ele><time>2026-03-23T15:32:26Z</time></trkpt><trkpt lat="43.214919170795895" lon="11.975416612535335"><ele>259.0</ele><time>2026-03-23T15:32:28Z</time></trkpt><trkpt lat="43.21486197924281" lon="11.975516735703987"><ele>258.5</ele><time>2026-03-23T15:32:30Z</time></trkpt><trkpt lat="43.214811780422174" lon="11.975592716452379"><ele>258.0</ele><time>2026-03-23T15:32:32Z</time></trkpt><trkpt lat="43.214751897362305" lon="11.975675483148587"><ele>257.99999999999994</ele><time>2026-03-23T15:32:35Z</time></trkpt><trkpt lat="43.214673314737674" lon="11.975619701051059"><ele>258.0</ele><time>2026-03-23T15:32:39Z</time></trkpt><trkpt lat="43.214639078267254" lon="11.975533590985275"><ele>258.0</ele><time>2026-03-23T15:32:42Z</time></trkpt><trkpt lat="43.21469710231407" lon="11.975488548785194"><ele>258.0</ele><time>2026-03-23T15:32:46Z</time></trkpt><trkpt lat="43.21471861174423" lon="11.975596093005887"><ele>258.0</ele><time>2026-03-23T15:32:49Z</time></trkpt><trkpt lat="43.21473538261759" lon="11.975690068618443"><ele>257.99999999999994</ele><time>2026-03-23T15:32:53Z</time></trkpt><trkpt lat="43.21479154937895" lon="11.975641770344799"><ele>258.0</ele><time>2026-03-23T15:32:55Z</time></trkpt><trkpt lat="43.21484642321016" lon="11.975514199686545"><ele>258.0</ele><time>2026-03-23T15:32:57Z</time></trkpt><trkpt lat="43.21491783587172" lon="11.975395055698618"><ele>258.0</ele><time>2026-03-23T15:32:59Z</time></trkpt><trkpt lat="43.21497955614586" lon="11.975295634806828"><ele>258.0</ele><time>2026-03-23T15:33:01Z</time></trkpt><trkpt lat="43.21503109772936" lon="11.975214877997473"><ele>258.0</ele><time>2026-03-23T15:33:03Z</time></trkpt><trkpt lat="43.21510677367274" lon="11.97515199996562"><ele>258.0</ele><time>2026-03-23T15:33:06Z</time></trkpt><trkpt lat="43.215178561627106" lon="11.975080588579432"><ele>258.5</ele><time>2026-03-23T15:33:10Z</time></trkpt><trkpt lat="43.21523183664135" lon="11.975014146590675"><ele>259.0</ele><time>2026-03-23T15:33:13Z</time></trkpt><trkpt lat="43.21528285049848" lon="11.974943946440526"><ele>259.5</ele><time>2026-03-23T15:33:15Z</time></trkpt><trkpt lat="43.21533617345599" lon="11.97487146219081"><ele>260.0</ele><time>2026-03-23T15:33:17Z</time></trkpt><trkpt lat="43.21538990651917" lon="11.97480737845916"><ele>260.5</ele><time>2026-03-23T15:33:19Z</time></trkpt><trkpt lat="43.21547281994349" lon="11.974727553349855"><ele>261.0</ele><time>2026-03-23T15:33:21Z</time></trkpt><trkpt lat="43.21554161405817" lon="11.974655040423416"><ele>261.0</ele><time>2026-03-23T15:33:23Z</time></trkpt><trkpt lat="43.21561749722188" lon="11.974649943972143"><ele>261.0</ele><time>2026-03-23T15:33:27Z</time></trkpt><trkpt lat="43.215690747699426" lon="11.974750015784197"><ele>261.0</ele><time>2026-03-23T15:33:29Z</time></trkpt><trkpt lat="43.21573985695388" lon="11.974828935673806"><ele>261.0</ele><time>2026-03-23T15:33:30Z</time></trkpt><trkpt lat="43.215794538869446" lon="11.974911217230742"><ele>261.0</ele><time>2026-03-23T15:33:31Z</time></trkpt><trkpt lat="43.215860593058345" lon="11.975010168365339"><ele>261.0</ele><time>2026-03-23T15:33:32Z</time></trkpt><trkpt lat="43.2159310205346" lon="11.975124192849629"><ele>260.6</ele><time>2026-03-23T15:33:33Z</time></trkpt><trkpt lat="43.21600339037773" lon="11.975241363845116"><ele>260.20000000000005</ele><time>2026-03-23T15:33:34Z</time></trkpt><trkpt lat="43.216079189418664" lon="11.975356353488355"><ele>259.79999999999995</ele><time>2026-03-23T15:33:35Z</time></trkpt><trkpt lat="43.216137440363624" lon="11.975456106662195"><ele>259.4</ele><time>2026-03-23T15:33:36Z</time></trkpt><trkpt lat="43.21619122316236" lon="11.975548224633725"><ele>259.0</ele><time>2026-03-23T15:33:37Z</time></trkpt><trkpt lat="43.216234889703124" lon="11.975637617084336"><ele>259.0</ele><time>2026-03-23T15:33:38Z</time></trkpt><trkpt lat="43.216271183997144" lon="11.975737255541091"><ele>259.0</ele><time>2026-03-23T15:33:39Z</time></trkpt><trkpt lat="43.21628087814502" lon="11.9758507371504"><ele>259.0</ele><time>2026-03-23T15:33:40Z</time></trkpt><trkpt lat="43.21631056970652" lon="11.975940697007106"><ele>259.0</ele><time>2026-03-23T15:33:41Z</time></trkpt><trkpt lat="43.21632722656094" lon="11.976042092069791"><ele>259.0</ele><time>2026-03-23T15:33:42Z</time></trkpt><trkpt lat="43.21635583022624" lon="11.976149074599068"><ele>259.0</ele><time>2026-03-23T15:33:43Z</time></trkpt><trkpt lat="43.21638182887273" lon="11.976252447941508"><ele>259.0</ele><time>2026-03-23T15:33:44Z</time></trkpt><trkpt lat="43.21641286741812" lon="11.976369224361157"><ele>259.0</ele><time>2026-03-23T15:33:45Z</time></trkpt><trkpt lat="43.216446806920594" lon="11.976465151320781"><ele>259.0</ele><time>2026-03-23T15:33:46Z</time></trkpt><trkpt lat="43.216485994830926" lon="11.976560617171934"><ele>259.0</ele><time>2026-03-23T15:33:47Z</time></trkpt><trkpt lat="43.21653279255944" lon="11.976654359447489"><ele>259.0</ele><time>2026-03-23T15:33:48Z</time></trkpt><trkpt lat="43.21657704034963" lon="11.976741448925065"><ele>259.0</ele><time>2026-03-23T15:33:49Z</time></trkpt><trkpt lat="43.216616612986996" lon="11.97680995166807"><ele>259.0</ele><time>2026-03-23T15:33:50Z</time></trkpt><trkpt lat="43.216692703480334" lon="11.976937841610805"><ele>259.0</ele><time>2026-03-23T15:33:52Z</time></trkpt><trkpt lat="43.21676333368961" lon="11.977021903895162"><ele>259.0</ele><time>2026-03-23T15:33:54Z</time></trkpt><trkpt lat="43.216819039450634" lon="11.977115207936667"><ele>259.0</ele><time>2026-03-23T15:33:57Z</time></trkpt><trkpt lat="43.216735746063726" lon="11.977235576342034"><ele>259.0</ele><time>2026-03-23T15:33:59Z</time></trkpt><trkpt lat="43.21669169365555" lon="11.977357195163998"><ele>259.0</ele><time>2026-03-23T15:34:00Z</time></trkpt><trkpt lat="43.216616805262085" lon="11.9774726317294"><ele>259.0</ele><time>2026-03-23T15:34:01Z</time></trkpt><trkpt lat="43.2165563991445" lon="11.97761921566385"><ele>259.0</ele><time>2026-03-23T15:34:02Z</time></trkpt><trkpt lat="43.21648779448373" lon="11.977767239547322"><ele>259.0</ele><time>2026-03-23T15:34:03Z</time></trkpt><trkpt lat="43.21641864064969" lon="11.977918305789405"><ele>258.5</ele><time>2026-03-23T15:34:04Z</time></trkpt><trkpt lat="43.21635543309799" lon="11.978055511363277"><ele>258.0</ele><time>2026-03-23T15:34:05Z</time></trkpt><trkpt lat="43.216295266325766" lon="11.978184384897434"><ele>257.5</ele><time>2026-03-23T15:34:06Z</time></trkpt><trkpt lat="43.21622565262823" lon="11.9783305485483"><ele>257.0</ele><time>2026-03-23T15:34:07Z</time></trkpt><trkpt lat="43.2161500958824" lon="11.978491176208399"><ele>257.0</ele><time>2026-03-23T15:34:08Z</time></trkpt><trkpt lat="43.2160784371561" lon="11.97864207596964"><ele>257.0</ele><time>2026-03-23T15:34:09Z</time></trkpt><trkpt lat="43.21601750426148" lon="11.978758074473513"><ele>257.0</ele><time>2026-03-23T15:34:10Z</time></trkpt><trkpt lat="43.21596673698497" lon="11.978880111284834"><ele>257.0</ele><time>2026-03-23T15:34:11Z</time></trkpt><trkpt lat="43.21592381048979" lon="11.978985711309006"><ele>257.0</ele><time>2026-03-23T15:34:12Z</time></trkpt><trkpt lat="43.2158540256304" lon="11.9790926293419"><ele>257.0</ele><time>2026-03-23T15:34:14Z</time></trkpt><trkpt lat="43.21570163708013" lon="11.978958559807445"><ele>257.0</ele><time>2026-03-23T15:34:17Z</time></trkpt><trkpt lat="43.21564220128438" lon="11.978899253436403"><ele>257.0</ele><time>2026-03-23T15:34:18Z</time></trkpt><trkpt lat="43.21556076951584" lon="11.978812298814221"><ele>257.0</ele><time>2026-03-23T15:34:19Z</time></trkpt><trkpt lat="43.215481033693784" lon="11.978724544837782"><ele>257.2</ele><time>2026-03-23T15:34:20Z</time></trkpt><trkpt lat="43.2153988811009" lon="11.97863413104996"><ele>257.4</ele><time>2026-03-23T15:34:21Z</time></trkpt><trkpt lat="43.21530354014049" lon="11.978529202691805"><ele>257.6</ele><time>2026-03-23T15:34:22Z</time></trkpt><trkpt lat="43.21521089319818" lon="11.978431576270019"><ele>257.8</ele><time>2026-03-23T15:34:23Z</time></trkpt><trkpt lat="43.2151278163701" lon="11.978343973666023"><ele>258.0</ele><time>2026-03-23T15:34:24Z</time></trkpt><trkpt lat="43.215058337261745" lon="11.978269380779647"><ele>258.0</ele><time>2026-03-23T15:34:25Z</time></trkpt><trkpt lat="43.21498024490641" lon="11.978183598721518"><ele>258.0</ele><time>2026-03-23T15:34:26Z</time></trkpt><trkpt lat="43.21489789273842" lon="11.978091704301054"><ele>258.0</ele><time>2026-03-23T15:34:27Z</time></trkpt><trkpt lat="43.21481013354152" lon="11.97799110930029"><ele>258.0</ele><time>2026-03-23T15:34:28Z</time></trkpt><trkpt lat="43.214727358869006" lon="11.97789622797216"><ele>258.0</ele><time>2026-03-23T15:34:29Z</time></trkpt><trkpt lat="43.214635162566736" lon="11.977791625007702"><ele>258.0</ele><time>2026-03-23T15:34:30Z</time></trkpt><trkpt lat="43.21452850904234" lon="11.977673330676678"><ele>258.0</ele><time>2026-03-23T15:34:31Z</time></trkpt><trkpt lat="43.21441865661834" lon="11.977555236916688"><ele>258.0</ele><time>2026-03-23T15:34:32Z</time></trkpt><trkpt lat="43.21430707161443" lon="11.977438329329914"><ele>258.0</ele><time>2026-03-23T15:34:33Z</time></trkpt><trkpt lat="43.214212987899764" lon="11.977339720231344"><ele>258.2</ele><time>2026-03-23T15:34:34Z</time></trkpt><trkpt lat="43.21413420109816" lon="11.977257143855498"><ele>258.4</ele><time>2026-03-23T15:34:35Z</time></trkpt><trkpt lat="43.2140688831142" lon="11.977188684163416"><ele>258.59999999999997</ele><time>2026-03-23T15:34:36Z</time></trkpt><trkpt lat="43.21398209203789" lon="11.977096530044067"><ele>258.8</ele><time>2026-03-23T15:34:38Z</time></trkpt><trkpt lat="43.21390687684682" lon="11.977016692135539"><ele>259.0</ele><time>2026-03-23T15:34:41Z</time></trkpt><trkpt lat="43.21385525136673" lon="11.976961861326956"><ele>259.2</ele><time>2026-03-23T15:34:42Z</time></trkpt><trkpt lat="43.21377852470005" lon="11.976880370915419"><ele>259.4</ele><time>2026-03-23T15:34:43Z</time></trkpt><trkpt lat="43.21370320507533" lon="11.976800374849105"><ele>259.6</ele><time>2026-03-23T15:34:44Z</time></trkpt><trkpt lat="43.213618828003064" lon="11.976710020438565"><ele>259.8</ele><time>2026-03-23T15:34:45Z</time></trkpt><trkpt lat="43.21353142420489" lon="11.976615056305603"><ele>260.0</ele><time>2026-03-23T15:34:46Z</time></trkpt><trkpt lat="43.213437663545946" lon="11.976513185477629"><ele>260.0</ele><time>2026-03-23T15:34:47Z</time></trkpt><trkpt lat="43.21333594465092" lon="11.976402668051026"><ele>260.0</ele><time>2026-03-23T15:34:48Z</time></trkpt><trkpt lat="43.21324161147834" lon="11.976300175244635"><ele>260.0</ele><time>2026-03-23T15:34:49Z</time></trkpt><trkpt lat="43.21313507749464" lon="11.97618598680528"><ele>260.0</ele><time>2026-03-23T15:34:50Z</time></trkpt><trkpt lat="43.21304249129224" lon="11.976087861912466"><ele>259.75</ele><time>2026-03-23T15:34:51Z</time></trkpt><trkpt lat="43.212949947289765" lon="11.97598978165211"><ele>259.5</ele><time>2026-03-23T15:34:52Z</time></trkpt><trkpt lat="43.21285202068972" lon="11.975884064626054"><ele>259.25</ele><time>2026-03-23T15:34:53Z</time></trkpt><trkpt lat="43.212746315669285" lon="11.975769149702622"><ele>259.0</ele><time>2026-03-23T15:34:54Z</time></trkpt><trkpt lat="43.21266289377859" lon="11.975678459443193"><ele>259.4</ele><time>2026-03-23T15:34:55Z</time></trkpt><trkpt lat="43.2125875757818" lon="11.975596693975003"><ele>259.79999999999995</ele><time>2026-03-23T15:34:56Z</time></trkpt><trkpt lat="43.21250729599264" lon="11.97551100141347"><ele>260.20000000000005</ele><time>2026-03-23T15:34:57Z</time></trkpt><trkpt lat="43.21242118469159" lon="11.975420620037648"><ele>260.6</ele><time>2026-03-23T15:34:58Z</time></trkpt><trkpt lat="43.21232729677911" lon="11.975326438739014"><ele>261.0</ele><time>2026-03-23T15:34:59Z</time></trkpt><trkpt lat="43.21223521834327" lon="11.975236390349709"><ele>261.0</ele><time>2026-03-23T15:35:00Z</time></trkpt><trkpt lat="43.21213766244847" lon="11.975136876728582"><ele>261.0</ele><time>2026-03-23T15:35:01Z</time></trkpt><trkpt lat="43.21204481891533" lon="11.97503828619803"><ele>261.0</ele><time>2026-03-23T15:35:02Z</time></trkpt><trkpt lat="43.211949688792075" lon="11.974935095418216"><ele>261.0</ele><time>2026-03-23T15:35:03Z</time></trkpt><trkpt lat="43.21185753775607" lon="11.97483513621253"><ele>261.0</ele><time>2026-03-23T15:35:04Z</time></trkpt><trkpt lat="43.21177205122669" lon="11.974742407549575"><ele>261.0</ele><time>2026-03-23T15:35:05Z</time></trkpt><trkpt lat="43.21170214692245" lon="11.9746665801242"><ele>261.0</ele><time>2026-03-23T15:35:06Z</time></trkpt><trkpt lat="43.211629735325396" lon="11.974588587509741"><ele>261.0</ele><time>2026-03-23T15:35:07Z</time></trkpt><trkpt lat="43.21156428888299" lon="11.974518143017603"><ele>261.0</ele><time>2026-03-23T15:35:08Z</time></trkpt><trkpt lat="43.211490240735934" lon="11.97443844044099"><ele>261.2</ele><time>2026-03-23T15:35:09Z</time></trkpt><trkpt lat="43.21141258526048" lon="11.974354854791"><ele>261.40000000000003</ele><time>2026-03-23T15:35:10Z</time></trkpt><trkpt lat="43.21132205981741" lon="11.974257989100641"><ele>261.6</ele><time>2026-03-23T15:35:11Z</time></trkpt><trkpt lat="43.21123104885425" lon="11.974163495540173"><ele>261.8</ele><time>2026-03-23T15:35:12Z</time></trkpt><trkpt lat="43.211137080586646" lon="11.97406593209931"><ele>262.0</ele><time>2026-03-23T15:35:13Z</time></trkpt><trkpt lat="43.2110437363471" lon="11.973969016416977"><ele>262.0</ele><time>2026-03-23T15:35:14Z</time></trkpt><trkpt lat="43.21094838524988" lon="11.973868836222906"><ele>262.0</ele><time>2026-03-23T15:35:15Z</time></trkpt><trkpt lat="43.21085930332605" lon="11.973773720921685"><ele>262.0</ele><time>2026-03-23T15:35:16Z</time></trkpt><trkpt lat="43.210767254131845" lon="11.973672256773943"><ele>262.0</ele><time>2026-03-23T15:35:17Z</time></trkpt><trkpt lat="43.21067812461478" lon="11.973572226568187"><ele>262.0</ele><time>2026-03-23T15:35:18Z</time></trkpt><trkpt lat="43.21057831675527" lon="11.973459917960922"><ele>262.0</ele><time>2026-03-23T15:35:19Z</time></trkpt><trkpt lat="43.210479828601244" lon="11.973349094360646"><ele>262.0</ele><time>2026-03-23T15:35:20Z</time></trkpt><trkpt lat="43.210388080205554" lon="11.973246342497912"><ele>262.0</ele><time>2026-03-23T15:35:21Z</time></trkpt><trkpt lat="43.21029351313254" lon="11.97314304617468"><ele>262.0</ele><time>2026-03-23T15:35:22Z</time></trkpt><trkpt lat="43.210193971087" lon="11.973039287178427"><ele>262.0</ele><time>2026-03-23T15:35:23Z</time></trkpt><trkpt lat="43.210095456504376" lon="11.972939154128289"><ele>262.0</ele><time>2026-03-23T15:35:24Z</time></trkpt><trkpt lat="43.210002788623285" lon="11.972845161187589"><ele>262.0</ele><time>2026-03-23T15:35:25Z</time></trkpt><trkpt lat="43.209921335470135" lon="11.972762543152069"><ele>262.2</ele><time>2026-03-23T15:35:26Z</time></trkpt><trkpt lat="43.20982486795339" lon="11.972663675118136"><ele>262.4</ele><time>2026-03-23T15:35:27Z</time></trkpt><trkpt lat="43.209727758617454" lon="11.972585113065934"><ele>262.6</ele><time>2026-03-23T15:35:28Z</time></trkpt><trkpt lat="43.209658250798505" lon="11.972471860945518"><ele>262.8</ele><time>2026-03-23T15:35:29Z</time></trkpt><trkpt lat="43.209578282226346" lon="11.972379149908132"><ele>263.0</ele><time>2026-03-23T15:35:30Z</time></trkpt><trkpt lat="43.20950062934521" lon="11.972308696246037"><ele>262.6666666666667</ele><time>2026-03-23T15:35:31Z</time></trkpt><trkpt lat="43.20943767918521" lon="11.972260713494329"><ele>262.33333333333337</ele><time>2026-03-23T15:35:32Z</time></trkpt><trkpt lat="43.2093730648156" lon="11.972223716613364"><ele>262.0</ele><time>2026-03-23T15:35:33Z</time></trkpt><trkpt lat="43.20930721994238" lon="11.972217193168223"><ele>261.6666666666667</ele><time>2026-03-23T15:35:34Z</time></trkpt><trkpt lat="43.20921697909735" lon="11.972239401902325"><ele>261.3333333333333</ele><time>2026-03-23T15:35:35Z</time></trkpt><trkpt lat="43.20913158961228" lon="11.97230159142804"><ele>261.0</ele><time>2026-03-23T15:35:36Z</time></trkpt><trkpt lat="43.20901042651593" lon="11.972332095077935"><ele>261.0</ele><time>2026-03-23T15:35:37Z</time></trkpt><trkpt lat="43.20890359030306" lon="11.9723785676388"><ele>261.0</ele><time>2026-03-23T15:35:38Z</time></trkpt><trkpt lat="43.20879165193965" lon="11.972426115257699"><ele>261.0</ele><time>2026-03-23T15:35:39Z</time></trkpt><trkpt lat="43.2086960904232" lon="11.972465005146155"><ele>261.0</ele><time>2026-03-23T15:35:40Z</time></trkpt><trkpt lat="43.20856939231649" lon="11.972516599038645"><ele>261.0</ele><time>2026-03-23T15:35:41Z</time></trkpt><trkpt lat="43.208448176983694" lon="11.972565960237398"><ele>261.0</ele><time>2026-03-23T15:35:42Z</time></trkpt><trkpt lat="43.208341372887666" lon="11.972609452925997"><ele>261.0</ele><time>2026-03-23T15:35:43Z</time></trkpt><trkpt lat="43.208227374237666" lon="11.972655875369052"><ele>261.0</ele><time>2026-03-23T15:35:44Z</time></trkpt><trkpt lat="43.20812429959591" lon="11.972713601819288"><ele>261.25</ele><time>2026-03-23T15:35:45Z</time></trkpt><trkpt lat="43.20801596729727" lon="11.972749802733984"><ele>261.5</ele><time>2026-03-23T15:35:46Z</time></trkpt><trkpt lat="43.20790427656696" lon="11.972793546832877"><ele>261.75</ele><time>2026-03-23T15:35:47Z</time></trkpt><trkpt lat="43.207778886943984" lon="11.972824385543497"><ele>262.0</ele><time>2026-03-23T15:35:48Z</time></trkpt><trkpt lat="43.207654717353" lon="11.972862070813498"><ele>262.0</ele><time>2026-03-23T15:35:49Z</time></trkpt><trkpt lat="43.20752947973193" lon="11.97289462442276"><ele>262.0</ele><time>2026-03-23T15:35:50Z</time></trkpt><trkpt lat="43.20740308598419" lon="11.972922293325603"><ele>262.0</ele><time>2026-03-23T15:35:51Z</time></trkpt><trkpt lat="43.20727356630422" lon="11.972940973023954"><ele>262.0</ele><time>2026-03-23T15:35:52Z</time></trkpt><trkpt lat="43.207156415649" lon="11.97296034453101"><ele>262.16666666666663</ele><time>2026-03-23T15:35:53Z</time></trkpt><trkpt lat="43.207049812589986" lon="11.972974430823033"><ele>262.3333333333333</ele><time>2026-03-23T15:35:54Z</time></trkpt><trkpt lat="43.20695413924278" lon="11.972992904816389"><ele>262.5</ele><time>2026-03-23T15:35:55Z</time></trkpt><trkpt lat="43.206875001531834" lon="11.973010268828606"><ele>262.6666666666667</ele><time>2026-03-23T15:35:56Z</time></trkpt><trkpt lat="43.206812605323506" lon="11.973040815980994"><ele>262.83333333333337</ele><time>2026-03-23T15:35:57Z</time></trkpt><trkpt lat="43.20675173220556" lon="11.973089410151042"><ele>263.0</ele><time>2026-03-23T15:35:58Z</time></trkpt><trkpt lat="43.20669455031368" lon="11.973159946458756"><ele>263.0</ele><time>2026-03-23T15:35:59Z</time></trkpt><trkpt lat="43.206630987311144" lon="11.973251273852547"><ele>263.0</ele><time>2026-03-23T15:36:00Z</time></trkpt><trkpt lat="43.20655689285827" lon="11.973374119155608"><ele>263.0</ele><time>2026-03-23T15:36:01Z</time></trkpt><trkpt lat="43.206485437910544" lon="11.973504713319532"><ele>263.0</ele><time>2026-03-23T15:36:02Z</time></trkpt><trkpt lat="43.206417518568045" lon="11.973635364016966"><ele>263.0</ele><time>2026-03-23T15:36:03Z</time></trkpt><trkpt lat="43.2063437168425" lon="11.973765369343152"><ele>263.0</ele><time>2026-03-23T15:36:04Z</time></trkpt><trkpt lat="43.20626030726587" lon="11.973892525432333"><ele>263.0</ele><time>2026-03-23T15:36:05Z</time></trkpt><trkpt lat="43.20617730412289" lon="11.97400949402922"><ele>263.0</ele><time>2026-03-23T15:36:06Z</time></trkpt><trkpt lat="43.206097621099545" lon="11.97410001971751"><ele>263.0</ele><time>2026-03-23T15:36:07Z</time></trkpt><trkpt lat="43.206018511255955" lon="11.974172594737844"><ele>263.0</ele><time>2026-03-23T15:36:08Z</time></trkpt><trkpt lat="43.20592679306884" lon="11.974212813303879"><ele>263.0</ele><time>2026-03-23T15:36:09Z</time></trkpt><trkpt lat="43.20583245778413" lon="11.974250534087439"><ele>263.0</ele><time>2026-03-23T15:36:10Z</time></trkpt><trkpt lat="43.20576399588358" lon="11.974281979799121"><ele>263.0</ele><time>2026-03-23T15:36:11Z</time></trkpt><trkpt lat="43.20569604084207" lon="11.974294991441713"><ele>263.0</ele><time>2026-03-23T15:36:12Z</time></trkpt><trkpt lat="43.20557322831934" lon="11.97421022687128"><ele>263.0</ele><time>2026-03-23T15:36:14Z</time></trkpt><trkpt lat="43.20549390089144" lon="11.974134307581416"><ele>263.5</ele><time>2026-03-23T15:36:15Z</time></trkpt><trkpt lat="43.20540257249359" lon="11.974054284568656"><ele>264.0</ele><time>2026-03-23T15:36:16Z</time></trkpt><trkpt lat="43.205294319642796" lon="11.973970497135591"><ele>264.5</ele><time>2026-03-23T15:36:17Z</time></trkpt><trkpt lat="43.20518593162578" lon="11.973899323213132"><ele>265.0</ele><time>2026-03-23T15:36:18Z</time></trkpt><trkpt lat="43.20508460936667" lon="11.973854517942819"><ele>265.0</ele><time>2026-03-23T15:36:19Z</time></trkpt><trkpt lat="43.20499165815019" lon="11.973849790665867"><ele>265.0</ele><time>2026-03-23T15:36:20Z</time></trkpt><trkpt lat="43.204922882841174" lon="11.973837133674522"><ele>265.0</ele><time>2026-03-23T15:36:21Z</time></trkpt><trkpt lat="43.20480565158631" lon="11.973804986370622"><ele>265.0</ele><time>2026-03-23T15:36:23Z</time></trkpt><trkpt lat="43.204738793726406" lon="11.973794080903504"><ele>265.0</ele><time>2026-03-23T15:36:24Z</time></trkpt><trkpt lat="43.20467137269547" lon="11.973994580860873"><ele>265.25</ele><time>2026-03-23T15:36:25Z</time></trkpt><trkpt lat="43.20461287985157" lon="11.974103591873995"><ele>265.5</ele><time>2026-03-23T15:36:26Z</time></trkpt><trkpt lat="43.204550128642175" lon="11.97423402567807"><ele>265.75</ele><time>2026-03-23T15:36:27Z</time></trkpt><trkpt lat="43.2044861123867" lon="11.974380880229388"><ele>266.0</ele><time>2026-03-23T15:36:28Z</time></trkpt><trkpt lat="43.20441033980739" lon="11.974539736381368"><ele>266.0</ele><time>2026-03-23T15:36:29Z</time></trkpt><trkpt lat="43.20433652738903" lon="11.974705539742557"><ele>266.0</ele><time>2026-03-23T15:36:30Z</time></trkpt><trkpt lat="43.20425686819337" lon="11.974889059590623"><ele>266.0</ele><time>2026-03-23T15:36:31Z</time></trkpt><trkpt lat="43.20417050599587" lon="11.975075670138661"><ele>266.0</ele><time>2026-03-23T15:36:32Z</time></trkpt><trkpt lat="43.20408398946618" lon="11.975274809052083"><ele>266.0</ele><time>2026-03-23T15:36:33Z</time></trkpt><trkpt lat="43.20399776316181" lon="11.975473269262023"><ele>266.0</ele><time>2026-03-23T15:36:34Z</time></trkpt><trkpt lat="43.2039034779104" lon="11.975666943889431"><ele>267.33333333333337</ele><time>2026-03-23T15:36:35Z</time></trkpt><trkpt lat="43.20381435875383" lon="11.975855530873673"><ele>268.6666666666667</ele><time>2026-03-23T15:36:36Z</time></trkpt><trkpt lat="43.20372146514402" lon="11.976030461395833"><ele>270.0</ele><time>2026-03-23T15:36:37Z</time></trkpt><trkpt lat="43.203619804720226" lon="11.976215486130526"><ele>270.0</ele><time>2026-03-23T15:36:38Z</time></trkpt><trkpt lat="43.20350097932325" lon="11.97640281545708"><ele>270.0</ele><time>2026-03-23T15:36:39Z</time></trkpt><trkpt lat="43.20337869350397" lon="11.976579817990121"><ele>270.0</ele><time>2026-03-23T15:36:40Z</time></trkpt><trkpt lat="43.203264461755396" lon="11.976738569366903"><ele>270.3333333333333</ele><time>2026-03-23T15:36:41Z</time></trkpt><trkpt lat="43.203133027798415" lon="11.976900027706604"><ele>270.66666666666663</ele><time>2026-03-23T15:36:42Z</time></trkpt><trkpt lat="43.20299771918139" lon="11.977059066476647"><ele>271.0</ele><time>2026-03-23T15:36:43Z</time></trkpt><trkpt lat="43.20288178704841" lon="11.977155107682425"><ele>271.0</ele><time>2026-03-23T15:36:44Z</time></trkpt><trkpt lat="43.2027952622319" lon="11.977220918629587"><ele>271.0</ele><time>2026-03-23T15:36:45Z</time></trkpt><trkpt lat="43.202696863360735" lon="11.9772661001888"><ele>271.0</ele><time>2026-03-23T15:36:46Z</time></trkpt><trkpt lat="43.202581715258134" lon="11.977233319380435"><ele>271.0</ele><time>2026-03-23T15:36:47Z</time></trkpt><trkpt lat="43.202463344625286" lon="11.97720377634836"><ele>271.0</ele><time>2026-03-23T15:36:48Z</time></trkpt><trkpt lat="43.2023538945014" lon="11.97722011038983"><ele>270.75</ele><time>2026-03-23T15:36:49Z</time></trkpt><trkpt lat="43.20225146643105" lon="11.977238456153252"><ele>270.5</ele><time>2026-03-23T15:36:50Z</time></trkpt><trkpt lat="43.20215722353854" lon="11.977306924119578"><ele>270.25</ele><time>2026-03-23T15:36:51Z</time></trkpt><trkpt lat="43.20205611432658" lon="11.977412766076261"><ele>270.0</ele><time>2026-03-23T15:36:52Z</time></trkpt><trkpt lat="43.20193946394844" lon="11.977553452877633"><ele>269.0</ele><time>2026-03-23T15:36:53Z</time></trkpt><trkpt lat="43.201813979697434" lon="11.97770297835554"><ele>268.0</ele><time>2026-03-23T15:36:54Z</time></trkpt><trkpt lat="43.20168440448841" lon="11.977853135038577"><ele>267.0</ele><time>2026-03-23T15:36:55Z</time></trkpt><trkpt lat="43.20155263599564" lon="11.978012448778523"><ele>267.0</ele><time>2026-03-23T15:36:56Z</time></trkpt><trkpt lat="43.20143364039179" lon="11.97815745145535"><ele>267.0</ele><time>2026-03-23T15:36:57Z</time></trkpt><trkpt lat="43.201305346271376" lon="11.978311990194248"><ele>267.0</ele><time>2026-03-23T15:36:58Z</time></trkpt><trkpt lat="43.20116909586408" lon="11.978471936833195"><ele>266.6666666666667</ele><time>2026-03-23T15:36:59Z</time></trkpt><trkpt lat="43.20102697560729" lon="11.978638595102412"><ele>266.33333333333337</ele><time>2026-03-23T15:37:00Z</time></trkpt><trkpt lat="43.20088456229578" lon="11.978818207552477"><ele>266.0</ele><time>2026-03-23T15:37:01Z</time></trkpt><trkpt lat="43.200740971306736" lon="11.97901649908814"><ele>265.6666666666667</ele><time>2026-03-23T15:37:02Z</time></trkpt><trkpt lat="43.2005996996535" lon="11.979223455636117"><ele>265.3333333333333</ele><time>2026-03-23T15:37:03Z</time></trkpt><trkpt lat="43.200472395365544" lon="11.979441679990455"><ele>265.0</ele><time>2026-03-23T15:37:04Z</time></trkpt><trkpt lat="43.20035849875417" lon="11.979633623536108"><ele>265.0</ele><time>2026-03-23T15:37:05Z</time></trkpt><trkpt lat="43.20024437693414" lon="11.979819206708893"><ele>265.0</ele><time>2026-03-23T15:37:06Z</time></trkpt><trkpt lat="43.200135170667" lon="11.97999210721404"><ele>265.0</ele><time>2026-03-23T15:37:07Z</time></trkpt><trkpt lat="43.200013158359" lon="11.980177740454288"><ele>265.3333333333333</ele><time>2026-03-23T15:37:08Z</time></trkpt><trkpt lat="43.1998842057534" lon="11.980367968210828"><ele>265.6666666666667</ele><time>2026-03-23T15:37:09Z</time></trkpt><trkpt lat="43.199767069161126" lon="11.980540167976775"><ele>266.0</ele><time>2026-03-23T15:37:10Z</time></trkpt><trkpt lat="43.19965858385378" lon="11.980699291299857"><ele>265.5</ele><time>2026-03-23T15:37:11Z</time></trkpt><trkpt lat="43.19955488566897" lon="11.980866459790857"><ele>265.0</ele><time>2026-03-23T15:37:12Z</time></trkpt><trkpt lat="43.19946131561461" lon="11.981019427019957"><ele>264.5</ele><time>2026-03-23T15:37:13Z</time></trkpt><trkpt lat="43.199398137835814" lon="11.981139683847575"><ele>264.0</ele><time>2026-03-23T15:37:14Z</time></trkpt><trkpt lat="43.19936625897578" lon="11.981242471709535"><ele>264.0</ele><time>2026-03-23T15:37:15Z</time></trkpt><trkpt lat="43.199356785898225" lon="11.98135831579614"><ele>264.0</ele><time>2026-03-23T15:37:16Z</time></trkpt><trkpt lat="43.19937776400575" lon="11.98148560115852"><ele>264.0</ele><time>2026-03-23T15:37:17Z</time></trkpt><trkpt lat="43.199435793669" lon="11.981624831065186"><ele>264.0</ele><time>2026-03-23T15:37:18Z</time></trkpt><trkpt lat="43.19949113269444" lon="11.981743562694493"><ele>264.0</ele><time>2026-03-23T15:37:19Z</time></trkpt><trkpt lat="43.199521071730146" lon="11.981854482032116"><ele>264.0</ele><time>2026-03-23T15:37:20Z</time></trkpt><trkpt lat="43.199517495556684" lon="11.981966880159984"><ele>264.0</ele><time>2026-03-23T15:37:21Z</time></trkpt><trkpt lat="43.19948861252267" lon="11.98204817820156"><ele>264.0</ele><time>2026-03-23T15:37:22Z</time></trkpt><trkpt lat="43.199424116184375" lon="11.982102285728402"><ele>264.0</ele><time>2026-03-23T15:37:24Z</time></trkpt><trkpt lat="43.199413873572865" lon="11.98223789717555"><ele>264.0</ele><time>2026-03-23T15:37:31Z</time></trkpt><trkpt lat="43.19946388787626" lon="11.982324703266247"><ele>264.0</ele><time>2026-03-23T15:37:32Z</time></trkpt><trkpt lat="43.19949291264405" lon="11.982425405104891"><ele>264.0</ele><time>2026-03-23T15:37:33Z</time></trkpt><trkpt lat="43.199511883734566" lon="11.982543823598178"><ele>264.0</ele><time>2026-03-23T15:37:34Z</time></trkpt><trkpt lat="43.199465640824" lon="11.982665245542295"><ele>264.0</ele><time>2026-03-23T15:37:35Z</time></trkpt><trkpt lat="43.19939281299213" lon="11.982780188165576"><ele>264.0</ele><time>2026-03-23T15:37:36Z</time></trkpt><trkpt lat="43.199373815152384" lon="11.982889307763974"><ele>264.0</ele><time>2026-03-23T15:37:37Z</time></trkpt><trkpt lat="43.199404099976306" lon="11.983053949419617"><ele>264.0</ele><time>2026-03-23T15:37:39Z</time></trkpt><trkpt lat="43.19946280849058" lon="11.98313262730751"><ele>264.0</ele><time>2026-03-23T15:37:40Z</time></trkpt><trkpt lat="43.199543219459876" lon="11.983173769273973"><ele>264.0</ele><time>2026-03-23T15:37:41Z</time></trkpt><trkpt lat="43.19963875342987" lon="11.983165022204146"><ele>264.0</ele><time>2026-03-23T15:37:42Z</time></trkpt><trkpt lat="43.199738820651355" lon="11.983114690857064"><ele>264.0</ele><time>2026-03-23T15:37:43Z</time></trkpt><trkpt lat="43.19983051404521" lon="11.983066658284852"><ele>264.0</ele><time>2026-03-23T15:37:44Z</time></trkpt><trkpt lat="43.19991107857923" lon="11.983070810463714"><ele>264.0</ele><time>2026-03-23T15:37:45Z</time></trkpt><trkpt lat="43.20000779431882" lon="11.983090765124183"><ele>264.0</ele><time>2026-03-23T15:37:46Z</time></trkpt><trkpt lat="43.200094793725775" lon="11.983268351545876"><ele>264.0</ele><time>2026-03-23T15:37:47Z</time></trkpt><trkpt lat="43.20019135217747" lon="11.9834093663583"><ele>264.0</ele><time>2026-03-23T15:37:48Z</time></trkpt><trkpt lat="43.20027820229563" lon="11.983539808100451"><ele>264.0</ele><time>2026-03-23T15:37:49Z</time></trkpt><trkpt lat="43.200345418204726" lon="11.983612620975233"><ele>264.0</ele><time>2026-03-23T15:37:50Z</time></trkpt><trkpt lat="43.200382569777936" lon="11.983692815669771"><ele>264.0</ele><time>2026-03-23T15:37:52Z</time></trkpt><trkpt lat="43.20043554877095" lon="11.98375620105805"><ele>264.0</ele><time>2026-03-23T15:37:53Z</time></trkpt><trkpt lat="43.200497227739504" lon="11.983851210294135"><ele>264.0</ele><time>2026-03-23T15:37:54Z</time></trkpt><trkpt lat="43.20057229348984" lon="11.98395846408679"><ele>264.0</ele><time>2026-03-23T15:37:55Z</time></trkpt><trkpt lat="43.20065985935966" lon="11.98407608999059"><ele>264.0</ele><time>2026-03-23T15:37:56Z</time></trkpt><trkpt lat="43.20076089747041" lon="11.984200011190303"><ele>264.0</ele><time>2026-03-23T15:37:57Z</time></trkpt><trkpt lat="43.20088659841043" lon="11.98432472356693"><ele>264.0</ele><time>2026-03-23T15:37:58Z</time></trkpt><trkpt lat="43.20101966490019" lon="11.984421241294921"><ele>263.3333333333333</ele><time>2026-03-23T15:37:59Z</time></trkpt><trkpt lat="43.20116736468618" lon="11.984512055180138"><ele>262.66666666666663</ele><time>2026-03-23T15:38:00Z</time></trkpt><trkpt lat="43.20131118738653" lon="11.984595361784077"><ele>262.0</ele><time>2026-03-23T15:38:01Z</time></trkpt><trkpt lat="43.20146947038556" lon="11.984676954592251"><ele>261.66666666666663</ele><time>2026-03-23T15:38:02Z</time></trkpt><trkpt lat="43.20164539509306" lon="11.98475694297853"><ele>261.3333333333333</ele><time>2026-03-23T15:38:03Z</time></trkpt><trkpt lat="43.201823030858264" lon="11.984824308120318"><ele>261.0</ele><time>2026-03-23T15:38:04Z</time></trkpt><trkpt lat="43.201992738671336" lon="11.984867686134226"><ele>261.0</ele><time>2026-03-23T15:38:05Z</time></trkpt><trkpt lat="43.20216773311407" lon="11.984881166470844"><ele>261.0</ele><time>2026-03-23T15:38:06Z</time></trkpt><trkpt lat="43.20232837577345" lon="11.984909345736552"><ele>261.0</ele><time>2026-03-23T15:38:07Z</time></trkpt><trkpt lat="43.202481728155504" lon="11.984959602813877"><ele>261.0</ele><time>2026-03-23T15:38:08Z</time></trkpt><trkpt lat="43.202630836856905" lon="11.985048340243672"><ele>261.0</ele><time>2026-03-23T15:38:09Z</time></trkpt><trkpt lat="43.20276520004664" lon="11.985142341643133"><ele>261.0</ele><time>2026-03-23T15:38:10Z</time></trkpt><trkpt lat="43.202902630045386" lon="11.98526541241244"><ele>261.0</ele><time>2026-03-23T15:38:11Z</time></trkpt><trkpt lat="43.20303708850003" lon="11.985392931442144"><ele>261.0</ele><time>2026-03-23T15:38:12Z</time></trkpt><trkpt lat="43.203181155044334" lon="11.985525043347788"><ele>261.0</ele><time>2026-03-23T15:38:13Z</time></trkpt><trkpt lat="43.20330755971585" lon="11.98567870924481"><ele>260.6666666666667</ele><time>2026-03-23T15:38:14Z</time></trkpt><trkpt lat="43.20342577554395" lon="11.985834280565847"><ele>260.33333333333337</ele><time>2026-03-23T15:38:15Z</time></trkpt><trkpt lat="43.20352171857314" lon="11.986018215245684"><ele>260.0</ele><time>2026-03-23T15:38:16Z</time></trkpt><trkpt lat="43.203616065110324" lon="11.986217400779624"><ele>260.0</ele><time>2026-03-23T15:38:17Z</time></trkpt><trkpt lat="43.203733667858984" lon="11.986400831132306"><ele>260.0</ele><time>2026-03-23T15:38:18Z</time></trkpt><trkpt lat="43.20386290351306" lon="11.9865751887449"><ele>260.0</ele><time>2026-03-23T15:38:19Z</time></trkpt><trkpt lat="43.20399421496329" lon="11.986745497939136"><ele>260.0</ele><time>2026-03-23T15:38:20Z</time></trkpt><trkpt lat="43.20412112812308" lon="11.9869040294607"><ele>260.0</ele><time>2026-03-23T15:38:21Z</time></trkpt><trkpt lat="43.204252113521605" lon="11.987059040675785"><ele>260.0</ele><time>2026-03-23T15:38:22Z</time></trkpt><trkpt lat="43.2043617567919" lon="11.98718491888077"><ele>260.0</ele><time>2026-03-23T15:38:23Z</time></trkpt><trkpt lat="43.20443923656479" lon="11.987279230441567"><ele>260.0</ele><time>2026-03-23T15:38:24Z</time></trkpt><trkpt lat="43.20450540882373" lon="11.987375903043105"><ele>260.0</ele><time>2026-03-23T15:38:26Z</time></trkpt><trkpt lat="43.20451989129306" lon="11.98746261114117"><ele>260.0</ele><time>2026-03-23T15:38:28Z</time></trkpt><trkpt lat="43.20434555732541" lon="11.98769702104357"><ele>260.0</ele><time>2026-03-23T15:38:31Z</time></trkpt><trkpt lat="43.204262735072014" lon="11.987782512883213"><ele>260.0</ele><time>2026-03-23T15:38:32Z</time></trkpt><trkpt lat="43.20417989433393" lon="11.987882457003385"><ele>260.0</ele><time>2026-03-23T15:38:33Z</time></trkpt><trkpt lat="43.204082405235944" lon="11.98799933090393"><ele>260.0</ele><time>2026-03-23T15:38:34Z</time></trkpt><trkpt lat="43.2039942177234" lon="11.98811061116823"><ele>260.0</ele><time>2026-03-23T15:38:35Z</time></trkpt><trkpt lat="43.20389517936553" lon="11.988228439214636"><ele>260.0</ele><time>2026-03-23T15:38:36Z</time></trkpt><trkpt lat="43.203807127097264" lon="11.988335285588056"><ele>260.0</ele><time>2026-03-23T15:38:37Z</time></trkpt><trkpt lat="43.2037218167972" lon="11.988445230476819"><ele>260.0</ele><time>2026-03-23T15:38:38Z</time></trkpt><trkpt lat="43.20363285534964" lon="11.988545741877665"><ele>260.0</ele><time>2026-03-23T15:38:39Z</time></trkpt><trkpt lat="43.203547402777225" lon="11.98864966757739"><ele>260.0</ele><time>2026-03-23T15:38:40Z</time></trkpt><trkpt lat="43.203452419587855" lon="11.988771529118377"><ele>260.0</ele><time>2026-03-23T15:38:41Z</time></trkpt><trkpt lat="43.20335893723426" lon="11.988891075782336"><ele>260.0</ele><time>2026-03-23T15:38:42Z</time></trkpt><trkpt lat="43.2032654739589" lon="11.989015779697889"><ele>260.0</ele><time>2026-03-23T15:38:43Z</time></trkpt><trkpt lat="43.20316410042751" lon="11.989137684601552"><ele>260.0</ele><time>2026-03-23T15:38:44Z</time></trkpt><trkpt lat="43.20306983419485" lon="11.989240339877394"><ele>260.0</ele><time>2026-03-23T15:38:45Z</time></trkpt><trkpt lat="43.20297982857625" lon="11.989343977616226"><ele>260.0</ele><time>2026-03-23T15:38:46Z</time></trkpt><trkpt lat="43.2028959482721" lon="11.98944356910336"><ele>259.8</ele><time>2026-03-23T15:38:47Z</time></trkpt><trkpt lat="43.20281404266383" lon="11.98954755241491"><ele>259.6</ele><time>2026-03-23T15:38:48Z</time></trkpt><trkpt lat="43.202729941697285" lon="11.989639039138668"><ele>259.4</ele><time>2026-03-23T15:38:49Z</time></trkpt><trkpt lat="43.202665363321934" lon="11.989723347013337"><ele>259.2</ele><time>2026-03-23T15:38:50Z</time></trkpt><trkpt lat="43.20259335113814" lon="11.989810345953721"><ele>259.0</ele><time>2026-03-23T15:38:51Z</time></trkpt><trkpt lat="43.202503895223366" lon="11.98991545227332"><ele>259.0</ele><time>2026-03-23T15:38:52Z</time></trkpt><trkpt lat="43.202416744171316" lon="11.990020712210706"><ele>259.0</ele><time>2026-03-23T15:38:53Z</time></trkpt><trkpt lat="43.20233232839107" lon="11.990132222620758"><ele>259.0</ele><time>2026-03-23T15:38:54Z</time></trkpt><trkpt lat="43.20225569350047" lon="11.990219441014586"><ele>259.0</ele><time>2026-03-23T15:38:55Z</time></trkpt><trkpt lat="43.20217843762173" lon="11.990315868925391"><ele>259.0</ele><time>2026-03-23T15:38:56Z</time></trkpt><trkpt lat="43.20209916506731" lon="11.990407867286155"><ele>259.25</ele><time>2026-03-23T15:38:57Z</time></trkpt><trkpt lat="43.20201228643906" lon="11.990518840216179"><ele>259.5</ele><time>2026-03-23T15:38:58Z</time></trkpt><trkpt lat="43.20193052592464" lon="11.990635312986612"><ele>259.75</ele><time>2026-03-23T15:38:59Z</time></trkpt><trkpt lat="43.20183809262692" lon="11.99074658932235"><ele>260.0</ele><time>2026-03-23T15:39:00Z</time></trkpt><trkpt lat="43.2017473321506" lon="11.990847260203225"><ele>260.25</ele><time>2026-03-23T15:39:01Z</time></trkpt><trkpt lat="43.20165168399834" lon="11.99095484324005"><ele>260.5</ele><time>2026-03-23T15:39:02Z</time></trkpt><trkpt lat="43.20156257547721" lon="11.991063408162637"><ele>260.75</ele><time>2026-03-23T15:39:03Z</time></trkpt><trkpt lat="43.201483217419664" lon="11.991170058710438"><ele>261.0</ele><time>2026-03-23T15:39:04Z</time></trkpt><trkpt lat="43.201406786417685" lon="11.991264139098252"><ele>261.0</ele><time>2026-03-23T15:39:05Z</time></trkpt><trkpt lat="43.201324685713985" lon="11.991354752231667"><ele>261.0</ele><time>2026-03-23T15:39:06Z</time></trkpt><trkpt lat="43.20123354436765" lon="11.991457025407513"><ele>261.0</ele><time>2026-03-23T15:39:07Z</time></trkpt><trkpt lat="43.20114482895795" lon="11.991568115542503"><ele>261.0</ele><time>2026-03-23T15:39:08Z</time></trkpt><trkpt lat="43.201057023343395" lon="11.991690673354952"><ele>261.0</ele><time>2026-03-23T15:39:09Z</time></trkpt><trkpt lat="43.20096449094864" lon="11.991798498077364"><ele>261.0</ele><time>2026-03-23T15:39:10Z</time></trkpt><trkpt lat="43.20088199620619" lon="11.991898548944775"><ele>261.0</ele><time>2026-03-23T15:39:11Z</time></trkpt><trkpt lat="43.20081411109358" lon="11.991981572401356"><ele>261.0</ele><time>2026-03-23T15:39:12Z</time></trkpt><trkpt lat="43.20076442876423" lon="11.992039260627775"><ele>261.0</ele><time>2026-03-23T15:39:13Z</time></trkpt><trkpt lat="43.200714268551145" lon="11.99214562485267"><ele>261.0</ele><time>2026-03-23T15:39:15Z</time></trkpt><trkpt lat="43.20072378716141" lon="11.992268203912591"><ele>261.0</ele><time>2026-03-23T15:39:17Z</time></trkpt><trkpt lat="43.20078966653419" lon="11.99238890260984"><ele>261.0</ele><time>2026-03-23T15:39:19Z</time></trkpt><trkpt lat="43.20084200943861" lon="11.99246210597521"><ele>261.0</ele><time>2026-03-23T15:39:20Z</time></trkpt><trkpt lat="43.200902910534765" lon="11.99254142867635"><ele>261.0</ele><time>2026-03-23T15:39:21Z</time></trkpt><trkpt lat="43.200974259609005" lon="11.99265538202218"><ele>261.0</ele><time>2026-03-23T15:39:23Z</time></trkpt><trkpt lat="43.20097645761547" lon="11.992771925328793"><ele>261.0</ele><time>2026-03-23T15:39:25Z</time></trkpt><trkpt lat="43.20087948021024" lon="11.992864948972873"><ele>261.0</ele><time>2026-03-23T15:39:27Z</time></trkpt><trkpt lat="43.200795272016904" lon="11.992921080902004"><ele>261.0</ele><time>2026-03-23T15:39:28Z</time></trkpt><trkpt lat="43.200695550944616" lon="11.99298914790749"><ele>261.0</ele><time>2026-03-23T15:39:29Z</time></trkpt><trkpt lat="43.2006031396245" lon="11.993063795885403"><ele>261.0</ele><time>2026-03-23T15:39:30Z</time></trkpt><trkpt lat="43.20050676974367" lon="11.993157548011217"><ele>261.0</ele><time>2026-03-23T15:39:31Z</time></trkpt><trkpt lat="43.20042718079463" lon="11.993216144463267"><ele>261.0</ele><time>2026-03-23T15:39:32Z</time></trkpt><trkpt lat="43.200348129185855" lon="11.993269715561157"><ele>261.0</ele><time>2026-03-23T15:39:33Z</time></trkpt><trkpt lat="43.20028364881975" lon="11.993309153106466"><ele>261.0</ele><time>2026-03-23T15:39:34Z</time></trkpt><trkpt lat="43.20021805630833" lon="11.9933717006481"><ele>261.0</ele><time>2026-03-23T15:39:35Z</time></trkpt><trkpt lat="43.20017985957775" lon="11.993476002949897"><ele>261.0</ele><time>2026-03-23T15:39:40Z</time></trkpt><trkpt lat="43.20028064327336" lon="11.993601345035042"><ele>261.0</ele><time>2026-03-23T15:39:42Z</time></trkpt><trkpt lat="43.20037125407399" lon="11.993678949288546"><ele>261.0</ele><time>2026-03-23T15:39:43Z</time></trkpt><trkpt lat="43.20043891997113" lon="11.993792828352456"><ele>261.0</ele><time>2026-03-23T15:39:44Z</time></trkpt><trkpt lat="43.20053968298557" lon="11.993904385611819"><ele>261.0</ele><time>2026-03-23T15:39:45Z</time></trkpt><trkpt lat="43.20063123019766" lon="11.994024297711123"><ele>261.0</ele><time>2026-03-23T15:39:46Z</time></trkpt><trkpt lat="43.20070997008035" lon="11.99413817672105"><ele>261.0</ele><time>2026-03-23T15:39:47Z</time></trkpt><trkpt lat="43.20078883257095" lon="11.99426976750648"><ele>261.0</ele><time>2026-03-23T15:39:48Z</time></trkpt><trkpt lat="43.20087210945789" lon="11.99443840470448"><ele>261.3333333333333</ele><time>2026-03-23T15:39:49Z</time></trkpt><trkpt lat="43.20096448056529" lon="11.994625468968708"><ele>261.66666666666663</ele><time>2026-03-23T15:39:50Z</time></trkpt><trkpt lat="43.201049689927544" lon="11.994804470762869"><ele>262.0</ele><time>2026-03-23T15:39:51Z</time></trkpt><trkpt lat="43.20113378463208" lon="11.99499812057679"><ele>262.3333333333333</ele><time>2026-03-23T15:39:52Z</time></trkpt><trkpt lat="43.201216540640885" lon="11.99519473892454"><ele>262.6666666666667</ele><time>2026-03-23T15:39:53Z</time></trkpt><trkpt lat="43.20129667167215" lon="11.995382599712556"><ele>263.0</ele><time>2026-03-23T15:39:54Z</time></trkpt><trkpt lat="43.201380478000914" lon="11.995558236283387"><ele>263.0</ele><time>2026-03-23T15:39:55Z</time></trkpt><trkpt lat="43.20145623222492" lon="11.99573700426205"><ele>263.0</ele><time>2026-03-23T15:39:56Z</time></trkpt><trkpt lat="43.20153230739898" lon="11.99591711287387"><ele>263.0</ele><time>2026-03-23T15:39:57Z</time></trkpt><trkpt lat="43.201606750067185" lon="11.996094706961387"><ele>263.25</ele><time>2026-03-23T15:39:58Z</time></trkpt><trkpt lat="43.20167775683411" lon="11.996273029472372"><ele>263.5</ele><time>2026-03-23T15:39:59Z</time></trkpt><trkpt lat="43.201733632641265" lon="11.996412556933722"><ele>263.75</ele><time>2026-03-23T15:40:00Z</time></trkpt><trkpt lat="43.201791370243456" lon="11.996559523624649"><ele>264.0</ele><time>2026-03-23T15:40:01Z</time></trkpt><trkpt lat="43.20183281284692" lon="11.996745027332006"><ele>264.25</ele><time>2026-03-23T15:40:02Z</time></trkpt><trkpt lat="43.201855131230076" lon="11.996942858448987"><ele>264.5</ele><time>2026-03-23T15:40:03Z</time></trkpt><trkpt lat="43.20186217062648" lon="11.997147232657221"><ele>264.75</ele><time>2026-03-23T15:40:04Z</time></trkpt><trkpt lat="43.20186383026119" lon="11.997329409745007"><ele>265.0</ele><time>2026-03-23T15:40:05Z</time></trkpt><trkpt lat="43.20187604110228" lon="11.997521052689715"><ele>265.0</ele><time>2026-03-23T15:40:06Z</time></trkpt><trkpt lat="43.201892046090514" lon="11.997734687826462"><ele>265.0</ele><time>2026-03-23T15:40:07Z</time></trkpt><trkpt lat="43.201907230088736" lon="11.997935551610848"><ele>265.0</ele><time>2026-03-23T15:40:08Z</time></trkpt><trkpt lat="43.2019249175056" lon="11.998141312843382"><ele>264.75</ele><time>2026-03-23T15:40:09Z</time></trkpt><trkpt lat="43.20193283721972" lon="11.998335267233227"><ele>264.5</ele><time>2026-03-23T15:40:10Z</time></trkpt><trkpt lat="43.20194054741097" lon="11.998512467907368"><ele>264.25</ele><time>2026-03-23T15:40:11Z</time></trkpt><trkpt lat="43.201957001295405" lon="11.998678267578383"><ele>264.0</ele><time>2026-03-23T15:40:12Z</time></trkpt><trkpt lat="43.201990243727025" lon="11.998869214203715"><ele>264.0</ele><time>2026-03-23T15:40:13Z</time></trkpt><trkpt lat="43.20203439323438" lon="11.99901007413414"><ele>264.0</ele><time>2026-03-23T15:40:14Z</time></trkpt><trkpt lat="43.20209413964994" lon="11.999153590884788"><ele>264.0</ele><time>2026-03-23T15:40:15Z</time></trkpt><trkpt lat="43.2021775028636" lon="11.999319095429374"><ele>264.0</ele><time>2026-03-23T15:40:16Z</time></trkpt><trkpt lat="43.202275388146106" lon="11.999497553855738"><ele>264.0</ele><time>2026-03-23T15:40:17Z</time></trkpt><trkpt lat="43.20237809032301" lon="11.999698264756182"><ele>264.0</ele><time>2026-03-23T15:40:18Z</time></trkpt><trkpt lat="43.20248225021031" lon="11.999901544883334"><ele>264.0</ele><time>2026-03-23T15:40:19Z</time></trkpt><trkpt lat="43.20257289037309" lon="12.000084942883307"><ele>264.0</ele><time>2026-03-23T15:40:20Z</time></trkpt><trkpt lat="43.202651410833695" lon="12.000242178574606"><ele>264.0</ele><time>2026-03-23T15:40:21Z</time></trkpt><trkpt lat="43.202723999983306" lon="12.00039553929018"><ele>264.0</ele><time>2026-03-23T15:40:22Z</time></trkpt><trkpt lat="43.20280681387729" lon="12.000558099409654"><ele>264.0</ele><time>2026-03-23T15:40:23Z</time></trkpt><trkpt lat="43.20288553642558" lon="12.00071493671004"><ele>264.0</ele><time>2026-03-23T15:40:24Z</time></trkpt><trkpt lat="43.20295568591493" lon="12.000863065014352"><ele>264.0</ele><time>2026-03-23T15:40:25Z</time></trkpt><trkpt lat="43.203037076213796" lon="12.001035089869417"><ele>264.0</ele><time>2026-03-23T15:40:26Z</time></trkpt><trkpt lat="43.203130195382634" lon="12.001221526875257"><ele>264.0</ele><time>2026-03-23T15:40:27Z</time></trkpt><trkpt lat="43.20321948945736" lon="12.001396391975426"><ele>264.0</ele><time>2026-03-23T15:40:28Z</time></trkpt><trkpt lat="43.203311834116725" lon="12.00157247754114"><ele>264.0</ele><time>2026-03-23T15:40:29Z</time></trkpt><trkpt lat="43.203408444657185" lon="12.001755219946675"><ele>264.0</ele><time>2026-03-23T15:40:30Z</time></trkpt><trkpt lat="43.203502193087466" lon="12.001933489363484"><ele>264.0</ele><time>2026-03-23T15:40:31Z</time></trkpt><trkpt lat="43.20359545201907" lon="12.002118974591411"><ele>264.0</ele><time>2026-03-23T15:40:32Z</time></trkpt><trkpt lat="43.2036898513685" lon="12.002305607003263"><ele>264.0</ele><time>2026-03-23T15:40:33Z</time></trkpt><trkpt lat="43.20377754739471" lon="12.002482530518567"><ele>263.75</ele><time>2026-03-23T15:40:34Z</time></trkpt><trkpt lat="43.2038519399299" lon="12.002646679857227"><ele>263.5</ele><time>2026-03-23T15:40:35Z</time></trkpt><trkpt lat="43.2039393090658" lon="12.00281930782902"><ele>263.25</ele><time>2026-03-23T15:40:36Z</time></trkpt><trkpt lat="43.20402139107168" lon="12.002979111566976"><ele>263.0</ele><time>2026-03-23T15:40:37Z</time></trkpt><trkpt lat="43.20409459230997" lon="12.003132658783219"><ele>263.0</ele><time>2026-03-23T15:40:38Z</time></trkpt><trkpt lat="43.2041533527473" lon="12.003265217429021"><ele>263.0</ele><time>2026-03-23T15:40:39Z</time></trkpt><trkpt lat="43.204204970842426" lon="12.003381517905051"><ele>263.0</ele><time>2026-03-23T15:40:40Z</time></trkpt><trkpt lat="43.20424184739272" lon="12.003458571220971"><ele>263.0</ele><time>2026-03-23T15:40:41Z</time></trkpt><trkpt lat="43.20428009454037" lon="12.003537628904601"><ele>263.0</ele><time>2026-03-23T15:40:42Z</time></trkpt><trkpt lat="43.20436683533814" lon="12.003705455753531"><ele>263.25</ele><time>2026-03-23T15:40:44Z</time></trkpt><trkpt lat="43.20445737528568" lon="12.00383521790038"><ele>263.5</ele><time>2026-03-23T15:40:45Z</time></trkpt><trkpt lat="43.204559696223114" lon="12.003964132347225"><ele>263.75</ele><time>2026-03-23T15:40:46Z</time></trkpt><trkpt lat="43.204663583614575" lon="12.004086118335842"><ele>264.0</ele><time>2026-03-23T15:40:47Z</time></trkpt><trkpt lat="43.20478782061164" lon="12.004218299360826"><ele>263.6666666666667</ele><time>2026-03-23T15:40:48Z</time></trkpt><trkpt lat="43.204921454488314" lon="12.004356222761812"><ele>263.33333333333337</ele><time>2026-03-23T15:40:49Z</time></trkpt><trkpt lat="43.2050420308577" lon="12.004480612763947"><ele>263.0</ele><time>2026-03-23T15:40:50Z</time></trkpt><trkpt lat="43.20517087231749" lon="12.004598640564254"><ele>263.0</ele><time>2026-03-23T15:40:51Z</time></trkpt><trkpt lat="43.205307378437695" lon="12.00472558779109"><ele>263.0</ele><time>2026-03-23T15:40:52Z</time></trkpt><trkpt lat="43.20544394495305" lon="12.00485800331709"><ele>263.0</ele><time>2026-03-23T15:40:53Z</time></trkpt><trkpt lat="43.20556230374604" lon="12.004995025724764"><ele>263.33333333333337</ele><time>2026-03-23T15:40:54Z</time></trkpt><trkpt lat="43.20567274361196" lon="12.005151954701608"><ele>263.6666666666667</ele><time>2026-03-23T15:40:55Z</time></trkpt><trkpt lat="43.205787817713095" lon="12.005333460885499"><ele>264.0</ele><time>2026-03-23T15:40:56Z</time></trkpt><trkpt lat="43.20589320381895" lon="12.005511937816223"><ele>264.0</ele><time>2026-03-23T15:40:57Z</time></trkpt><trkpt lat="43.20600559157095" lon="12.005687044177622"><ele>264.0</ele><time>2026-03-23T15:40:58Z</time></trkpt><trkpt lat="43.20611893287186" lon="12.005859855068943"><ele>264.0</ele><time>2026-03-23T15:40:59Z</time></trkpt><trkpt lat="43.20622167180421" lon="12.006047301221122"><ele>264.3333333333333</ele><time>2026-03-23T15:41:00Z</time></trkpt><trkpt lat="43.20631146398154" lon="12.006233897288244"><ele>264.66666666666663</ele><time>2026-03-23T15:41:01Z</time></trkpt><trkpt lat="43.20638793029862" lon="12.006402453303828"><ele>265.0</ele><time>2026-03-23T15:41:02Z</time></trkpt><trkpt lat="43.206481185882126" lon="12.00655949110222"><ele>265.75</ele><time>2026-03-23T15:41:03Z</time></trkpt><trkpt lat="43.206577238773676" lon="12.006705712823496"><ele>266.5</ele><time>2026-03-23T15:41:04Z</time></trkpt><trkpt lat="43.206669009685996" lon="12.006837329964299"><ele>267.25</ele><time>2026-03-23T15:41:05Z</time></trkpt><trkpt lat="43.206755651564116" lon="12.006955508839436"><ele>268.0</ele><time>2026-03-23T15:41:06Z</time></trkpt><trkpt lat="43.206836350540634" lon="12.007082007216058"><ele>268.0</ele><time>2026-03-23T15:41:07Z</time></trkpt><trkpt lat="43.20691921663287" lon="12.007222101641217"><ele>268.0</ele><time>2026-03-23T15:41:08Z</time></trkpt><trkpt lat="43.207013161624694" lon="12.0073720898179"><ele>268.0</ele><time>2026-03-23T15:41:09Z</time></trkpt><trkpt lat="43.20709709796537" lon="12.007532304303352"><ele>268.0</ele><time>2026-03-23T15:41:10Z</time></trkpt><trkpt lat="43.207158705179594" lon="12.00769866217999"><ele>267.75</ele><time>2026-03-23T15:41:11Z</time></trkpt><trkpt lat="43.20718889333809" lon="12.007893501870514"><ele>267.5</ele><time>2026-03-23T15:41:12Z</time></trkpt><trkpt lat="43.207206479015525" lon="12.008092605917959"><ele>267.25</ele><time>2026-03-23T15:41:13Z</time></trkpt><trkpt lat="43.207217169926274" lon="12.008260114102196"><ele>267.0</ele><time>2026-03-23T15:41:14Z</time></trkpt><trkpt lat="43.20725428376028" lon="12.008419285488221"><ele>266.75</ele><time>2026-03-23T15:41:15Z</time></trkpt><trkpt lat="43.207314374513366" lon="12.008559952382926"><ele>266.5</ele><time>2026-03-23T15:41:16Z</time></trkpt><trkpt lat="43.207392743670724" lon="12.00868902466736"><ele>266.25</ele><time>2026-03-23T15:41:17Z</time></trkpt><trkpt lat="43.207499691278315" lon="12.008804744840935"><ele>266.0</ele><time>2026-03-23T15:41:18Z</time></trkpt><trkpt lat="43.2076071983715" lon="12.008884104612106"><ele>266.33333333333337</ele><time>2026-03-23T15:41:19Z</time></trkpt><trkpt lat="43.2076951699128" lon="12.008944244642889"><ele>266.6666666666667</ele><time>2026-03-23T15:41:20Z</time></trkpt><trkpt lat="43.20775013867105" lon="12.009003071728639"><ele>267.0</ele><time>2026-03-23T15:41:21Z</time></trkpt><trkpt lat="43.20776222601301" lon="12.009136926081968"><ele>267.3333333333333</ele><time>2026-03-23T15:41:23Z</time></trkpt><trkpt lat="43.207713952354055" lon="12.009227167722779"><ele>267.66666666666663</ele><time>2026-03-23T15:41:24Z</time></trkpt><trkpt lat="43.207630653887584" lon="12.00924703830158"><ele>268.0</ele><time>2026-03-23T15:41:25Z</time></trkpt><trkpt lat="43.207538416448415" lon="12.009313912405393"><ele>267.75</ele><time>2026-03-23T15:41:26Z</time></trkpt><trkpt lat="43.207437684212074" lon="12.009400853186667"><ele>267.5</ele><time>2026-03-23T15:41:27Z</time></trkpt><trkpt lat="43.207316331023215" lon="12.009478941185488"><ele>267.25</ele><time>2026-03-23T15:41:28Z</time></trkpt><trkpt lat="43.2071947838747" lon="12.009567846488638"><ele>267.0</ele><time>2026-03-23T15:41:29Z</time></trkpt><trkpt lat="43.2070902351596" lon="12.00965149298592"><ele>267.0</ele><time>2026-03-23T15:41:30Z</time></trkpt><trkpt lat="43.20699807719151" lon="12.009729512029054"><ele>267.0</ele><time>2026-03-23T15:41:31Z</time></trkpt><trkpt lat="43.20690922989276" lon="12.00977008570257"><ele>267.0</ele><time>2026-03-23T15:41:32Z</time></trkpt><trkpt lat="43.20685353824909" lon="12.009832026171932"><ele>267.0</ele><time>2026-03-23T15:41:33Z</time></trkpt><trkpt lat="43.20679063326688" lon="12.009867572017443"><ele>267.0</ele><time>2026-03-23T15:41:34Z</time></trkpt><trkpt lat="43.20673037046091" lon="12.009905183849899"><ele>267.0</ele><time>2026-03-23T15:41:35Z</time></trkpt><trkpt lat="43.20667105863082" lon="12.009953360435965"><ele>267.2</ele><time>2026-03-23T15:41:36Z</time></trkpt><trkpt lat="43.20659751615282" lon="12.010007323385837"><ele>267.4</ele><time>2026-03-23T15:41:37Z</time></trkpt><trkpt lat="43.206499116203446" lon="12.010072117301762"><ele>267.6</ele><time>2026-03-23T15:41:38Z</time></trkpt><trkpt lat="43.20639004158122" lon="12.010145879747977"><ele>267.8</ele><time>2026-03-23T15:41:39Z</time></trkpt><trkpt lat="43.20626686173785" lon="12.010157334568728"><ele>268.0</ele><time>2026-03-23T15:41:40Z</time></trkpt><trkpt lat="43.20613892629582" lon="12.01015909948958"><ele>268.0</ele><time>2026-03-23T15:41:41Z</time></trkpt><trkpt lat="43.20602842852546" lon="12.010183018001822"><ele>268.0</ele><time>2026-03-23T15:41:42Z</time></trkpt><trkpt lat="43.20592912795338" lon="12.010169320437656"><ele>268.0</ele><time>2026-03-23T15:41:43Z</time></trkpt><trkpt lat="43.20582474110558" lon="12.010179723037474"><ele>268.0</ele><time>2026-03-23T15:41:44Z</time></trkpt><trkpt lat="43.205706614430646" lon="12.01019054196356"><ele>268.0</ele><time>2026-03-23T15:41:45Z</time></trkpt><trkpt lat="43.205585123490074" lon="12.010187653476974"><ele>267.25</ele><time>2026-03-23T15:41:46Z</time></trkpt><trkpt lat="43.20545278767259" lon="12.0101779111316"><ele>266.5</ele><time>2026-03-23T15:41:47Z</time></trkpt><trkpt lat="43.205337844894856" lon="12.010161571429167"><ele>265.75</ele><time>2026-03-23T15:41:48Z</time></trkpt><trkpt lat="43.20524003391727" lon="12.010120571580305"><ele>265.0</ele><time>2026-03-23T15:41:49Z</time></trkpt><trkpt lat="43.20513346758954" lon="12.010101916056085"><ele>265.0</ele><time>2026-03-23T15:41:50Z</time></trkpt><trkpt lat="43.2050410579809" lon="12.010087147241919"><ele>265.0</ele><time>2026-03-23T15:41:51Z</time></trkpt><trkpt lat="43.204970549263656" lon="12.010077889872088"><ele>265.0</ele><time>2026-03-23T15:41:52Z</time></trkpt><trkpt lat="43.204892983876526" lon="12.010068190620071"><ele>265.0</ele><time>2026-03-23T15:41:53Z</time></trkpt><trkpt lat="43.20479521252261" lon="12.010061189490768"><ele>265.0</ele><time>2026-03-23T15:41:54Z</time></trkpt><trkpt lat="43.20468069887064" lon="12.010053469474144"><ele>265.4</ele><time>2026-03-23T15:41:55Z</time></trkpt><trkpt lat="43.20457783056307" lon="12.01004539175904"><ele>265.8</ele><time>2026-03-23T15:41:56Z</time></trkpt><trkpt lat="43.204484689104355" lon="12.01003696355539"><ele>266.2</ele><time>2026-03-23T15:41:57Z</time></trkpt><trkpt lat="43.2043842762393" lon="12.010027877349412"><ele>266.6</ele><time>2026-03-23T15:41:58Z</time></trkpt><trkpt lat="43.20428174995772" lon="12.01001470859957"><ele>267.0</ele><time>2026-03-23T15:41:59Z</time></trkpt><trkpt lat="43.20417954279549" lon="12.010000722369204"><ele>267.0</ele><time>2026-03-23T15:42:00Z</time></trkpt><trkpt lat="43.2040762848679" lon="12.009983543542388"><ele>267.0</ele><time>2026-03-23T15:42:01Z</time></trkpt><trkpt lat="43.203961070039604" lon="12.009958231039606"><ele>267.0</ele><time>2026-03-23T15:42:02Z</time></trkpt><trkpt lat="43.203866829822665" lon="12.009929058820886"><ele>267.0</ele><time>2026-03-23T15:42:03Z</time></trkpt><trkpt lat="43.203778950747974" lon="12.009888204822223"><ele>267.0</ele><time>2026-03-23T15:42:04Z</time></trkpt><trkpt lat="43.20369531632412" lon="12.009835145036378"><ele>267.0</ele><time>2026-03-23T15:42:05Z</time></trkpt><trkpt lat="43.203630592327926" lon="12.009771965891915"><ele>267.0</ele><time>2026-03-23T15:42:06Z</time></trkpt><trkpt lat="43.20357077599476" lon="12.009713077315034"><ele>267.0</ele><time>2026-03-23T15:42:07Z</time></trkpt><trkpt lat="43.20350461299673" lon="12.009643376711109"><ele>267.0</ele><time>2026-03-23T15:42:08Z</time></trkpt><trkpt lat="43.20342840881385" lon="12.009555760968292"><ele>267.0</ele><time>2026-03-23T15:42:09Z</time></trkpt><trkpt lat="43.203349213108034" lon="12.009466579053605"><ele>267.0</ele><time>2026-03-23T15:42:10Z</time></trkpt><trkpt lat="43.20328767008637" lon="12.009398167980398"><ele>267.0</ele><time>2026-03-23T15:42:11Z</time></trkpt><trkpt lat="43.20323150985381" lon="12.009335782424472"><ele>267.0</ele><time>2026-03-23T15:42:12Z</time></trkpt><trkpt lat="43.203170262483184" lon="12.00926810849698"><ele>267.0</ele><time>2026-03-23T15:42:13Z</time></trkpt><trkpt lat="43.20310039092596" lon="12.009190905557986"><ele>267.0</ele><time>2026-03-23T15:42:14Z</time></trkpt><trkpt lat="43.20302436839974" lon="12.009106906256246"><ele>267.0</ele><time>2026-03-23T15:42:15Z</time></trkpt><trkpt lat="43.20295577738818" lon="12.009032588001519"><ele>267.0</ele><time>2026-03-23T15:42:16Z</time></trkpt><trkpt lat="43.20289432518665" lon="12.00897039906173"><ele>266.4</ele><time>2026-03-23T15:42:17Z</time></trkpt><trkpt lat="43.20281121799966" lon="12.008887513890386"><ele>265.79999999999995</ele><time>2026-03-23T15:42:18Z</time></trkpt><trkpt lat="43.202736898460934" lon="12.008823651513039"><ele>265.2</ele><time>2026-03-23T15:42:19Z</time></trkpt><trkpt lat="43.2026578053535" lon="12.00876894994196"><ele>264.59999999999997</ele><time>2026-03-23T15:42:20Z</time></trkpt><trkpt lat="43.202568554299646" lon="12.008724721562945"><ele>264.0</ele><time>2026-03-23T15:42:21Z</time></trkpt><trkpt lat="43.20248209213729" lon="12.008681354123576"><ele>264.0</ele><time>2026-03-23T15:42:22Z</time></trkpt><trkpt lat="43.202400599180386" lon="12.008640479097416"><ele>264.0</ele><time>2026-03-23T15:42:23Z</time></trkpt><trkpt lat="43.20231364015962" lon="12.0086207543338"><ele>264.0</ele><time>2026-03-23T15:42:24Z</time></trkpt><trkpt lat="43.2022269725806" lon="12.008555244773193"><ele>264.0</ele><time>2026-03-23T15:42:25Z</time></trkpt><trkpt lat="43.202135957923716" lon="12.008510631924933"><ele>264.0</ele><time>2026-03-23T15:42:26Z</time></trkpt><trkpt lat="43.20204120249771" lon="12.008463729739752"><ele>263.8</ele><time>2026-03-23T15:42:27Z</time></trkpt><trkpt lat="43.2019448048749" lon="12.008438100175242"><ele>263.59999999999997</ele><time>2026-03-23T15:42:28Z</time></trkpt><trkpt lat="43.20186142270725" lon="12.008369213723164"><ele>263.4</ele><time>2026-03-23T15:42:29Z</time></trkpt><trkpt lat="43.20177094498609" lon="12.008317450031006"><ele>263.2</ele><time>2026-03-23T15:42:30Z</time></trkpt><trkpt lat="43.20168737527211" lon="12.008265721103053"><ele>263.0</ele><time>2026-03-23T15:42:31Z</time></trkpt><trkpt lat="43.20160351953738" lon="12.008204840595361"><ele>263.0</ele><time>2026-03-23T15:42:32Z</time></trkpt><trkpt lat="43.20152797455031" lon="12.008148646914211"><ele>263.0</ele><time>2026-03-23T15:42:33Z</time></trkpt><trkpt lat="43.201444840022624" lon="12.00810807604761"><ele>263.0</ele><time>2026-03-23T15:42:34Z</time></trkpt><trkpt lat="43.20136456639964" lon="12.008090989393603"><ele>263.0</ele><time>2026-03-23T15:42:35Z</time></trkpt><trkpt lat="43.20129608330982" lon="12.008065135482774"><ele>263.0</ele><time>2026-03-23T15:42:36Z</time></trkpt><trkpt lat="43.20121430000196" lon="12.008047850773755"><ele>263.0</ele><time>2026-03-23T15:42:37Z</time></trkpt><trkpt lat="43.201129289573366" lon="12.008027813225198"><ele>263.0</ele><time>2026-03-23T15:42:38Z</time></trkpt><trkpt lat="43.20102982360458" lon="12.00801183902045"><ele>263.0</ele><time>2026-03-23T15:42:39Z</time></trkpt><trkpt lat="43.20090726258927" lon="12.007970305739693"><ele>263.0</ele><time>2026-03-23T15:42:40Z</time></trkpt><trkpt lat="43.20081999024914" lon="12.007964078845985"><ele>263.0</ele><time>2026-03-23T15:42:41Z</time></trkpt><trkpt lat="43.20073332438165" lon="12.007908265625021"><ele>263.0</ele><time>2026-03-23T15:42:42Z</time></trkpt><trkpt lat="43.20062243342232" lon="12.007858180246556"><ele>262.75</ele><time>2026-03-23T15:42:43Z</time></trkpt><trkpt lat="43.20052553452305" lon="12.0078018666904"><ele>262.5</ele><time>2026-03-23T15:42:44Z</time></trkpt><trkpt lat="43.20041047111576" lon="12.007749053718033"><ele>262.25</ele><time>2026-03-23T15:42:45Z</time></trkpt><trkpt lat="43.20031504046481" lon="12.007664635207961"><ele>262.0</ele><time>2026-03-23T15:42:46Z</time></trkpt><trkpt lat="43.20021183906544" lon="12.007602448348715"><ele>262.0</ele><time>2026-03-23T15:42:47Z</time></trkpt><trkpt lat="43.200101251041424" lon="12.007539838220517"><ele>262.0</ele><time>2026-03-23T15:42:48Z</time></trkpt><trkpt lat="43.19999328926555" lon="12.00748343129712"><ele>262.0</ele><time>2026-03-23T15:42:49Z</time></trkpt><trkpt lat="43.19987381609962" lon="12.00742775570006"><ele>262.0</ele><time>2026-03-23T15:42:50Z</time></trkpt><trkpt lat="43.19974662803727" lon="12.007376506053763"><ele>262.25</ele><time>2026-03-23T15:42:51Z</time></trkpt><trkpt lat="43.19961267708422" lon="12.007328341867636"><ele>262.5</ele><time>2026-03-23T15:42:52Z</time></trkpt><trkpt lat="43.19947726178985" lon="12.007306438485854"><ele>262.75</ele><time>2026-03-23T15:42:53Z</time></trkpt><trkpt lat="43.199345188542914" lon="12.007264267871122"><ele>263.0</ele><time>2026-03-23T15:42:54Z</time></trkpt><trkpt lat="43.199234343296524" lon="12.00720633251648"><ele>263.0</ele><time>2026-03-23T15:42:55Z</time></trkpt><trkpt lat="43.19912717881724" lon="12.007197305218053"><ele>263.0</ele><time>2026-03-23T15:42:56Z</time></trkpt><trkpt lat="43.19903287575295" lon="12.007175182216388"><ele>263.0</ele><time>2026-03-23T15:42:57Z</time></trkpt><trkpt lat="43.19892386956979" lon="12.007158517704555"><ele>263.0</ele><time>2026-03-23T15:42:58Z</time></trkpt><trkpt lat="43.198805061037305" lon="12.007154598056017"><ele>263.0</ele><time>2026-03-23T15:42:59Z</time></trkpt><trkpt lat="43.198679682557675" lon="12.007165713448602"><ele>263.0</ele><time>2026-03-23T15:43:00Z</time></trkpt><trkpt lat="43.198550996891115" lon="12.007189185711784"><ele>263.0</ele><time>2026-03-23T15:43:01Z</time></trkpt><trkpt lat="43.19840804923135" lon="12.007217755877008"><ele>263.0</ele><time>2026-03-23T15:43:02Z</time></trkpt><trkpt lat="43.1982755331029" lon="12.007250195691544"><ele>263.0</ele><time>2026-03-23T15:43:03Z</time></trkpt><trkpt lat="43.19818537870377" lon="12.007303444547928"><ele>262.8</ele><time>2026-03-23T15:43:04Z</time></trkpt><trkpt lat="43.19807186153366" lon="12.007358716584191"><ele>262.6</ele><time>2026-03-23T15:43:05Z</time></trkpt><trkpt lat="43.19794778391809" lon="12.007409875883445"><ele>262.4</ele><time>2026-03-23T15:43:06Z</time></trkpt><trkpt lat="43.19785083600649" lon="12.007459746334609"><ele>262.2</ele><time>2026-03-23T15:43:07Z</time></trkpt><trkpt lat="43.19776992141783" lon="12.007503719034537"><ele>262.0</ele><time>2026-03-23T15:43:08Z</time></trkpt><trkpt lat="43.197695687491425" lon="12.00752822559266"><ele>262.0</ele><time>2026-03-23T15:43:09Z</time></trkpt><trkpt lat="43.19763282216506" lon="12.007569206567869"><ele>262.0</ele><time>2026-03-23T15:43:10Z</time></trkpt><trkpt lat="43.19754022831543" lon="12.007601726910726"><ele>262.0</ele><time>2026-03-23T15:43:12Z</time></trkpt><trkpt lat="43.197448199309235" lon="12.00765615251782"><ele>262.0</ele><time>2026-03-23T15:43:14Z</time></trkpt><trkpt lat="43.19737545450681" lon="12.007679829200944"><ele>262.0</ele><time>2026-03-23T15:43:15Z</time></trkpt><trkpt lat="43.19728591163658" lon="12.007701755438891"><ele>262.0</ele><time>2026-03-23T15:43:16Z</time></trkpt><trkpt lat="43.197181271815865" lon="12.007751272667878"><ele>262.0</ele><time>2026-03-23T15:43:17Z</time></trkpt><trkpt lat="43.19706787776252" lon="12.007774568825369"><ele>262.0</ele><time>2026-03-23T15:43:18Z</time></trkpt><trkpt lat="43.19697908685468" lon="12.007809723773796"><ele>262.0</ele><time>2026-03-23T15:43:19Z</time></trkpt><trkpt lat="43.196904843910346" lon="12.007839118840838"><ele>262.0</ele><time>2026-03-23T15:43:20Z</time></trkpt><trkpt lat="43.1967837812056" lon="12.007907608653813"><ele>262.0</ele><time>2026-03-23T15:43:22Z</time></trkpt><trkpt lat="43.19670965473122" lon="12.007916400148698"><ele>262.0</ele><time>2026-03-23T15:43:23Z</time></trkpt><trkpt lat="43.19661475191159" lon="12.00795397503401"><ele>262.0</ele><time>2026-03-23T15:43:24Z</time></trkpt><trkpt lat="43.19651485986481" lon="12.007993525340067"><ele>262.0</ele><time>2026-03-23T15:43:25Z</time></trkpt><trkpt lat="43.196415938382" lon="12.008046974173208"><ele>262.0</ele><time>2026-03-23T15:43:26Z</time></trkpt><trkpt lat="43.1963027015336" lon="12.008093319463288"><ele>262.0</ele><time>2026-03-23T15:43:27Z</time></trkpt><trkpt lat="43.19620244777787" lon="12.008134734234956"><ele>262.0</ele><time>2026-03-23T15:43:28Z</time></trkpt><trkpt lat="43.196107083466586" lon="12.008172484422914"><ele>262.0</ele><time>2026-03-23T15:43:29Z</time></trkpt><trkpt lat="43.19600225712479" lon="12.008217704857822"><ele>262.0</ele><time>2026-03-23T15:43:30Z</time></trkpt><trkpt lat="43.19589810998864" lon="12.008240092456596"><ele>262.0</ele><time>2026-03-23T15:43:31Z</time></trkpt><trkpt lat="43.19580179978915" lon="12.008278671170252"><ele>262.0</ele><time>2026-03-23T15:43:32Z</time></trkpt><trkpt lat="43.19570800098366" lon="12.008316243905032"><ele>261.8</ele><time>2026-03-23T15:43:33Z</time></trkpt><trkpt lat="43.19562096858312" lon="12.00835172961382"><ele>261.6</ele><time>2026-03-23T15:43:34Z</time></trkpt><trkpt lat="43.19552227509897" lon="12.008392506343789"><ele>261.40000000000003</ele><time>2026-03-23T15:43:35Z</time></trkpt><trkpt lat="43.195425087530474" lon="12.008446065437813"><ele>261.2</ele><time>2026-03-23T15:43:36Z</time></trkpt><trkpt lat="43.19532662233162" lon="12.008489788314765"><ele>261.0</ele><time>2026-03-23T15:43:37Z</time></trkpt><trkpt lat="43.19521242538286" lon="12.008537880753565"><ele>261.0</ele><time>2026-03-23T15:43:38Z</time></trkpt><trkpt lat="43.19510642743255" lon="12.00858316668204"><ele>261.0</ele><time>2026-03-23T15:43:39Z</time></trkpt><trkpt lat="43.19498620954269" lon="12.008632478175242"><ele>261.0</ele><time>2026-03-23T15:43:40Z</time></trkpt><trkpt lat="43.19486800421186" lon="12.008682184025053"><ele>261.0</ele><time>2026-03-23T15:43:41Z</time></trkpt><trkpt lat="43.1947519142116" lon="12.008706744471688"><ele>260.8333333333333</ele><time>2026-03-23T15:43:42Z</time></trkpt><trkpt lat="43.1946547370861" lon="12.008757548740514"><ele>260.6666666666667</ele><time>2026-03-23T15:43:43Z</time></trkpt><trkpt lat="43.19457686514407" lon="12.008789871554347"><ele>260.5</ele><time>2026-03-23T15:43:44Z</time></trkpt><trkpt lat="43.19451377320494" lon="12.00881307155655"><ele>260.33333333333337</ele><time>2026-03-23T15:43:45Z</time></trkpt><trkpt lat="43.19443037826857" lon="12.008844674343102"><ele>260.1666666666667</ele><time>2026-03-23T15:43:47Z</time></trkpt><trkpt lat="43.19436266401697" lon="12.00884614893741"><ele>260.0</ele><time>2026-03-23T15:46:00Z</time></trkpt><trkpt lat="43.19426754266828" lon="12.008910744198106"><ele>260.0</ele><time>2026-03-23T15:46:02Z</time></trkpt><trkpt lat="43.19419233378486" lon="12.008921272599595"><ele>260.0</ele><time>2026-03-23T15:46:03Z</time></trkpt><trkpt lat="43.194120990615005" lon="12.008968645725293"><ele>260.0</ele><time>2026-03-23T15:46:04Z</time></trkpt><trkpt lat="43.19403282284748" lon="12.00900420335293"><ele>260.0</ele><time>2026-03-23T15:46:05Z</time></trkpt><trkpt lat="43.19394411577309" lon="12.009038205176067"><ele>260.0</ele><time>2026-03-23T15:46:06Z</time></trkpt><trkpt lat="43.19384526637345" lon="12.00905787776081"><ele>260.0</ele><time>2026-03-23T15:46:07Z</time></trkpt><trkpt lat="43.193749187075554" lon="12.009096297153675"><ele>260.2</ele><time>2026-03-23T15:46:08Z</time></trkpt><trkpt lat="43.19364986680473" lon="12.009136012544195"><ele>260.4</ele><time>2026-03-23T15:46:09Z</time></trkpt><trkpt lat="43.1935461852871" lon="12.009177471951583"><ele>260.6</ele><time>2026-03-23T15:46:10Z</time></trkpt><trkpt lat="43.19343327633086" lon="12.009224488527309"><ele>260.8</ele><time>2026-03-23T15:46:11Z</time></trkpt><trkpt lat="43.19332577938988" lon="12.009291179609393"><ele>261.0</ele><time>2026-03-23T15:46:12Z</time></trkpt><trkpt lat="43.19320975603819" lon="12.00934434364246"><ele>261.5</ele><time>2026-03-23T15:46:13Z</time></trkpt><trkpt lat="43.19309535575825" lon="12.00939424856494"><ele>262.0</ele><time>2026-03-23T15:46:14Z</time></trkpt><trkpt lat="43.19298147885705" lon="12.009436507279482"><ele>262.5</ele><time>2026-03-23T15:46:15Z</time></trkpt><trkpt lat="43.19287683740362" lon="12.00947845690971"><ele>263.0</ele><time>2026-03-23T15:46:16Z</time></trkpt><trkpt lat="43.19277134854152" lon="12.009521698336446"><ele>263.0</ele><time>2026-03-23T15:46:17Z</time></trkpt><trkpt lat="43.192665159060404" lon="12.00954706203304"><ele>263.0</ele><time>2026-03-23T15:46:18Z</time></trkpt><trkpt lat="43.192556187911" lon="12.009590792871421"><ele>263.0</ele><time>2026-03-23T15:46:19Z</time></trkpt><trkpt lat="43.19245404621643" lon="12.009631783047162"><ele>263.0</ele><time>2026-03-23T15:46:20Z</time></trkpt><trkpt lat="43.19235520122506" lon="12.00967145015095"><ele>263.0</ele><time>2026-03-23T15:46:21Z</time></trkpt><trkpt lat="43.19226807786625" lon="12.009706415113689"><ele>263.1666666666667</ele><time>2026-03-23T15:46:22Z</time></trkpt><trkpt lat="43.19218852888037" lon="12.009738338590322"><ele>263.33333333333337</ele><time>2026-03-23T15:46:23Z</time></trkpt><trkpt lat="43.19211709358058" lon="12.009767006052193"><ele>263.5</ele><time>2026-03-23T15:46:24Z</time></trkpt><trkpt lat="43.19203632425325" lon="12.009799419271976"><ele>263.6666666666667</ele><time>2026-03-23T15:46:25Z</time></trkpt><trkpt lat="43.191941396763475" lon="12.009837514253533"><ele>263.8333333333333</ele><time>2026-03-23T15:46:26Z</time></trkpt><trkpt lat="43.19186228426317" lon="12.009869262633963"><ele>264.0</ele><time>2026-03-23T15:46:27Z</time></trkpt><trkpt lat="43.191781407710266" lon="12.009901719027836"><ele>264.0</ele><time>2026-03-23T15:46:28Z</time></trkpt><trkpt lat="43.19170018415214" lon="12.009934314539851"><ele>264.0</ele><time>2026-03-23T15:46:29Z</time></trkpt><trkpt lat="43.191627766189825" lon="12.009983884913035"><ele>264.0</ele><time>2026-03-23T15:46:30Z</time></trkpt><trkpt lat="43.19155690854184" lon="12.01000604071224"><ele>264.0</ele><time>2026-03-23T15:46:31Z</time></trkpt><trkpt lat="43.19147338924021" lon="12.010045783466733"><ele>264.0</ele><time>2026-03-23T15:46:33Z</time></trkpt><trkpt lat="43.19133761582853" lon="12.010078637520275"><ele>264.0</ele><time>2026-03-23T15:46:46Z</time></trkpt><trkpt lat="43.19123340357972" lon="12.010142323582901"><ele>264.0</ele><time>2026-03-23T15:46:47Z</time></trkpt><trkpt lat="43.19112462314387" lon="12.010183195905947"><ele>264.0</ele><time>2026-03-23T15:46:48Z</time></trkpt><trkpt lat="43.190999651541134" lon="12.010223952433012"><ele>264.0</ele><time>2026-03-23T15:46:49Z</time></trkpt><trkpt lat="43.19088588533374" lon="12.010270348018647"><ele>264.0</ele><time>2026-03-23T15:46:50Z</time></trkpt><trkpt lat="43.19079382202234" lon="12.010305190944806"><ele>264.0</ele><time>2026-03-23T15:46:51Z</time></trkpt><trkpt lat="43.19069175677208" lon="12.010339859336161"><ele>264.0</ele><time>2026-03-23T15:46:52Z</time></trkpt><trkpt lat="43.19059245742548" lon="12.01038118808632"><ele>264.0</ele><time>2026-03-23T15:46:53Z</time></trkpt><trkpt lat="43.19049725635819" lon="12.010425151110212"><ele>264.0</ele><time>2026-03-23T15:46:54Z</time></trkpt><trkpt lat="43.19041075633254" lon="12.010459823429942"><ele>264.3333333333333</ele><time>2026-03-23T15:46:55Z</time></trkpt><trkpt lat="43.190324300682725" lon="12.010474808240872"><ele>264.6666666666667</ele><time>2026-03-23T15:46:56Z</time></trkpt><trkpt lat="43.1902609504554" lon="12.010532053815654"><ele>265.0</ele><time>2026-03-23T15:46:57Z</time></trkpt><trkpt lat="43.190209383335876" lon="12.01058658369322"><ele>265.33333333333337</ele><time>2026-03-23T15:46:58Z</time></trkpt><trkpt lat="43.19016398407716" lon="12.010648333376478"><ele>265.6666666666667</ele><time>2026-03-23T15:46:59Z</time></trkpt><trkpt lat="43.19008730997131" lon="12.010733948096167"><ele>266.0</ele><time>2026-03-23T15:47:01Z</time></trkpt><trkpt lat="43.190013576837" lon="12.010737148778643"><ele>266.0</ele><time>2026-03-23T15:47:03Z</time></trkpt><trkpt lat="43.18994140775753" lon="12.010701044448913"><ele>266.0</ele><time>2026-03-23T15:47:05Z</time></trkpt><trkpt lat="43.18986899440033" lon="12.01071672839726"><ele>266.0</ele><time>2026-03-23T15:47:06Z</time></trkpt><trkpt lat="43.189796542886754" lon="12.010716441954846"><ele>266.0</ele><time>2026-03-23T15:47:07Z</time></trkpt><trkpt lat="43.18965142629811" lon="12.010727330701851"><ele>266.0</ele><time>2026-03-23T15:47:09Z</time></trkpt><trkpt lat="43.189536910677965" lon="12.010793203676139"><ele>265.6666666666667</ele><time>2026-03-23T15:47:10Z</time></trkpt><trkpt lat="43.18943648727104" lon="12.01084062172091"><ele>265.33333333333337</ele><time>2026-03-23T15:47:11Z</time></trkpt><trkpt lat="43.1893611033617" lon="12.01089398154684"><ele>265.0</ele><time>2026-03-23T15:47:12Z</time></trkpt><trkpt lat="43.18929672413068" lon="12.010903329809935"><ele>264.6666666666667</ele><time>2026-03-23T15:47:13Z</time></trkpt><trkpt lat="43.18922489531241" lon="12.010932693048563"><ele>264.3333333333333</ele><time>2026-03-23T15:47:14Z</time></trkpt><trkpt lat="43.189152955204854" lon="12.010938276010554"><ele>264.0</ele><time>2026-03-23T15:47:15Z</time></trkpt><trkpt lat="43.189079728782716" lon="12.01100184589097"><ele>264.0</ele><time>2026-03-23T15:47:16Z</time></trkpt><trkpt lat="43.18901315043198" lon="12.011024568469232"><ele>264.0</ele><time>2026-03-23T15:47:17Z</time></trkpt><trkpt lat="43.18893513246906" lon="12.011063269621031"><ele>264.0</ele><time>2026-03-23T15:47:18Z</time></trkpt><trkpt lat="43.188856304947706" lon="12.011079155808975"><ele>264.0</ele><time>2026-03-23T15:47:19Z</time></trkpt><trkpt lat="43.18873702627447" lon="12.011146215933794"><ele>264.0</ele><time>2026-03-23T15:47:21Z</time></trkpt><trkpt lat="43.188664241917806" lon="12.01117080902827"><ele>264.0</ele><time>2026-03-23T15:47:22Z</time></trkpt><trkpt lat="43.18860201273315" lon="12.011195145625994"><ele>264.1666666666667</ele><time>2026-03-23T15:47:23Z</time></trkpt><trkpt lat="43.188534641631236" lon="12.011220530470162"><ele>264.3333333333333</ele><time>2026-03-23T15:47:24Z</time></trkpt><trkpt lat="43.18846271881166" lon="12.01123095324603"><ele>264.5</ele><time>2026-03-23T15:47:25Z</time></trkpt><trkpt lat="43.18838788552654" lon="12.011284608763795"><ele>264.66666666666663</ele><time>2026-03-23T15:47:26Z</time></trkpt><trkpt lat="43.18830677499005" lon="12.011295858992069"><ele>264.8333333333333</ele><time>2026-03-23T15:47:27Z</time></trkpt><trkpt lat="43.18822945704024" lon="12.011328224124458"><ele>265.0</ele><time>2026-03-23T15:47:28Z</time></trkpt><trkpt lat="43.18813638289794" lon="12.011367184738706"><ele>265.0</ele><time>2026-03-23T15:47:29Z</time></trkpt><trkpt lat="43.18805688814337" lon="12.011424248304095"><ele>265.0</ele><time>2026-03-23T15:47:30Z</time></trkpt><trkpt lat="43.187983755224444" lon="12.011457325730095"><ele>265.0</ele><time>2026-03-23T15:47:31Z</time></trkpt><trkpt lat="43.1879058122058" lon="12.011489955107912"><ele>265.0</ele><time>2026-03-23T15:47:32Z</time></trkpt><trkpt lat="43.18781824579003" lon="12.011541579713947"><ele>265.0</ele><time>2026-03-23T15:47:33Z</time></trkpt><trkpt lat="43.18773522136769" lon="12.011586512673151"><ele>265.0</ele><time>2026-03-23T15:47:34Z</time></trkpt><trkpt lat="43.18765704438345" lon="12.011638424475402"><ele>265.16666666666663</ele><time>2026-03-23T15:47:35Z</time></trkpt><trkpt lat="43.187571586047795" lon="12.011674224264254"><ele>265.3333333333333</ele><time>2026-03-23T15:47:36Z</time></trkpt><trkpt lat="43.18750946776521" lon="12.011717148343028"><ele>265.5</ele><time>2026-03-23T15:47:37Z</time></trkpt><trkpt lat="43.187458108529924" lon="12.011777801405133"><ele>265.6666666666667</ele><time>2026-03-23T15:47:38Z</time></trkpt><trkpt lat="43.187377205776514" lon="12.011830678176814"><ele>265.83333333333337</ele><time>2026-03-23T15:47:39Z</time></trkpt><trkpt lat="43.187296860593875" lon="12.011883594767902"><ele>266.0</ele><time>2026-03-23T15:47:40Z</time></trkpt><trkpt lat="43.187233921765866" lon="12.011936598641453"><ele>265.6666666666667</ele><time>2026-03-23T15:47:41Z</time></trkpt><trkpt lat="43.18716118686012" lon="12.011984598376841"><ele>265.33333333333337</ele><time>2026-03-23T15:47:42Z</time></trkpt><trkpt lat="43.18708843266744" lon="12.012033925658631"><ele>265.0</ele><time>2026-03-23T15:47:43Z</time></trkpt><trkpt lat="43.18701169607721" lon="12.012086763224909"><ele>264.6666666666667</ele><time>2026-03-23T15:47:44Z</time></trkpt><trkpt lat="43.18694305196704" lon="12.012139245250413"><ele>264.3333333333333</ele><time>2026-03-23T15:47:45Z</time></trkpt><trkpt lat="43.18687548426728" lon="12.01220114390463"><ele>264.0</ele><time>2026-03-23T15:47:46Z</time></trkpt><trkpt lat="43.186795783118015" lon="12.01225070956757"><ele>264.0</ele><time>2026-03-23T15:47:47Z</time></trkpt><trkpt lat="43.186720400308516" lon="12.012299172668472"><ele>264.0</ele><time>2026-03-23T15:47:48Z</time></trkpt><trkpt lat="43.1866508575001" lon="12.012335525463557"><ele>264.0</ele><time>2026-03-23T15:47:49Z</time></trkpt><trkpt lat="43.186572712978354" lon="12.012390325585805"><ele>264.0</ele><time>2026-03-23T15:47:50Z</time></trkpt><trkpt lat="43.186498701209196" lon="12.01243350022334"><ele>264.0</ele><time>2026-03-23T15:47:51Z</time></trkpt><trkpt lat="43.186439332446405" lon="12.012471193667125"><ele>264.0</ele><time>2026-03-23T15:47:52Z</time></trkpt><trkpt lat="43.18635925954269" lon="12.012515529787084"><ele>264.2</ele><time>2026-03-23T15:47:54Z</time></trkpt><trkpt lat="43.1862921633306" lon="12.012437107796803"><ele>264.4</ele><time>2026-03-23T15:47:58Z</time></trkpt><trkpt lat="43.18627504877579" lon="12.012278403949368"><ele>264.6</ele><time>2026-03-23T15:48:00Z</time></trkpt><trkpt lat="43.18626080586268" lon="12.01217924238078"><ele>264.8</ele><time>2026-03-23T15:48:01Z</time></trkpt><trkpt lat="43.18623016297482" lon="12.012026645815668"><ele>265.0</ele><time>2026-03-23T15:48:03Z</time></trkpt><trkpt lat="43.18620943197938" lon="12.01190012105922"><ele>265.0</ele><time>2026-03-23T15:48:05Z</time></trkpt><trkpt lat="43.18618486920364" lon="12.011760767316066"><ele>265.0</ele><time>2026-03-23T15:48:07Z</time></trkpt><trkpt lat="43.18616090452152" lon="12.0115985069385"><ele>265.0</ele><time>2026-03-23T15:48:09Z</time></trkpt><trkpt lat="43.186144902681534" lon="12.01151386449509"><ele>265.0</ele><time>2026-03-23T15:48:10Z</time></trkpt><trkpt lat="43.18611626736238" lon="12.011363941334777"><ele>265.0</ele><time>2026-03-23T15:48:12Z</time></trkpt><trkpt lat="43.18610073510729" lon="12.011275667001803"><ele>264.8333333333333</ele><time>2026-03-23T15:48:13Z</time></trkpt><trkpt lat="43.18608147218083" lon="12.011174097582046"><ele>264.66666666666663</ele><time>2026-03-23T15:48:14Z</time></trkpt><trkpt lat="43.1860630211139" lon="12.011078681696446"><ele>264.5</ele><time>2026-03-23T15:48:15Z</time></trkpt><trkpt lat="43.186042070106275" lon="12.010982239842988"><ele>264.3333333333333</ele><time>2026-03-23T15:48:16Z</time></trkpt><trkpt lat="43.18602852696363" lon="12.01089693212814"><ele>264.1666666666667</ele><time>2026-03-23T15:48:17Z</time></trkpt><trkpt lat="43.185997757089616" lon="12.010758906919785"><ele>264.0</ele><time>2026-03-23T15:48:19Z</time></trkpt><trkpt lat="43.18597316182676" lon="12.010617295020198"><ele>264.2</ele><time>2026-03-23T15:48:21Z</time></trkpt><trkpt lat="43.18595029772922" lon="12.010481715056633"><ele>264.4</ele><time>2026-03-23T15:48:23Z</time></trkpt><trkpt lat="43.18592219681874" lon="12.01030145736137"><ele>264.6</ele><time>2026-03-23T15:48:25Z</time></trkpt><trkpt lat="43.185891856994424" lon="12.010128328688"><ele>264.8</ele><time>2026-03-23T15:48:27Z</time></trkpt><trkpt lat="43.18587675990597" lon="12.010027333198932"><ele>265.0</ele><time>2026-03-23T15:48:28Z</time></trkpt><trkpt lat="43.18586064170566" lon="12.009921336454335"><ele>265.0</ele><time>2026-03-23T15:48:29Z</time></trkpt><trkpt lat="43.18584299070637" lon="12.00983056949233"><ele>265.0</ele><time>2026-03-23T15:48:30Z</time></trkpt><trkpt lat="43.18582012869554" lon="12.009662153110007"><ele>265.0</ele><time>2026-03-23T15:48:32Z</time></trkpt><trkpt lat="43.18579837535974" lon="12.009576136490928"><ele>265.0</ele><time>2026-03-23T15:48:33Z</time></trkpt><trkpt lat="43.185779347140475" lon="12.009493241773429"><ele>265.0</ele><time>2026-03-23T15:48:34Z</time></trkpt><trkpt lat="43.18575228544718" lon="12.009363536407353"><ele>265.0</ele><time>2026-03-23T15:48:36Z</time></trkpt><trkpt lat="43.18573336729875" lon="12.009279551360569"><ele>265.0</ele><time>2026-03-23T15:48:37Z</time></trkpt><trkpt lat="43.185684491740325" lon="12.009197510787322"><ele>265.0</ele><time>2026-03-23T15:48:39Z</time></trkpt><trkpt lat="43.18559650988878" lon="12.009183724802513"><ele>265.0</ele><time>2026-03-23T15:48:41Z</time></trkpt><trkpt lat="43.1855326920525" lon="12.009202322348004"><ele>265.0</ele><time>2026-03-23T15:48:42Z</time></trkpt><trkpt lat="43.185409748625105" lon="12.00924741922817"><ele>265.0</ele><time>2026-03-23T15:48:44Z</time></trkpt><trkpt lat="43.18533300619012" lon="12.00926924636752"><ele>265.0</ele><time>2026-03-23T15:48:45Z</time></trkpt><trkpt lat="43.18524795008585" lon="12.009289819845527"><ele>265.0</ele><time>2026-03-23T15:48:46Z</time></trkpt><trkpt lat="43.18512326595436" lon="12.009318546819753"><ele>265.0</ele><time>2026-03-23T15:48:48Z</time></trkpt><trkpt lat="43.1850055675416" lon="12.009365354579138"><ele>265.0</ele><time>2026-03-23T15:48:50Z</time></trkpt><trkpt lat="43.184923133168766" lon="12.009393995170585"><ele>265.0</ele><time>2026-03-23T15:48:52Z</time></trkpt><trkpt lat="43.18484200798157" lon="12.009359489605771"><ele>265.0</ele><time>2026-03-23T15:48:56Z</time></trkpt><trkpt lat="43.18481994196218" lon="12.00927759591343"><ele>264.8</ele><time>2026-03-23T15:48:58Z</time></trkpt><trkpt lat="43.184810955190535" lon="12.009177184510573"><ele>264.6</ele><time>2026-03-23T15:49:00Z</time></trkpt><trkpt lat="43.18479179200845" lon="12.009045204251942"><ele>264.4</ele><time>2026-03-23T15:49:04Z</time></trkpt><trkpt lat="43.18476526839739" lon="12.008963375975405"><ele>264.2</ele><time>2026-03-23T15:49:05Z</time></trkpt><trkpt lat="43.18472654571087" lon="12.008790643138054"><ele>264.0</ele><time>2026-03-23T15:49:07Z</time></trkpt><trkpt lat="43.18470343556288" lon="12.00868124389848"><ele>264.3333333333333</ele><time>2026-03-23T15:49:08Z</time></trkpt><trkpt lat="43.18467160582502" lon="12.008538731416282"><ele>264.6666666666667</ele><time>2026-03-23T15:49:10Z</time></trkpt><trkpt lat="43.18464687734928" lon="12.008431159317114"><ele>265.0</ele><time>2026-03-23T15:49:12Z</time></trkpt><trkpt lat="43.18463237007901" lon="12.008336343879565"><ele>265.33333333333337</ele><time>2026-03-23T15:49:14Z</time></trkpt><trkpt lat="43.1846134234998" lon="12.008253310452226"><ele>265.6666666666667</ele><time>2026-03-23T15:49:17Z</time></trkpt><trkpt lat="43.18461970413153" lon="12.008144399104008"><ele>266.0</ele><time>2026-03-23T15:49:20Z</time></trkpt><trkpt lat="43.18459675140852" lon="12.008045234072277"><ele>266.0</ele><time>2026-03-23T15:49:22Z</time></trkpt><trkpt lat="43.18456757520175" lon="12.007948794285157"><ele>266.0</ele><time>2026-03-23T15:49:24Z</time></trkpt><trkpt lat="43.18454623188712" lon="12.007844912572194"><ele>266.0</ele><time>2026-03-23T15:49:26Z</time></trkpt><trkpt lat="43.18452810755291" lon="12.007750730101513"><ele>266.0</ele><time>2026-03-23T15:49:28Z</time></trkpt><trkpt lat="43.18450118738832" lon="12.007622365305652"><ele>266.0</ele><time>2026-03-23T15:49:31Z</time></trkpt><trkpt lat="43.184478687422896" lon="12.007518760881373"><ele>266.0</ele><time>2026-03-23T15:49:33Z</time></trkpt><trkpt lat="43.184441684882344" lon="12.007389184825508"><ele>266.0</ele><time>2026-03-23T15:49:36Z</time></trkpt><trkpt lat="43.18437812661081" lon="12.007307779051674"><ele>266.0</ele><time>2026-03-23T15:49:39Z</time></trkpt><trkpt lat="43.18434624903634" lon="12.007162313218997"><ele>266.0</ele><time>2026-03-23T15:49:41Z</time></trkpt><trkpt lat="43.18431864566554" lon="12.007033321505197"><ele>266.0</ele><time>2026-03-23T15:49:43Z</time></trkpt><trkpt lat="43.184298583475524" lon="12.006945741105671"><ele>266.0</ele><time>2026-03-23T15:49:46Z</time></trkpt><trkpt lat="43.18426407870399" lon="12.00681955283495"><ele>266.0</ele><time>2026-03-23T15:49:49Z</time></trkpt><trkpt lat="43.184246016354706" lon="12.006734721548609"><ele>266.0</ele><time>2026-03-23T15:49:50Z</time></trkpt><trkpt lat="43.1842118949092" lon="12.00660364255396"><ele>266.0</ele><time>2026-03-23T15:49:52Z</time></trkpt><trkpt lat="43.184183945705435" lon="12.006471315124385"><ele>266.0</ele><time>2026-03-23T15:49:54Z</time></trkpt><trkpt lat="43.18414235316375" lon="12.006308265553132"><ele>266.0</ele><time>2026-03-23T15:49:56Z</time></trkpt><trkpt lat="43.184120206422776" lon="12.006224380551094"><ele>266.0</ele><time>2026-03-23T15:49:57Z</time></trkpt><trkpt lat="43.18410115159711" lon="12.006136954866408"><ele>266.0</ele><time>2026-03-23T15:49:58Z</time></trkpt><trkpt lat="43.184083042979424" lon="12.00605095541975"><ele>266.0</ele><time>2026-03-23T15:49:59Z</time></trkpt><trkpt lat="43.18405753319394" lon="12.005934447406958"><ele>266.0</ele><time>2026-03-23T15:50:01Z</time></trkpt><trkpt lat="43.18403731823116" lon="12.005844027614822"><ele>266.0</ele><time>2026-03-23T15:50:03Z</time></trkpt><trkpt lat="43.18401978319196" lon="12.005739854427032"><ele>266.0</ele><time>2026-03-23T15:50:05Z</time></trkpt><trkpt lat="43.18399405014017" lon="12.005632841863132"><ele>266.2</ele><time>2026-03-23T15:50:07Z</time></trkpt><trkpt lat="43.18397754777627" lon="12.005528845644347"><ele>266.40000000000003</ele><time>2026-03-23T15:50:09Z</time></trkpt><trkpt lat="43.18395657739888" lon="12.005432580431572"><ele>266.6</ele><time>2026-03-23T15:50:11Z</time></trkpt><trkpt lat="43.18392594720953" lon="12.00528662413123"><ele>266.8</ele><time>2026-03-23T15:50:13Z</time></trkpt><trkpt lat="43.183890659420406" lon="12.005138772408504"><ele>267.0</ele><time>2026-03-23T15:50:15Z</time></trkpt><trkpt lat="43.18385783955778" lon="12.004994489645544"><ele>267.1666666666667</ele><time>2026-03-23T15:50:17Z</time></trkpt><trkpt lat="43.18382474333569" lon="12.004849927869921"><ele>267.3333333333333</ele><time>2026-03-23T15:50:19Z</time></trkpt><trkpt lat="43.183800126544575" lon="12.004750610052831"><ele>267.5</ele><time>2026-03-23T15:50:21Z</time></trkpt><trkpt lat="43.18378341058958" lon="12.00465446695071"><ele>267.66666666666663</ele><time>2026-03-23T15:50:23Z</time></trkpt><trkpt lat="43.18375694378822" lon="12.004556117793493"><ele>267.8333333333333</ele><time>2026-03-23T15:50:25Z</time></trkpt><trkpt lat="43.18373136087543" lon="12.00445211282266"><ele>268.0</ele><time>2026-03-23T15:50:27Z</time></trkpt><trkpt lat="43.183677261372424" lon="12.004301444212752"><ele>268.0</ele><time>2026-03-23T15:50:29Z</time></trkpt><trkpt lat="43.18365216214021" lon="12.004212566236593"><ele>268.0</ele><time>2026-03-23T15:50:30Z</time></trkpt><trkpt lat="43.18361861475553" lon="12.004050998800775"><ele>268.0</ele><time>2026-03-23T15:50:32Z</time></trkpt><trkpt lat="43.183593535265366" lon="12.003904497261285"><ele>268.0</ele><time>2026-03-23T15:50:34Z</time></trkpt><trkpt lat="43.18356061619538" lon="12.00379101524596"><ele>268.0</ele><time>2026-03-23T15:50:36Z</time></trkpt><trkpt lat="43.183507299091545" lon="12.00367697008524"><ele>267.8</ele><time>2026-03-23T15:50:38Z</time></trkpt><trkpt lat="43.18343549601638" lon="12.003606485421649"><ele>267.6</ele><time>2026-03-23T15:50:40Z</time></trkpt><trkpt lat="43.183326550254975" lon="12.003576214149753"><ele>267.4</ele><time>2026-03-23T15:50:42Z</time></trkpt><trkpt lat="43.18320340371996" lon="12.003558676648167"><ele>267.2</ele><time>2026-03-23T15:50:44Z</time></trkpt><trkpt lat="43.18310489081486" lon="12.003564926144822"><ele>267.0</ele><time>2026-03-23T15:50:45Z</time></trkpt><trkpt lat="43.18300567010858" lon="12.003572830765373"><ele>267.8</ele><time>2026-03-23T15:50:46Z</time></trkpt><trkpt lat="43.1829147189965" lon="12.003581883369147"><ele>268.6</ele><time>2026-03-23T15:50:47Z</time></trkpt><trkpt lat="43.182823946161655" lon="12.003613365532523"><ele>269.40000000000003</ele><time>2026-03-23T15:50:48Z</time></trkpt><trkpt lat="43.18272722613929" lon="12.003620615127138"><ele>270.2</ele><time>2026-03-23T15:50:49Z</time></trkpt><trkpt lat="43.18262922661268" lon="12.00363760694092"><ele>271.0</ele><time>2026-03-23T15:50:50Z</time></trkpt><trkpt lat="43.182542338673954" lon="12.003646885129436"><ele>271.0</ele><time>2026-03-23T15:50:51Z</time></trkpt><trkpt lat="43.182477352201325" lon="12.003657819936608"><ele>271.0</ele><time>2026-03-23T15:50:52Z</time></trkpt><trkpt lat="43.182365521234516" lon="12.00369694144903"><ele>271.0</ele><time>2026-03-23T15:50:54Z</time></trkpt><trkpt lat="43.182276117916736" lon="12.00371204338149"><ele>271.0</ele><time>2026-03-23T15:50:56Z</time></trkpt><trkpt lat="43.18217703396495" lon="12.003746527606086"><ele>271.0</ele><time>2026-03-23T15:50:58Z</time></trkpt><trkpt lat="43.182108857740104" lon="12.00377078878659"><ele>271.0</ele><time>2026-03-23T15:50:59Z</time></trkpt><trkpt lat="43.1820374895362" lon="12.003796185847818"><ele>271.16666666666663</ele><time>2026-03-23T15:51:00Z</time></trkpt><trkpt lat="43.181956522339135" lon="12.003822935880473"><ele>271.3333333333333</ele><time>2026-03-23T15:51:01Z</time></trkpt><trkpt lat="43.1818691866494" lon="12.003849595691797"><ele>271.5</ele><time>2026-03-23T15:51:02Z</time></trkpt><trkpt lat="43.181788961524745" lon="12.0038737993288"><ele>271.6666666666667</ele><time>2026-03-23T15:51:03Z</time></trkpt><trkpt lat="43.18169892971888" lon="12.00390075443094"><ele>271.83333333333337</ele><time>2026-03-23T15:51:04Z</time></trkpt><trkpt lat="43.181615501926004" lon="12.00392419555132"><ele>272.0</ele><time>2026-03-23T15:51:05Z</time></trkpt><trkpt lat="43.181548625937694" lon="12.00394298601263"><ele>272.0</ele><time>2026-03-23T15:51:06Z</time></trkpt><trkpt lat="43.18146988116457" lon="12.003962244247198"><ele>272.0</ele><time>2026-03-23T15:51:07Z</time></trkpt><trkpt lat="43.181385534072966" lon="12.003982939829061"><ele>272.0</ele><time>2026-03-23T15:51:08Z</time></trkpt><trkpt lat="43.18130985905593" lon="12.003999982956055"><ele>272.0</ele><time>2026-03-23T15:51:09Z</time></trkpt><trkpt lat="43.181216918625054" lon="12.004020914505572"><ele>272.0</ele><time>2026-03-23T15:51:10Z</time></trkpt><trkpt lat="43.1811349445241" lon="12.00403925408152"><ele>272.0</ele><time>2026-03-23T15:51:11Z</time></trkpt><trkpt lat="43.18105685175723" lon="12.004055839658442"><ele>271.99999999999994</ele><time>2026-03-23T15:51:12Z</time></trkpt><trkpt lat="43.18097937753279" lon="12.004072293866644"><ele>272.0</ele><time>2026-03-23T15:51:13Z</time></trkpt><trkpt lat="43.18091070231601" lon="12.00408687931622"><ele>272.0</ele><time>2026-03-23T15:51:14Z</time></trkpt><trkpt lat="43.1808412715684" lon="12.00410162522652"><ele>272.0</ele><time>2026-03-23T15:51:15Z</time></trkpt><trkpt lat="43.18077589392619" lon="12.004115510328882"><ele>272.0</ele><time>2026-03-23T15:51:16Z</time></trkpt><trkpt lat="43.18071332428473" lon="12.004129015868251"><ele>271.99999999999994</ele><time>2026-03-23T15:51:17Z</time></trkpt><trkpt lat="43.18065079337992" lon="12.004143235879413"><ele>272.0</ele><time>2026-03-23T15:51:18Z</time></trkpt><trkpt lat="43.18057963202455" lon="12.004159418524038"><ele>271.8</ele><time>2026-03-23T15:51:19Z</time></trkpt><trkpt lat="43.18046412190164" lon="12.00418417285722"><ele>271.6</ele><time>2026-03-23T15:51:21Z</time></trkpt><trkpt lat="43.18035622524938" lon="12.004202910267722"><ele>271.40000000000003</ele><time>2026-03-23T15:51:23Z</time></trkpt><trkpt lat="43.18025109923766" lon="12.004220292341072"><ele>271.2</ele><time>2026-03-23T15:51:25Z</time></trkpt><trkpt lat="43.18016839140875" lon="12.004233746374176"><ele>271.0</ele><time>2026-03-23T15:51:27Z</time></trkpt><trkpt lat="43.18014591989783" lon="12.004407771427072"><ele>271.0</ele><time>2026-03-23T15:51:30Z</time></trkpt><trkpt lat="43.180169345518664" lon="12.004586927598488"><ele>271.0</ele><time>2026-03-23T15:51:32Z</time></trkpt><trkpt lat="43.18018286844295" lon="12.004686776776326"><ele>271.0</ele><time>2026-03-23T15:51:33Z</time></trkpt><trkpt lat="43.18019243290594" lon="12.004782110925182"><ele>271.0</ele><time>2026-03-23T15:51:34Z</time></trkpt><trkpt lat="43.18021630440884" lon="12.0049441680951"><ele>271.0</ele><time>2026-03-23T15:51:36Z</time></trkpt><trkpt lat="43.18023609489661" lon="12.005045077387496"><ele>270.66666666666663</ele><time>2026-03-23T15:51:37Z</time></trkpt><trkpt lat="43.180255809427045" lon="12.005144666789622"><ele>270.3333333333333</ele><time>2026-03-23T15:51:38Z</time></trkpt><trkpt lat="43.18027666203591" lon="12.005237315898494"><ele>270.0</ele><time>2026-03-23T15:51:39Z</time></trkpt><trkpt lat="43.18029966440304" lon="12.00533519269148"><ele>269.6666666666667</ele><time>2026-03-23T15:51:40Z</time></trkpt><trkpt lat="43.18033315505468" lon="12.005449470501995"><ele>269.33333333333337</ele><time>2026-03-23T15:51:41Z</time></trkpt><trkpt lat="43.18038012403239" lon="12.005586606611164"><ele>269.0</ele><time>2026-03-23T15:51:42Z</time></trkpt><trkpt lat="43.18042951329669" lon="12.005715011841112"><ele>269.4</ele><time>2026-03-23T15:51:43Z</time></trkpt><trkpt lat="43.1804778829919" lon="12.005848397780063"><ele>269.79999999999995</ele><time>2026-03-23T15:51:44Z</time></trkpt><trkpt lat="43.180523864653274" lon="12.005966296640931"><ele>270.20000000000005</ele><time>2026-03-23T15:51:45Z</time></trkpt><trkpt lat="43.180571593040575" lon="12.006094048160127"><ele>270.6</ele><time>2026-03-23T15:51:46Z</time></trkpt><trkpt lat="43.18062153003612" lon="12.00622446204031"><ele>271.0</ele><time>2026-03-23T15:51:47Z</time></trkpt><trkpt lat="43.18067493779544" lon="12.006348108525708"><ele>270.6</ele><time>2026-03-23T15:51:48Z</time></trkpt><trkpt lat="43.180730136590135" lon="12.006470606188076"><ele>270.20000000000005</ele><time>2026-03-23T15:51:49Z</time></trkpt><trkpt lat="43.18077533134833" lon="12.00658320583536"><ele>269.79999999999995</ele><time>2026-03-23T15:51:50Z</time></trkpt><trkpt lat="43.180815901013005" lon="12.006684717996007"><ele>269.4</ele><time>2026-03-23T15:51:51Z</time></trkpt><trkpt lat="43.18085731842208" lon="12.006786975630991"><ele>269.0</ele><time>2026-03-23T15:51:52Z</time></trkpt><trkpt lat="43.180901395379344" lon="12.006893077874325"><ele>269.0</ele><time>2026-03-23T15:51:53Z</time></trkpt><trkpt lat="43.18094490828572" lon="12.00701433830941"><ele>269.0</ele><time>2026-03-23T15:51:54Z</time></trkpt><trkpt lat="43.18098997293602" lon="12.00714237559192"><ele>269.0</ele><time>2026-03-23T15:51:55Z</time></trkpt><trkpt lat="43.18103249999831" lon="12.007255423504223"><ele>269.0</ele><time>2026-03-23T15:51:56Z</time></trkpt><trkpt lat="43.18107225516465" lon="12.007385867783798"><ele>269.0</ele><time>2026-03-23T15:51:57Z</time></trkpt><trkpt lat="43.181108210228196" lon="12.007517141077278"><ele>269.0</ele><time>2026-03-23T15:51:58Z</time></trkpt><trkpt lat="43.18113995739301" lon="12.00766099002521"><ele>269.0</ele><time>2026-03-23T15:51:59Z</time></trkpt><trkpt lat="43.18116873033068" lon="12.007819177896875"><ele>269.0</ele><time>2026-03-23T15:52:00Z</time></trkpt><trkpt lat="43.181197530798705" lon="12.007963422723138"><ele>269.0</ele><time>2026-03-23T15:52:01Z</time></trkpt><trkpt lat="43.181225689855815" lon="12.008093347191211"><ele>269.0</ele><time>2026-03-23T15:52:02Z</time></trkpt><trkpt lat="43.18125131097472" lon="12.008229362549136"><ele>269.2</ele><time>2026-03-23T15:52:03Z</time></trkpt><trkpt lat="43.18127422796294" lon="12.00835736787182"><ele>269.4</ele><time>2026-03-23T15:52:04Z</time></trkpt><trkpt lat="43.18129607152953" lon="12.008492718354836"><ele>269.6</ele><time>2026-03-23T15:52:05Z</time></trkpt><trkpt lat="43.181315688904036" lon="12.00864186500082"><ele>269.8</ele><time>2026-03-23T15:52:06Z</time></trkpt><trkpt lat="43.181332288787075" lon="12.00877774013925"><ele>270.0</ele><time>2026-03-23T15:52:07Z</time></trkpt><trkpt lat="43.18134508918777" lon="12.00891017627419"><ele>270.0</ele><time>2026-03-23T15:52:08Z</time></trkpt><trkpt lat="43.18135958383805" lon="12.009045333409434"><ele>270.0</ele><time>2026-03-23T15:52:09Z</time></trkpt><trkpt lat="43.181376009360136" lon="12.009177612373028"><ele>270.0</ele><time>2026-03-23T15:52:10Z</time></trkpt><trkpt lat="43.18139078558559" lon="12.009282204083263"><ele>270.0</ele><time>2026-03-23T15:52:11Z</time></trkpt><trkpt lat="43.18140421703939" lon="12.009389462889567"><ele>270.0</ele><time>2026-03-23T15:52:12Z</time></trkpt><trkpt lat="43.18141357092853" lon="12.009475837009685"><ele>270.0</ele><time>2026-03-23T15:52:13Z</time></trkpt><trkpt lat="43.18143274391004" lon="12.009646264485262"><ele>269.6</ele><time>2026-03-23T15:52:15Z</time></trkpt><trkpt lat="43.18145465722704" lon="12.009732781996576"><ele>269.2</ele><time>2026-03-23T15:52:16Z</time></trkpt><trkpt lat="43.181473976799396" lon="12.009836307201523"><ele>268.8</ele><time>2026-03-23T15:52:18Z</time></trkpt><trkpt lat="43.1815054696158" lon="12.00996284558196"><ele>268.4</ele><time>2026-03-23T15:52:20Z</time></trkpt><trkpt lat="43.181556682170125" lon="12.01011282262522"><ele>268.0</ele><time>2026-03-23T15:52:22Z</time></trkpt><trkpt lat="43.18161328763109" lon="12.010256898897943"><ele>267.6</ele><time>2026-03-23T15:52:24Z</time></trkpt><trkpt lat="43.18165194416632" lon="12.010352325974727"><ele>267.20000000000005</ele><time>2026-03-23T15:52:25Z</time></trkpt><trkpt lat="43.18169297767747" lon="12.01048282600032"><ele>266.8</ele><time>2026-03-23T15:52:26Z</time></trkpt><trkpt lat="43.18174137798519" lon="12.010626650346687"><ele>266.40000000000003</ele><time>2026-03-23T15:52:27Z</time></trkpt><trkpt lat="43.18178114860859" lon="12.010751907949652"><ele>266.0</ele><time>2026-03-23T15:52:28Z</time></trkpt><trkpt lat="43.18181566284392" lon="12.010856203236596"><ele>265.83333333333337</ele><time>2026-03-23T15:52:29Z</time></trkpt><trkpt lat="43.181845972701296" lon="12.010949431454964"><ele>265.6666666666667</ele><time>2026-03-23T15:52:30Z</time></trkpt><trkpt lat="43.18187972397815" lon="12.011048972363405"><ele>265.5</ele><time>2026-03-23T15:52:31Z</time></trkpt><trkpt lat="43.18190772939622" lon="12.011151886620345"><ele>265.3333333333333</ele><time>2026-03-23T15:52:32Z</time></trkpt><trkpt lat="43.18192988331437" lon="12.01123377229735"><ele>265.16666666666663</ele><time>2026-03-23T15:52:33Z</time></trkpt><trkpt lat="43.181966559399285" lon="12.011337805980858"><ele>265.0</ele><time>2026-03-23T15:52:34Z</time></trkpt><trkpt lat="43.18200746836227" lon="12.01145624200197"><ele>265.0</ele><time>2026-03-23T15:52:35Z</time></trkpt><trkpt lat="43.182053055697374" lon="12.011584634540192"><ele>265.0</ele><time>2026-03-23T15:52:36Z</time></trkpt><trkpt lat="43.18210344270357" lon="12.011740730514648"><ele>265.0</ele><time>2026-03-23T15:52:37Z</time></trkpt><trkpt lat="43.18214544677564" lon="12.011879355800318"><ele>265.0</ele><time>2026-03-23T15:52:38Z</time></trkpt><trkpt lat="43.18218608463281" lon="12.012013156814627"><ele>265.0</ele><time>2026-03-23T15:52:39Z</time></trkpt><trkpt lat="43.182226708581666" lon="12.0121349476784"><ele>264.8</ele><time>2026-03-23T15:52:40Z</time></trkpt><trkpt lat="43.18227214640053" lon="12.012271056229453"><ele>264.6</ele><time>2026-03-23T15:52:41Z</time></trkpt><trkpt lat="43.18230554833947" lon="12.01238869888123"><ele>264.4</ele><time>2026-03-23T15:52:42Z</time></trkpt><trkpt lat="43.18233641378093" lon="12.0124952129925"><ele>264.2</ele><time>2026-03-23T15:52:43Z</time></trkpt><trkpt lat="43.18236584070264" lon="12.012596451818387"><ele>264.0</ele><time>2026-03-23T15:52:44Z</time></trkpt><trkpt lat="43.182377072530336" lon="12.012727488850857"><ele>264.4</ele><time>2026-03-23T15:52:46Z</time></trkpt><trkpt lat="43.18231866558603" lon="12.012799740442343"><ele>264.79999999999995</ele><time>2026-03-23T15:52:48Z</time></trkpt><trkpt lat="43.18221861585996" lon="12.012782917573626"><ele>265.20000000000005</ele><time>2026-03-23T15:52:50Z</time></trkpt><trkpt lat="43.18211109716653" lon="12.012788948190304"><ele>265.6</ele><time>2026-03-23T15:52:52Z</time></trkpt><trkpt lat="43.181980267684764" lon="12.01281484357156"><ele>266.0</ele><time>2026-03-23T15:52:54Z</time></trkpt><trkpt lat="43.18191044228815" lon="12.012793128430312"><ele>266.0</ele><time>2026-03-23T15:52:55Z</time></trkpt><trkpt lat="43.18182458223929" lon="12.01279462086846"><ele>266.0</ele><time>2026-03-23T15:52:56Z</time></trkpt><trkpt lat="43.18173532830845" lon="12.012816310620437"><ele>266.0</ele><time>2026-03-23T15:52:57Z</time></trkpt><trkpt lat="43.181629015764734" lon="12.012819456906865"><ele>266.0</ele><time>2026-03-23T15:52:58Z</time></trkpt><trkpt lat="43.18151248836161" lon="12.012823756804687"><ele>266.0</ele><time>2026-03-23T15:52:59Z</time></trkpt><trkpt lat="43.18139908998567" lon="12.012807759003548"><ele>266.0</ele><time>2026-03-23T15:53:00Z</time></trkpt><trkpt lat="43.181300063283295" lon="12.012824405731678"><ele>266.0</ele><time>2026-03-23T15:53:01Z</time></trkpt><trkpt lat="43.18119170265709" lon="12.012829567513917"><ele>266.0</ele><time>2026-03-23T15:53:02Z</time></trkpt><trkpt lat="43.18108022976379" lon="12.012832168433894"><ele>266.0</ele><time>2026-03-23T15:53:03Z</time></trkpt><trkpt lat="43.1809706003581" lon="12.012843620686365"><ele>266.0</ele><time>2026-03-23T15:53:04Z</time></trkpt><trkpt lat="43.18085708122821" lon="12.012843539645761"><ele>266.0</ele><time>2026-03-23T15:53:05Z</time></trkpt><trkpt lat="43.18074383701973" lon="12.012846112033682"><ele>266.0</ele><time>2026-03-23T15:53:06Z</time></trkpt><trkpt lat="43.18063506559818" lon="12.012850019199938"><ele>266.0</ele><time>2026-03-23T15:53:07Z</time></trkpt><trkpt lat="43.18052549347725" lon="12.012856367103453"><ele>266.0</ele><time>2026-03-23T15:53:08Z</time></trkpt><trkpt lat="43.180410925116114" lon="12.012852013994747"><ele>266.0</ele><time>2026-03-23T15:53:09Z</time></trkpt><trkpt lat="43.18030394368719" lon="12.012862185733196"><ele>266.0</ele><time>2026-03-23T15:53:10Z</time></trkpt><trkpt lat="43.18020437701643" lon="12.012867860479975"><ele>266.0</ele><time>2026-03-23T15:53:11Z</time></trkpt><trkpt lat="43.180108127240864" lon="12.01286036860026"><ele>266.0</ele><time>2026-03-23T15:53:12Z</time></trkpt><trkpt lat="43.18000638291042" lon="12.012864153787344"><ele>266.0</ele><time>2026-03-23T15:53:13Z</time></trkpt><trkpt lat="43.17990363998335" lon="12.012862242992316"><ele>266.0</ele><time>2026-03-23T15:53:14Z</time></trkpt><trkpt lat="43.179809298261084" lon="12.012865945246405"><ele>265.8</ele><time>2026-03-23T15:53:15Z</time></trkpt><trkpt lat="43.17971770871888" lon="12.012874369798412"><ele>265.6</ele><time>2026-03-23T15:53:16Z</time></trkpt><trkpt lat="43.17961548350169" lon="12.012882474518733"><ele>265.4</ele><time>2026-03-23T15:53:17Z</time></trkpt><trkpt lat="43.1795097230066" lon="12.012864293205478"><ele>265.2</ele><time>2026-03-23T15:53:18Z</time></trkpt><trkpt lat="43.179386821670995" lon="12.012889280810668"><ele>265.0</ele><time>2026-03-23T15:53:19Z</time></trkpt><trkpt lat="43.17924107213141" lon="12.012896334291748"><ele>265.0</ele><time>2026-03-23T15:53:20Z</time></trkpt><trkpt lat="43.179081300775195" lon="12.012901833759285"><ele>265.0</ele><time>2026-03-23T15:53:21Z</time></trkpt><trkpt lat="43.17892506980609" lon="12.012909204441602"><ele>265.0</ele><time>2026-03-23T15:53:22Z</time></trkpt><trkpt lat="43.17879642783589" lon="12.012913453322387"><ele>265.0</ele><time>2026-03-23T15:53:23Z</time></trkpt><trkpt lat="43.17868870130457" lon="12.012915365011104"><ele>265.0</ele><time>2026-03-23T15:53:24Z</time></trkpt><trkpt lat="43.1785930238719" lon="12.012917675993727"><ele>265.0</ele><time>2026-03-23T15:53:25.001Z</time></trkpt><trkpt lat="43.17849909093262" lon="12.012922443189934"><ele>265.0</ele><time>2026-03-23T15:53:26.001Z</time></trkpt><trkpt lat="43.17840502247071" lon="12.01292681842555"><ele>265.0</ele><time>2026-03-23T15:53:27.001Z</time></trkpt><trkpt lat="43.17830054256332" lon="12.012928706386534"><ele>265.0</ele><time>2026-03-23T15:53:28.001Z</time></trkpt><trkpt lat="43.178195339556176" lon="12.012936202442996"><ele>265.0</ele><time>2026-03-23T15:53:29.001Z</time></trkpt><trkpt lat="43.17810281626297" lon="12.012938515537265"><ele>265.0</ele><time>2026-03-23T15:53:30.001Z</time></trkpt><trkpt lat="43.17800079236386" lon="12.012940272343666"><ele>265.0</ele><time>2026-03-23T15:53:31.001Z</time></trkpt><trkpt lat="43.17789467955763" lon="12.012935947416837"><ele>265.0</ele><time>2026-03-23T15:53:32.001Z</time></trkpt><trkpt lat="43.17779124405762" lon="12.012940727193504"><ele>265.0</ele><time>2026-03-23T15:53:33.001Z</time></trkpt><trkpt lat="43.1776813538268" lon="12.012941420365815"><ele>265.0</ele><time>2026-03-23T15:53:34.001Z</time></trkpt><trkpt lat="43.177574498185045" lon="12.012944834536379"><ele>265.0</ele><time>2026-03-23T15:53:35.001Z</time></trkpt><trkpt lat="43.177466485586066" lon="12.012944742442816"><ele>265.0</ele><time>2026-03-23T15:53:36.001Z</time></trkpt><trkpt lat="43.177361059789646" lon="12.012950717343546"><ele>265.0</ele><time>2026-03-23T15:53:37.001Z</time></trkpt><trkpt lat="43.1772485173709" lon="12.012933000082423"><ele>265.0</ele><time>2026-03-23T15:53:38.001Z</time></trkpt><trkpt lat="43.17714696286054" lon="12.012934791759648"><ele>265.0</ele><time>2026-03-23T15:53:39.001Z</time></trkpt><trkpt lat="43.177049270790086" lon="12.01293714790307"><ele>265.0</ele><time>2026-03-23T15:53:40.001Z</time></trkpt><trkpt lat="43.17695019061889" lon="12.012939537524934"><ele>265.0</ele><time>2026-03-23T15:53:41.001Z</time></trkpt><trkpt lat="43.176846738601625" lon="12.012942032587482"><ele>265.0</ele><time>2026-03-23T15:53:42.001Z</time></trkpt><trkpt lat="43.176744429693116" lon="12.012944500080467"><ele>265.0</ele><time>2026-03-23T15:53:43.001Z</time></trkpt><trkpt lat="43.176639896653526" lon="12.012947021214751"><ele>265.0</ele><time>2026-03-23T15:53:44.001Z</time></trkpt><trkpt lat="43.176544386461025" lon="12.012949530995375"><ele>265.0</ele><time>2026-03-23T15:53:45.001Z</time></trkpt><trkpt lat="43.176443265940975" lon="12.012952438613532"><ele>265.0</ele><time>2026-03-23T15:53:46.001Z</time></trkpt><trkpt lat="43.17634084227826" lon="12.012955383702684"><ele>265.0</ele><time>2026-03-23T15:53:47.001Z</time></trkpt><trkpt lat="43.1762371285294" lon="12.01295856143897"><ele>265.0</ele><time>2026-03-23T15:53:48.001Z</time></trkpt><trkpt lat="43.17612510255182" lon="12.012962095570272"><ele>265.0</ele><time>2026-03-23T15:53:49.001Z</time></trkpt><trkpt lat="43.17601252837509" lon="12.012965646996077"><ele>265.0</ele><time>2026-03-23T15:53:50.001Z</time></trkpt><trkpt lat="43.17590507679193" lon="12.012969036817049"><ele>265.0</ele><time>2026-03-23T15:53:51.001Z</time></trkpt><trkpt lat="43.175799303875074" lon="12.012972373681055"><ele>265.0</ele><time>2026-03-23T15:53:52.001Z</time></trkpt><trkpt lat="43.175679941087445" lon="12.012976139269082"><ele>265.0</ele><time>2026-03-23T15:53:53.001Z</time></trkpt><trkpt lat="43.175574545160465" lon="12.012979464240155"><ele>264.8</ele><time>2026-03-23T15:53:54.001Z</time></trkpt><trkpt lat="43.175469098751115" lon="12.012982790802447"><ele>264.6</ele><time>2026-03-23T15:53:55.001Z</time></trkpt><trkpt lat="43.17536183918273" lon="12.012986255407764"><ele>264.4</ele><time>2026-03-23T15:53:56.001Z</time></trkpt><trkpt lat="43.175252241105056" lon="12.012990587772505"><ele>264.2</ele><time>2026-03-23T15:53:57.001Z</time></trkpt><trkpt lat="43.17514483335316" lon="12.012994833554552"><ele>264.0</ele><time>2026-03-23T15:53:58.001Z</time></trkpt><trkpt lat="43.17505005610846" lon="12.013009955405273"><ele>264.0</ele><time>2026-03-23T15:53:59.001Z</time></trkpt><trkpt lat="43.174953936716406" lon="12.01301598717882"><ele>264.0</ele><time>2026-03-23T15:54:00.001Z</time></trkpt><trkpt lat="43.17486255411079" lon="12.013017607451776"><ele>264.0</ele><time>2026-03-23T15:54:01.001Z</time></trkpt><trkpt lat="43.17477552784237" lon="12.013015418538782"><ele>264.0</ele><time>2026-03-23T15:54:02.001Z</time></trkpt><trkpt lat="43.174683476800425" lon="12.01300377926738"><ele>264.0</ele><time>2026-03-23T15:54:03.001Z</time></trkpt><trkpt lat="43.174586058215425" lon="12.012990902501612"><ele>264.0</ele><time>2026-03-23T15:54:04.001Z</time></trkpt><trkpt lat="43.174507470207864" lon="12.012967241655195"><ele>264.0</ele><time>2026-03-23T15:54:05.001Z</time></trkpt><trkpt lat="43.17444007197913" lon="12.012918955216012"><ele>264.0</ele><time>2026-03-23T15:54:06.001Z</time></trkpt><trkpt lat="43.17439996403032" lon="12.013005811923737"><ele>264.0</ele><time>2026-03-23T15:54:08.001Z</time></trkpt><trkpt lat="43.17435752913382" lon="12.013076650101748"><ele>264.0</ele><time>2026-03-23T15:54:09.001Z</time></trkpt><trkpt lat="43.17427715544793" lon="12.013196625682347"><ele>264.0</ele><time>2026-03-23T15:54:10.001Z</time></trkpt><trkpt lat="43.17419352621109" lon="12.01331822113584"><ele>263.8</ele><time>2026-03-23T15:54:11.001Z</time></trkpt><trkpt lat="43.17410148857941" lon="12.013444102235061"><ele>263.59999999999997</ele><time>2026-03-23T15:54:12.001Z</time></trkpt><trkpt lat="43.17401578553208" lon="12.01357281145117"><ele>263.4</ele><time>2026-03-23T15:54:13.001Z</time></trkpt><trkpt lat="43.173957064212864" lon="12.013682842903162"><ele>263.2</ele><time>2026-03-23T15:54:14.001Z</time></trkpt><trkpt lat="43.17391102160475" lon="12.013789299352489"><ele>263.0</ele><time>2026-03-23T15:54:15.001Z</time></trkpt><trkpt lat="43.17392020872029" lon="12.013945445957534"><ele>263.0</ele><time>2026-03-23T15:54:17.001Z</time></trkpt><trkpt lat="43.173978364522235" lon="12.014001558696693"><ele>263.0</ele><time>2026-03-23T15:54:19.001Z</time></trkpt><trkpt lat="43.174147135880666" lon="12.01404874342674"><ele>263.0</ele><time>2026-03-23T15:54:22.001Z</time></trkpt><trkpt lat="43.174260080117186" lon="12.014039204790114"><ele>263.0</ele><time>2026-03-23T15:54:23.001Z</time></trkpt><trkpt lat="43.17437344772397" lon="12.014026120170497"><ele>263.0</ele><time>2026-03-23T15:54:24.001Z</time></trkpt><trkpt lat="43.174520697816504" lon="12.014010287702051"><ele>263.0</ele><time>2026-03-23T15:54:25.001Z</time></trkpt><trkpt lat="43.174688268531156" lon="12.01399288245418"><ele>263.0</ele><time>2026-03-23T15:54:26.001Z</time></trkpt><trkpt lat="43.17485790841756" lon="12.013987212398574"><ele>263.33333333333337</ele><time>2026-03-23T15:54:27.001Z</time></trkpt><trkpt lat="43.175037788190735" lon="12.01397712840668"><ele>263.6666666666667</ele><time>2026-03-23T15:54:28.001Z</time></trkpt><trkpt lat="43.17522243800619" lon="12.013959046678734"><ele>264.0</ele><time>2026-03-23T15:54:29.001Z</time></trkpt><trkpt lat="43.17541692430257" lon="12.01394303012962"><ele>264.0</ele><time>2026-03-23T15:54:30Z</time></trkpt><trkpt lat="43.17562116738112" lon="12.013932881676824"><ele>264.0</ele><time>2026-03-23T15:54:31Z</time></trkpt><trkpt lat="43.17581629317217" lon="12.013922834219649"><ele>264.0</ele><time>2026-03-23T15:54:32Z</time></trkpt><trkpt lat="43.176003935114665" lon="12.013914360060738"><ele>264.0</ele><time>2026-03-23T15:54:33Z</time></trkpt><trkpt lat="43.17620684152863" lon="12.013903249845447"><ele>264.0</ele><time>2026-03-23T15:54:34Z</time></trkpt><trkpt lat="43.176416194942306" lon="12.013891334155941"><ele>264.0</ele><time>2026-03-23T15:54:35Z</time></trkpt><trkpt lat="43.1765977943131" lon="12.013875812859965"><ele>264.0</ele><time>2026-03-23T15:54:36Z</time></trkpt><trkpt lat="43.1767737293255" lon="12.013864641872203"><ele>264.0</ele><time>2026-03-23T15:54:37Z</time></trkpt><trkpt lat="43.17696236490028" lon="12.013850557262558"><ele>264.0</ele><time>2026-03-23T15:54:38Z</time></trkpt><trkpt lat="43.17715088252741" lon="12.013839591313406"><ele>264.0</ele><time>2026-03-23T15:54:39Z</time></trkpt><trkpt lat="43.177343795103575" lon="12.013827674809702"><ele>264.0</ele><time>2026-03-23T15:54:40Z</time></trkpt><trkpt lat="43.177528978983865" lon="12.013817187046278"><ele>264.0</ele><time>2026-03-23T15:54:41Z</time></trkpt><trkpt lat="43.17771133238652" lon="12.013807027737297"><ele>264.0</ele><time>2026-03-23T15:54:42Z</time></trkpt><trkpt lat="43.17790768775599" lon="12.013785742601792"><ele>264.0</ele><time>2026-03-23T15:54:43Z</time></trkpt><trkpt lat="43.17808856379488" lon="12.01377417458545"><ele>264.0</ele><time>2026-03-23T15:54:44Z</time></trkpt><trkpt lat="43.17826520995496" lon="12.013762388879428"><ele>264.3333333333333</ele><time>2026-03-23T15:54:45Z</time></trkpt><trkpt lat="43.17843713868181" lon="12.013758709834132"><ele>264.66666666666663</ele><time>2026-03-23T15:54:46Z</time></trkpt><trkpt lat="43.17862063287042" lon="12.01374262024343"><ele>265.0</ele><time>2026-03-23T15:54:47Z</time></trkpt><trkpt lat="43.17879970649663" lon="12.013731915358788"><ele>265.0</ele><time>2026-03-23T15:54:48Z</time></trkpt><trkpt lat="43.17898274186837" lon="12.013718103101976"><ele>265.0</ele><time>2026-03-23T15:54:49Z</time></trkpt><trkpt lat="43.17915155161375" lon="12.013703325255415"><ele>265.0</ele><time>2026-03-23T15:54:50Z</time></trkpt><trkpt lat="43.17931749409967" lon="12.013692619796217"><ele>265.3333333333333</ele><time>2026-03-23T15:54:51Z</time></trkpt><trkpt lat="43.17948005328651" lon="12.013683091125312"><ele>265.6666666666667</ele><time>2026-03-23T15:54:52Z</time></trkpt><trkpt lat="43.179645884237054" lon="12.013670950137117"><ele>266.0</ele><time>2026-03-23T15:54:53Z</time></trkpt><trkpt lat="43.17979713650893" lon="12.013662812624611"><ele>266.5</ele><time>2026-03-23T15:54:54Z</time></trkpt><trkpt lat="43.17995023554604" lon="12.013648767773894"><ele>267.0</ele><time>2026-03-23T15:54:55Z</time></trkpt><trkpt lat="43.18009990331027" lon="12.013640842259804"><ele>267.5</ele><time>2026-03-23T15:54:56Z</time></trkpt><trkpt lat="43.18024437562198" lon="12.013633786940586"><ele>268.0</ele><time>2026-03-23T15:54:57Z</time></trkpt><trkpt lat="43.18038235089631" lon="12.01362710145564"><ele>268.0</ele><time>2026-03-23T15:54:58Z</time></trkpt><trkpt lat="43.18050440466043" lon="12.013623055709056"><ele>268.0</ele><time>2026-03-23T15:54:59Z</time></trkpt><trkpt lat="43.18060299340536" lon="12.013627053050506"><ele>268.0</ele><time>2026-03-23T15:55:00Z</time></trkpt><trkpt lat="43.18068987616022" lon="12.013643296549517"><ele>268.0</ele><time>2026-03-23T15:55:01Z</time></trkpt><trkpt lat="43.18076816917244" lon="12.013675781973003"><ele>268.0</ele><time>2026-03-23T15:55:02Z</time></trkpt><trkpt lat="43.18082927089651" lon="12.01373081518457"><ele>267.8</ele><time>2026-03-23T15:55:03Z</time></trkpt><trkpt lat="43.18087366551764" lon="12.013812149842323"><ele>267.6</ele><time>2026-03-23T15:55:04Z</time></trkpt><trkpt lat="43.180911268769556" lon="12.0139140470708"><ele>267.4</ele><time>2026-03-23T15:55:05Z</time></trkpt><trkpt lat="43.180967122079835" lon="12.01405052272452"><ele>267.2</ele><time>2026-03-23T15:55:06Z</time></trkpt><trkpt lat="43.18102705782215" lon="12.014204693977348"><ele>267.0</ele><time>2026-03-23T15:55:07Z</time></trkpt><trkpt lat="43.18110345844432" lon="12.014366775004087"><ele>267.0</ele><time>2026-03-23T15:55:08Z</time></trkpt><trkpt lat="43.1811862633509" lon="12.014544739968363"><ele>267.0</ele><time>2026-03-23T15:55:09Z</time></trkpt><trkpt lat="43.18126610404667" lon="12.01473410941802"><ele>267.0</ele><time>2026-03-23T15:55:10Z</time></trkpt><trkpt lat="43.181349512167216" lon="12.014939247337706"><ele>267.0</ele><time>2026-03-23T15:55:11Z</time></trkpt><trkpt lat="43.181435001577626" lon="12.015143994863832"><ele>267.0</ele><time>2026-03-23T15:55:12.001Z</time></trkpt><trkpt lat="43.181513424498796" lon="12.015336005829491"><ele>267.0</ele><time>2026-03-23T15:55:13.001Z</time></trkpt><trkpt lat="43.1815908619237" lon="12.015520910808188"><ele>267.0</ele><time>2026-03-23T15:55:14.001Z</time></trkpt><trkpt lat="43.18167484624867" lon="12.015718000514951"><ele>267.0</ele><time>2026-03-23T15:55:15.001Z</time></trkpt><trkpt lat="43.181757454035456" lon="12.015903471080234"><ele>267.0</ele><time>2026-03-23T15:55:16.001Z</time></trkpt><trkpt lat="43.18181907995686" lon="12.01609537900654"><ele>266.6666666666667</ele><time>2026-03-23T15:55:17.001Z</time></trkpt><trkpt lat="43.181902054493584" lon="12.01630363263353"><ele>266.33333333333337</ele><time>2026-03-23T15:55:18.001Z</time></trkpt><trkpt lat="43.18199478128403" lon="12.016504969008706"><ele>266.0</ele><time>2026-03-23T15:55:19.001Z</time></trkpt><trkpt lat="43.18206035219549" lon="12.0167042869497"><ele>265.0</ele><time>2026-03-23T15:55:20.001Z</time></trkpt><trkpt lat="43.18213655150115" lon="12.016862479568221"><ele>264.0</ele><time>2026-03-23T15:55:21.001Z</time></trkpt><trkpt lat="43.182222055740674" lon="12.017029067759772"><ele>263.0</ele><time>2026-03-23T15:55:22.001Z</time></trkpt><trkpt lat="43.18233367070664" lon="12.017208588447577"><ele>263.0</ele><time>2026-03-23T15:55:23.001Z</time></trkpt><trkpt lat="43.182469511753496" lon="12.017395003158816"><ele>263.0</ele><time>2026-03-23T15:55:24.001Z</time></trkpt><trkpt lat="43.18260811282162" lon="12.01755518233969"><ele>263.0</ele><time>2026-03-23T15:55:25.001Z</time></trkpt><trkpt lat="43.182756784548445" lon="12.017707532475926"><ele>262.6666666666667</ele><time>2026-03-23T15:55:26.001Z</time></trkpt><trkpt lat="43.18289082010035" lon="12.017842578360648"><ele>262.3333333333333</ele><time>2026-03-23T15:55:27.001Z</time></trkpt><trkpt lat="43.18304100105264" lon="12.01797177353154"><ele>262.0</ele><time>2026-03-23T15:55:28.001Z</time></trkpt><trkpt lat="43.18317896897155" lon="12.018097590734628"><ele>261.66666666666663</ele><time>2026-03-23T15:55:29.001Z</time></trkpt><trkpt lat="43.18332210662216" lon="12.018221552685498"><ele>261.3333333333333</ele><time>2026-03-23T15:55:30.001Z</time></trkpt><trkpt lat="43.18345993104416" lon="12.018347869613896"><ele>261.0</ele><time>2026-03-23T15:55:31.001Z</time></trkpt><trkpt lat="43.18360539391723" lon="12.018486794715415"><ele>260.3333333333333</ele><time>2026-03-23T15:55:32.001Z</time></trkpt><trkpt lat="43.18376298681404" lon="12.01862776318196"><ele>259.66666666666663</ele><time>2026-03-23T15:55:33.001Z</time></trkpt><trkpt lat="43.183910516181065" lon="12.018763109420988"><ele>259.0</ele><time>2026-03-23T15:55:34.001Z</time></trkpt><trkpt lat="43.184051948135625" lon="12.018884833797737"><ele>259.0</ele><time>2026-03-23T15:55:35.001Z</time></trkpt><trkpt lat="43.184200108500946" lon="12.019003273191716"><ele>259.0</ele><time>2026-03-23T15:55:36.001Z</time></trkpt><trkpt lat="43.18434670857926" lon="12.019111592109326"><ele>259.0</ele><time>2026-03-23T15:55:37.001Z</time></trkpt><trkpt lat="43.18449973963194" lon="12.019227339593321"><ele>259.0</ele><time>2026-03-23T15:55:38.001Z</time></trkpt><trkpt lat="43.18464532171253" lon="12.019346857752218"><ele>259.0</ele><time>2026-03-23T15:55:39.001Z</time></trkpt><trkpt lat="43.18478801197593" lon="12.019461949092644"><ele>259.0</ele><time>2026-03-23T15:55:40.001Z</time></trkpt><trkpt lat="43.184926944316516" lon="12.019571471603266"><ele>259.0</ele><time>2026-03-23T15:55:41.001Z</time></trkpt><trkpt lat="43.185061110145334" lon="12.019679056729165"><ele>259.0</ele><time>2026-03-23T15:55:42.001Z</time></trkpt><trkpt lat="43.18519911190677" lon="12.01979527666583"><ele>259.0</ele><time>2026-03-23T15:55:43.001Z</time></trkpt><trkpt lat="43.185319719742864" lon="12.01991094954913"><ele>259.66666666666663</ele><time>2026-03-23T15:55:44.001Z</time></trkpt><trkpt lat="43.18542349400153" lon="12.020040874188398"><ele>260.3333333333333</ele><time>2026-03-23T15:55:45.001Z</time></trkpt><trkpt lat="43.18552405864495" lon="12.02020028874654"><ele>261.0</ele><time>2026-03-23T15:55:46.001Z</time></trkpt><trkpt lat="43.185611110802505" lon="12.020387582841545"><ele>261.0</ele><time>2026-03-23T15:55:47.001Z</time></trkpt><trkpt lat="43.18567213251124" lon="12.020580689395775"><ele>261.0</ele><time>2026-03-23T15:55:48.001Z</time></trkpt><trkpt lat="43.1857149117479" lon="12.020783668949367"><ele>261.0</ele><time>2026-03-23T15:55:49.001Z</time></trkpt><trkpt lat="43.18575681854804" lon="12.020984607483475"><ele>261.25</ele><time>2026-03-23T15:55:50.001Z</time></trkpt><trkpt lat="43.185802119457335" lon="12.021167138032682"><ele>261.5</ele><time>2026-03-23T15:55:51.001Z</time></trkpt><trkpt lat="43.185844011828614" lon="12.021352125375778"><ele>261.75</ele><time>2026-03-23T15:55:52.001Z</time></trkpt><trkpt lat="43.185888530525425" lon="12.021533353462598"><ele>262.0</ele><time>2026-03-23T15:55:53.001Z</time></trkpt><trkpt lat="43.18593331704423" lon="12.0216944359206"><ele>262.0</ele><time>2026-03-23T15:55:54.001Z</time></trkpt><trkpt lat="43.18597497442334" lon="12.021842609407393"><ele>262.0</ele><time>2026-03-23T15:55:55.001Z</time></trkpt><trkpt lat="43.186006431067455" lon="12.021991304053612"><ele>262.0</ele><time>2026-03-23T15:55:56.001Z</time></trkpt><trkpt lat="43.18604362878064" lon="12.022138941497804"><ele>262.0</ele><time>2026-03-23T15:55:57.001Z</time></trkpt><trkpt lat="43.186085154504966" lon="12.022301986925115"><ele>262.0</ele><time>2026-03-23T15:55:58.001Z</time></trkpt><trkpt lat="43.186135607726335" lon="12.02248338392523"><ele>262.0</ele><time>2026-03-23T15:55:59.001Z</time></trkpt><trkpt lat="43.18619187240722" lon="12.022658519529394"><ele>262.0</ele><time>2026-03-23T15:56:00.001Z</time></trkpt><trkpt lat="43.18624671266945" lon="12.022811674163716"><ele>262.0</ele><time>2026-03-23T15:56:01.001Z</time></trkpt><trkpt lat="43.1862999923061" lon="12.022952829013711"><ele>262.0</ele><time>2026-03-23T15:56:02.001Z</time></trkpt><trkpt lat="43.18634415909054" lon="12.023080000135144"><ele>262.0</ele><time>2026-03-23T15:56:03.001Z</time></trkpt><trkpt lat="43.186386599133634" lon="12.023180922596906"><ele>262.0</ele><time>2026-03-23T15:56:04.001Z</time></trkpt><trkpt lat="43.18641602601661" lon="12.023288292440204"><ele>262.0</ele><time>2026-03-23T15:56:05.001Z</time></trkpt><trkpt lat="43.186442524891596" lon="12.02339475486917"><ele>262.0</ele><time>2026-03-23T15:56:06.001Z</time></trkpt><trkpt lat="43.18646118961733" lon="12.023531113134204"><ele>262.0</ele><time>2026-03-23T15:56:07.001Z</time></trkpt><trkpt lat="43.186486347860566" lon="12.023670817723692"><ele>262.0</ele><time>2026-03-23T15:56:08.001Z</time></trkpt><trkpt lat="43.186516610086535" lon="12.023798554924557"><ele>262.0</ele><time>2026-03-23T15:56:09.001Z</time></trkpt><trkpt lat="43.18652661083923" lon="12.023917332641679"><ele>262.0</ele><time>2026-03-23T15:56:10.001Z</time></trkpt><trkpt lat="43.186556848650966" lon="12.024017176179786"><ele>262.0</ele><time>2026-03-23T15:56:11.001Z</time></trkpt><trkpt lat="43.18657344936305" lon="12.024148157987607"><ele>262.0</ele><time>2026-03-23T15:56:12.001Z</time></trkpt><trkpt lat="43.186601177738076" lon="12.024251391933776"><ele>262.0</ele><time>2026-03-23T15:56:13.001Z</time></trkpt><trkpt lat="43.18662209570528" lon="12.024347244699277"><ele>262.0</ele><time>2026-03-23T15:56:14.001Z</time></trkpt><trkpt lat="43.18664421263489" lon="12.02443226486714"><ele>262.0</ele><time>2026-03-23T15:56:15.001Z</time></trkpt><trkpt lat="43.18667879301485" lon="12.024593508094288"><ele>262.0</ele><time>2026-03-23T15:56:17.001Z</time></trkpt><trkpt lat="43.186699794328355" lon="12.024682483234782"><ele>262.0</ele><time>2026-03-23T15:56:18.001Z</time></trkpt><trkpt lat="43.18672937084276" lon="12.02478986802031"><ele>262.0</ele><time>2026-03-23T15:56:19.001Z</time></trkpt><trkpt lat="43.18675336365685" lon="12.02491069879983"><ele>262.0</ele><time>2026-03-23T15:56:20.001Z</time></trkpt><trkpt lat="43.186781162323925" lon="12.025052709350161"><ele>262.0</ele><time>2026-03-23T15:56:21.001Z</time></trkpt><trkpt lat="43.186814835324014" lon="12.025190538159013"><ele>262.0</ele><time>2026-03-23T15:56:22.001Z</time></trkpt><trkpt lat="43.18686414102626" lon="12.025338024013173"><ele>262.0</ele><time>2026-03-23T15:56:23.001Z</time></trkpt><trkpt lat="43.18690710980161" lon="12.025514518752379"><ele>262.0</ele><time>2026-03-23T15:56:24.001Z</time></trkpt><trkpt lat="43.186951730595396" lon="12.025716563139655"><ele>262.0</ele><time>2026-03-23T15:56:25.001Z</time></trkpt><trkpt lat="43.18700454572055" lon="12.025943602265569"><ele>262.0</ele><time>2026-03-23T15:56:26.001Z</time></trkpt><trkpt lat="43.187038785884205" lon="12.026162250637123"><ele>261.3333333333333</ele><time>2026-03-23T15:56:27.001Z</time></trkpt><trkpt lat="43.18707192966741" lon="12.02640136958817"><ele>260.6666666666667</ele><time>2026-03-23T15:56:28.001Z</time></trkpt><trkpt lat="43.18710106779863" lon="12.026633207021034"><ele>260.0</ele><time>2026-03-23T15:56:29.001Z</time></trkpt><trkpt lat="43.18712961362313" lon="12.026859528943747"><ele>259.6666666666667</ele><time>2026-03-23T15:56:30.001Z</time></trkpt><trkpt lat="43.18714677969839" lon="12.027079050041985"><ele>259.3333333333333</ele><time>2026-03-23T15:56:31.001Z</time></trkpt><trkpt lat="43.1871660137098" lon="12.027315803150787"><ele>259.0</ele><time>2026-03-23T15:56:32.001Z</time></trkpt><trkpt lat="43.18718917809878" lon="12.027535007504396"><ele>259.0</ele><time>2026-03-23T15:56:33Z</time></trkpt><trkpt lat="43.18720854581386" lon="12.027751192211147"><ele>259.0</ele><time>2026-03-23T15:56:34Z</time></trkpt><trkpt lat="43.187217943763635" lon="12.027971056401679"><ele>259.0</ele><time>2026-03-23T15:56:35Z</time></trkpt><trkpt lat="43.18721466193981" lon="12.02819050465034"><ele>259.66666666666663</ele><time>2026-03-23T15:56:36Z</time></trkpt><trkpt lat="43.18719750663286" lon="12.028417492842566"><ele>260.3333333333333</ele><time>2026-03-23T15:56:37Z</time></trkpt><trkpt lat="43.18716530943588" lon="12.028627965726422"><ele>261.0</ele><time>2026-03-23T15:56:38Z</time></trkpt><trkpt lat="43.18713876856643" lon="12.028858026964995"><ele>261.0</ele><time>2026-03-23T15:56:39Z</time></trkpt><trkpt lat="43.187104131755646" lon="12.02907868522365"><ele>261.0</ele><time>2026-03-23T15:56:40Z</time></trkpt><trkpt lat="43.187059107386425" lon="12.029297780024885"><ele>261.0</ele><time>2026-03-23T15:56:41Z</time></trkpt><trkpt lat="43.18701086381604" lon="12.02951626298571"><ele>261.0</ele><time>2026-03-23T15:56:42Z</time></trkpt><trkpt lat="43.18696772781549" lon="12.029728253362045"><ele>261.0</ele><time>2026-03-23T15:56:43Z</time></trkpt><trkpt lat="43.18691779491704" lon="12.029942513504599"><ele>261.0</ele><time>2026-03-23T15:56:44Z</time></trkpt><trkpt lat="43.186865505174374" lon="12.030165437894807"><ele>261.0</ele><time>2026-03-23T15:56:45Z</time></trkpt><trkpt lat="43.186816281121835" lon="12.030399451096008"><ele>261.0</ele><time>2026-03-23T15:56:46Z</time></trkpt><trkpt lat="43.1867660820584" lon="12.030644729479839"><ele>261.0</ele><time>2026-03-23T15:56:47Z</time></trkpt><trkpt lat="43.18671280780332" lon="12.03087526295629"><ele>260.6666666666667</ele><time>2026-03-23T15:56:48Z</time></trkpt><trkpt lat="43.18666148013101" lon="12.031119596702775"><ele>260.33333333333337</ele><time>2026-03-23T15:56:49Z</time></trkpt><trkpt lat="43.186610009618015" lon="12.03136329450014"><ele>260.0</ele><time>2026-03-23T15:56:50Z</time></trkpt><trkpt lat="43.18656310208289" lon="12.031599216164159"><ele>260.0</ele><time>2026-03-23T15:56:51Z</time></trkpt><trkpt lat="43.186518751485515" lon="12.031836254869777"><ele>260.0</ele><time>2026-03-23T15:56:52Z</time></trkpt><trkpt lat="43.18647157170506" lon="12.03207228116501"><ele>260.0</ele><time>2026-03-23T15:56:53Z</time></trkpt><trkpt lat="43.18640999363809" lon="12.03234123426622"><ele>259.6666666666667</ele><time>2026-03-23T15:56:54Z</time></trkpt><trkpt lat="43.18636015545095" lon="12.0325819219863"><ele>259.3333333333333</ele><time>2026-03-23T15:56:55Z</time></trkpt><trkpt lat="43.18631375839221" lon="12.032800998795938"><ele>259.0</ele><time>2026-03-23T15:56:56Z</time></trkpt><trkpt lat="43.18627146405713" lon="12.033020858742756"><ele>259.0</ele><time>2026-03-23T15:56:57Z</time></trkpt><trkpt lat="43.18623262277678" lon="12.03326071533555"><ele>259.0</ele><time>2026-03-23T15:56:58Z</time></trkpt><trkpt lat="43.18619071343291" lon="12.03351306489373"><ele>259.0</ele><time>2026-03-23T15:56:59Z</time></trkpt><trkpt lat="43.18615680565734" lon="12.033768703423824"><ele>259.3333333333333</ele><time>2026-03-23T15:57:00Z</time></trkpt><trkpt lat="43.186127980207495" lon="12.034015671476016"><ele>259.6666666666667</ele><time>2026-03-23T15:57:01Z</time></trkpt><trkpt lat="43.1860955108896" lon="12.03427411864841"><ele>260.0</ele><time>2026-03-23T15:57:02Z</time></trkpt><trkpt lat="43.18607059058157" lon="12.034533265730785"><ele>260.0</ele><time>2026-03-23T15:57:03Z</time></trkpt><trkpt lat="43.18605405295932" lon="12.03479758433804"><ele>260.0</ele><time>2026-03-23T15:57:04Z</time></trkpt><trkpt lat="43.18604296274999" lon="12.035053686637037"><ele>260.0</ele><time>2026-03-23T15:57:05Z</time></trkpt><trkpt lat="43.18603510108172" lon="12.03529545670874"><ele>260.0</ele><time>2026-03-23T15:57:06Z</time></trkpt><trkpt lat="43.18602808263301" lon="12.035514092475694"><ele>260.0</ele><time>2026-03-23T15:57:07Z</time></trkpt><trkpt lat="43.18602305442395" lon="12.035726625045154"><ele>260.0</ele><time>2026-03-23T15:57:08Z</time></trkpt><trkpt lat="43.18601646755517" lon="12.03592226101131"><ele>260.0</ele><time>2026-03-23T15:57:09Z</time></trkpt><trkpt lat="43.1860152591708" lon="12.036082434956498"><ele>260.0</ele><time>2026-03-23T15:57:10Z</time></trkpt><trkpt lat="43.18604225561247" lon="12.036248450198816"><ele>260.0</ele><time>2026-03-23T15:57:12Z</time></trkpt><trkpt lat="43.18607446304463" lon="12.036327732706475"><ele>260.0</ele><time>2026-03-23T15:57:13Z</time></trkpt><trkpt lat="43.186085859101034" lon="12.036415314599562"><ele>260.0</ele><time>2026-03-23T15:57:16Z</time></trkpt><trkpt lat="43.186082394932654" lon="12.036539410581769"><ele>260.0</ele><time>2026-03-23T15:57:19Z</time></trkpt><trkpt lat="43.186107163187536" lon="12.036634729699099"><ele>260.0</ele><time>2026-03-23T15:57:21Z</time></trkpt><trkpt lat="43.1861097472492" lon="12.036738505212872"><ele>260.0</ele><time>2026-03-23T15:57:23Z</time></trkpt><trkpt lat="43.18612027286383" lon="12.036880393935622"><ele>260.0</ele><time>2026-03-23T15:57:25Z</time></trkpt><trkpt lat="43.18613164887941" lon="12.036974819923378"><ele>260.0</ele><time>2026-03-23T15:57:26Z</time></trkpt><trkpt lat="43.186146702561565" lon="12.037061110005189"><ele>260.0</ele><time>2026-03-23T15:57:27Z</time></trkpt><trkpt lat="43.18614957005848" lon="12.037165051931316"><ele>259.8</ele><time>2026-03-23T15:57:28Z</time></trkpt><trkpt lat="43.18617522935334" lon="12.037294972688894"><ele>259.6</ele><time>2026-03-23T15:57:29Z</time></trkpt><trkpt lat="43.18621387258076" lon="12.037424068845386"><ele>259.4</ele><time>2026-03-23T15:57:30Z</time></trkpt><trkpt lat="43.18624529128108" lon="12.037564030583223"><ele>259.2</ele><time>2026-03-23T15:57:31Z</time></trkpt><trkpt lat="43.18627878617783" lon="12.037716393982162"><ele>259.0</ele><time>2026-03-23T15:57:32Z</time></trkpt><trkpt lat="43.18630682945986" lon="12.037839416623152"><ele>259.4</ele><time>2026-03-23T15:57:33Z</time></trkpt><trkpt lat="43.18634237254432" lon="12.037973310539519"><ele>259.79999999999995</ele><time>2026-03-23T15:57:34Z</time></trkpt><trkpt lat="43.18637739440969" lon="12.038115966528776"><ele>260.20000000000005</ele><time>2026-03-23T15:57:35Z</time></trkpt><trkpt lat="43.186405572690454" lon="12.038240617824009"><ele>260.6</ele><time>2026-03-23T15:57:36Z</time></trkpt><trkpt lat="43.18644244086458" lon="12.03837395254132"><ele>261.0</ele><time>2026-03-23T15:57:37Z</time></trkpt><trkpt lat="43.18648228014958" lon="12.038511902086514"><ele>262.0</ele><time>2026-03-23T15:57:38Z</time></trkpt><trkpt lat="43.18652210764733" lon="12.03866097266748"><ele>263.0</ele><time>2026-03-23T15:57:39Z</time></trkpt><trkpt lat="43.18655201033262" lon="12.038815358289781"><ele>264.0</ele><time>2026-03-23T15:57:40Z</time></trkpt><trkpt lat="43.18659753992012" lon="12.038969067260595"><ele>265.0</ele><time>2026-03-23T15:57:41Z</time></trkpt><trkpt lat="43.186625466024154" lon="12.039115926921083"><ele>264.6</ele><time>2026-03-23T15:57:42Z</time></trkpt><trkpt lat="43.18666245079834" lon="12.039256976662536"><ele>264.2</ele><time>2026-03-23T15:57:43Z</time></trkpt><trkpt lat="43.18670150411748" lon="12.039405915309594"><ele>263.8</ele><time>2026-03-23T15:57:44Z</time></trkpt><trkpt lat="43.18673970561948" lon="12.039550064882443"><ele>263.4</ele><time>2026-03-23T15:57:45Z</time></trkpt><trkpt lat="43.18677676112268" lon="12.039687829629505"><ele>263.0</ele><time>2026-03-23T15:57:46Z</time></trkpt><trkpt lat="43.186812909888175" lon="12.039822223329034"><ele>263.0</ele><time>2026-03-23T15:57:47Z</time></trkpt><trkpt lat="43.18684999052833" lon="12.039960081538165"><ele>263.0</ele><time>2026-03-23T15:57:48Z</time></trkpt><trkpt lat="43.186887820237445" lon="12.040100724558373"><ele>263.0</ele><time>2026-03-23T15:57:49Z</time></trkpt><trkpt lat="43.186928822857716" lon="12.040224604849588"><ele>263.0</ele><time>2026-03-23T15:57:50Z</time></trkpt><trkpt lat="43.186956658191626" lon="12.040359391956354"><ele>263.0</ele><time>2026-03-23T15:57:51Z</time></trkpt><trkpt lat="43.186967753629844" lon="12.04049872594515"><ele>262.5</ele><time>2026-03-23T15:57:52Z</time></trkpt><trkpt lat="43.18701375843454" lon="12.040628940562405"><ele>262.0</ele><time>2026-03-23T15:57:53Z</time></trkpt><trkpt lat="43.18704702857116" lon="12.040800988394567"><ele>261.5</ele><time>2026-03-23T15:57:54Z</time></trkpt><trkpt lat="43.18710230580881" lon="12.04096491448956"><ele>261.0</ele><time>2026-03-23T15:57:55Z</time></trkpt><trkpt lat="43.18715837908613" lon="12.041126141499072"><ele>260.75</ele><time>2026-03-23T15:57:56Z</time></trkpt><trkpt lat="43.18719856826024" lon="12.04127187884616"><ele>260.5</ele><time>2026-03-23T15:57:57Z</time></trkpt><trkpt lat="43.18724235827845" lon="12.041426655220254"><ele>260.25</ele><time>2026-03-23T15:57:58Z</time></trkpt><trkpt lat="43.187282838585276" lon="12.041586864638573"><ele>260.0</ele><time>2026-03-23T15:57:59Z</time></trkpt><trkpt lat="43.18732616642351" lon="12.04174036816433"><ele>260.0</ele><time>2026-03-23T15:58:00Z</time></trkpt><trkpt lat="43.187369419115456" lon="12.041892855225123"><ele>260.0</ele><time>2026-03-23T15:58:01Z</time></trkpt><trkpt lat="43.187410472347345" lon="12.042043775603831"><ele>260.0</ele><time>2026-03-23T15:58:02Z</time></trkpt><trkpt lat="43.187451059819445" lon="12.042187125324316"><ele>260.0</ele><time>2026-03-23T15:58:03Z</time></trkpt><trkpt lat="43.187499458289814" lon="12.042337128568956"><ele>260.0</ele><time>2026-03-23T15:58:04Z</time></trkpt><trkpt lat="43.18753919288665" lon="12.042485355378686"><ele>260.0</ele><time>2026-03-23T15:58:05Z</time></trkpt><trkpt lat="43.18757806383935" lon="12.042630711121369"><ele>260.0</ele><time>2026-03-23T15:58:06Z</time></trkpt><trkpt lat="43.18762228224582" lon="12.042777512761615"><ele>260.0</ele><time>2026-03-23T15:58:07Z</time></trkpt><trkpt lat="43.18766403749156" lon="12.04292946272336"><ele>260.0</ele><time>2026-03-23T15:58:08Z</time></trkpt><trkpt lat="43.18770536590967" lon="12.043083321905984"><ele>260.0</ele><time>2026-03-23T15:58:09Z</time></trkpt><trkpt lat="43.187748302131766" lon="12.04323671891103"><ele>260.0</ele><time>2026-03-23T15:58:10Z</time></trkpt><trkpt lat="43.18779104556231" lon="12.043393084643037"><ele>260.0</ele><time>2026-03-23T15:58:11Z</time></trkpt><trkpt lat="43.187831274439" lon="12.043542339688914"><ele>260.0</ele><time>2026-03-23T15:58:12Z</time></trkpt><trkpt lat="43.18786819661995" lon="12.043705645408739"><ele>260.0</ele><time>2026-03-23T15:58:13Z</time></trkpt><trkpt lat="43.1879109150359" lon="12.04386270248232"><ele>260.0</ele><time>2026-03-23T15:58:14Z</time></trkpt><trkpt lat="43.187951100033246" lon="12.04402454915622"><ele>260.0</ele><time>2026-03-23T15:58:15Z</time></trkpt><trkpt lat="43.18799106789157" lon="12.044178560998276"><ele>259.25</ele><time>2026-03-23T15:58:16Z</time></trkpt><trkpt lat="43.18802830723649" lon="12.044330798850979"><ele>258.5</ele><time>2026-03-23T15:58:17Z</time></trkpt><trkpt lat="43.188064176281244" lon="12.044472980003203"><ele>257.75</ele><time>2026-03-23T15:58:18Z</time></trkpt><trkpt lat="43.188102954807505" lon="12.044619661092458"><ele>257.0</ele><time>2026-03-23T15:58:19Z</time></trkpt><trkpt lat="43.18814085168238" lon="12.044772342938034"><ele>257.75</ele><time>2026-03-23T15:58:20Z</time></trkpt><trkpt lat="43.188182654714595" lon="12.044928652241344"><ele>258.5</ele><time>2026-03-23T15:58:21Z</time></trkpt><trkpt lat="43.18822319284832" lon="12.04508383836155"><ele>259.25</ele><time>2026-03-23T15:58:22Z</time></trkpt><trkpt lat="43.18826541442774" lon="12.045235622249177"><ele>260.0</ele><time>2026-03-23T15:58:23Z</time></trkpt><trkpt lat="43.18830514204733" lon="12.045394386399165"><ele>260.0</ele><time>2026-03-23T15:58:24Z</time></trkpt><trkpt lat="43.18834436156255" lon="12.045550640808353"><ele>260.0</ele><time>2026-03-23T15:58:25Z</time></trkpt><trkpt lat="43.18838283024022" lon="12.045715181615675"><ele>260.0</ele><time>2026-03-23T15:58:26Z</time></trkpt><trkpt lat="43.188419754230054" lon="12.04587734319803"><ele>260.0</ele><time>2026-03-23T15:58:27Z</time></trkpt><trkpt lat="43.18845019154018" lon="12.046029043327653"><ele>260.6</ele><time>2026-03-23T15:58:28Z</time></trkpt><trkpt lat="43.188481721832666" lon="12.04618374264658"><ele>261.2</ele><time>2026-03-23T15:58:29Z</time></trkpt><trkpt lat="43.18851145787078" lon="12.046329347794325"><ele>261.8</ele><time>2026-03-23T15:58:30Z</time></trkpt><trkpt lat="43.188563506789734" lon="12.046452292616694"><ele>262.4</ele><time>2026-03-23T15:58:31Z</time></trkpt><trkpt lat="43.18859797767813" lon="12.046567483072122"><ele>263.0</ele><time>2026-03-23T15:58:32Z</time></trkpt><trkpt lat="43.188638579424904" lon="12.046704547452721"><ele>263.0</ele><time>2026-03-23T15:58:33Z</time></trkpt><trkpt lat="43.18867914126486" lon="12.046835570507392"><ele>263.0</ele><time>2026-03-23T15:58:34Z</time></trkpt><trkpt lat="43.18871869926018" lon="12.046961419802239"><ele>263.0</ele><time>2026-03-23T15:58:35Z</time></trkpt><trkpt lat="43.1887546220721" lon="12.047068473368105"><ele>263.0</ele><time>2026-03-23T15:58:36.001Z</time></trkpt><trkpt lat="43.18878436507865" lon="12.047156301078974"><ele>263.0</ele><time>2026-03-23T15:58:37Z</time></trkpt><trkpt lat="43.18881265211098" lon="12.047238327671554"><ele>263.0</ele><time>2026-03-23T15:58:38Z</time></trkpt><trkpt lat="43.188842967361595" lon="12.04732623562961"><ele>263.0</ele><time>2026-03-23T15:58:39Z</time></trkpt><trkpt lat="43.18888331863107" lon="12.047443246005205"><ele>263.0</ele><time>2026-03-23T15:58:40Z</time></trkpt><trkpt lat="43.18893439656924" lon="12.047549663000897"><ele>263.0</ele><time>2026-03-23T15:58:41Z</time></trkpt><trkpt lat="43.18898745559855" lon="12.047649119726307"><ele>263.0</ele><time>2026-03-23T15:58:42Z</time></trkpt><trkpt lat="43.189031909427904" lon="12.04775097171505"><ele>263.0</ele><time>2026-03-23T15:58:43Z</time></trkpt><trkpt lat="43.18906421821743" lon="12.04786942515755"><ele>263.4</ele><time>2026-03-23T15:58:44Z</time></trkpt><trkpt lat="43.18909992416891" lon="12.047973647284213"><ele>263.8</ele><time>2026-03-23T15:58:45Z</time></trkpt><trkpt lat="43.189131236937136" lon="12.04807481179621"><ele>264.2</ele><time>2026-03-23T15:58:46Z</time></trkpt><trkpt lat="43.18917427059975" lon="12.048214528580809"><ele>264.6</ele><time>2026-03-23T15:58:48Z</time></trkpt><trkpt lat="43.18915213934941" lon="12.04832717102293"><ele>265.0</ele><time>2026-03-23T15:58:50Z</time></trkpt><trkpt lat="43.188986110075895" lon="12.048332166183819"><ele>265.0</ele><time>2026-03-23T15:58:52Z</time></trkpt><trkpt lat="43.188924500435434" lon="12.048425100124481"><ele>265.0</ele><time>2026-03-23T15:58:54Z</time></trkpt><trkpt lat="43.188919843322715" lon="12.048542004554028"><ele>265.0</ele><time>2026-03-23T15:58:57Z</time></trkpt><trkpt lat="43.1889322897907" lon="12.048698050838407"><ele>265.0</ele><time>2026-03-23T15:58:59Z</time></trkpt><trkpt lat="43.188986945117726" lon="12.048834315605282"><ele>265.0</ele><time>2026-03-23T15:59:01Z</time></trkpt><trkpt lat="43.18901684335717" lon="12.048918373435727"><ele>264.99999999999994</ele><time>2026-03-23T15:59:02Z</time></trkpt><trkpt lat="43.18905544121391" lon="12.049030286163148"><ele>265.0</ele><time>2026-03-23T15:59:03Z</time></trkpt><trkpt lat="43.18908665000162" lon="12.049121873092652"><ele>265.0</ele><time>2026-03-23T15:59:04Z</time></trkpt><trkpt lat="43.18909959562123" lon="12.049214545540078"><ele>265.0</ele><time>2026-03-23T15:59:05Z</time></trkpt><trkpt lat="43.189135992361294" lon="12.049290341751698"><ele>265.0</ele><time>2026-03-23T15:59:06Z</time></trkpt><trkpt lat="43.18917232798658" lon="12.049366555312151"><ele>264.99999999999994</ele><time>2026-03-23T15:59:07Z</time></trkpt><trkpt lat="43.189183430018794" lon="12.049456461821837"><ele>265.0</ele><time>2026-03-23T15:59:08Z</time></trkpt><trkpt lat="43.18920375306991" lon="12.049547953632862"><ele>265.0</ele><time>2026-03-23T15:59:09Z</time></trkpt><trkpt lat="43.18922560341746" lon="12.049636537747626"><ele>265.0</ele><time>2026-03-23T15:59:10Z</time></trkpt><trkpt lat="43.18924723155988" lon="12.049724221118172"><ele>265.0</ele><time>2026-03-23T15:59:11Z</time></trkpt><trkpt lat="43.18927402488987" lon="12.049845452342863"><ele>265.0</ele><time>2026-03-23T15:59:13Z</time></trkpt><trkpt lat="43.189325538255936" lon="12.050014251843223"><ele>265.0</ele><time>2026-03-23T15:59:15Z</time></trkpt><trkpt lat="43.18934438782739" lon="12.05011653804862"><ele>265.0</ele><time>2026-03-23T15:59:16Z</time></trkpt><trkpt lat="43.18938134800264" lon="12.050194410189139"><ele>264.3333333333333</ele><time>2026-03-23T15:59:17Z</time></trkpt><trkpt lat="43.18940832518404" lon="12.050282539539161"><ele>263.66666666666663</ele><time>2026-03-23T15:59:18Z</time></trkpt><trkpt lat="43.18945155843272" lon="12.050358425378594"><ele>263.0</ele><time>2026-03-23T15:59:19Z</time></trkpt><trkpt lat="43.18949680132631" lon="12.050438116430788"><ele>262.3333333333333</ele><time>2026-03-23T15:59:20Z</time></trkpt><trkpt lat="43.1895577016789" lon="12.050531315691915"><ele>261.6666666666667</ele><time>2026-03-23T15:59:21Z</time></trkpt><trkpt lat="43.189629158774046" lon="12.050650977910129"><ele>261.0</ele><time>2026-03-23T15:59:22Z</time></trkpt><trkpt lat="43.18968427245783" lon="12.050788230569108"><ele>261.8</ele><time>2026-03-23T15:59:23Z</time></trkpt><trkpt lat="43.18976332566187" lon="12.050925748707453"><ele>262.6</ele><time>2026-03-23T15:59:24Z</time></trkpt><trkpt lat="43.189842537595986" lon="12.051041155793262"><ele>263.4</ele><time>2026-03-23T15:59:25Z</time></trkpt><trkpt lat="43.18990325236606" lon="12.051145250167705"><ele>264.2</ele><time>2026-03-23T15:59:26Z</time></trkpt><trkpt lat="43.18995571907956" lon="12.051240322324082"><ele>265.0</ele><time>2026-03-23T15:59:27Z</time></trkpt><trkpt lat="43.19001173224017" lon="12.051334809964583"><ele>265.0</ele><time>2026-03-23T15:59:28Z</time></trkpt><trkpt lat="43.190068626183766" lon="12.051412295819729"><ele>265.0</ele><time>2026-03-23T15:59:29Z</time></trkpt><trkpt lat="43.190114956006695" lon="12.051476102294073"><ele>265.0</ele><time>2026-03-23T15:59:30Z</time></trkpt><trkpt lat="43.19016913800156" lon="12.051528486543706"><ele>265.0</ele><time>2026-03-23T15:59:31Z</time></trkpt><trkpt lat="43.19023701627534" lon="12.05158963047482"><ele>265.0</ele><time>2026-03-23T15:59:32Z</time></trkpt><trkpt lat="43.19032593984993" lon="12.051672160175025"><ele>265.0</ele><time>2026-03-23T15:59:33Z</time></trkpt><trkpt lat="43.19041724846531" lon="12.051759137324163"><ele>264.66666666666663</ele><time>2026-03-23T15:59:34Z</time></trkpt><trkpt lat="43.190484323832415" lon="12.051825098488253"><ele>264.3333333333333</ele><time>2026-03-23T15:59:35Z</time></trkpt><trkpt lat="43.19053660604356" lon="12.051876448488088"><ele>264.0</ele><time>2026-03-23T15:59:36Z</time></trkpt><trkpt lat="43.190594185685256" lon="12.051922997161657"><ele>263.6666666666667</ele><time>2026-03-23T15:59:38Z</time></trkpt><trkpt lat="43.19068450429871" lon="12.051911199965527"><ele>263.33333333333337</ele><time>2026-03-23T15:59:40Z</time></trkpt><trkpt lat="43.190749304945214" lon="12.05189121196298"><ele>263.0</ele><time>2026-03-23T15:59:41Z</time></trkpt><trkpt lat="43.19086343999159" lon="12.051901636055954"><ele>263.0</ele><time>2026-03-23T15:59:43Z</time></trkpt><trkpt lat="43.19091825073631" lon="12.051945363965062"><ele>263.0</ele><time>2026-03-23T15:59:44Z</time></trkpt><trkpt lat="43.1909716947413" lon="12.052026719642692"><ele>263.0</ele><time>2026-03-23T15:59:45Z</time></trkpt><trkpt lat="43.19103885258107" lon="12.05213513958753"><ele>263.0</ele><time>2026-03-23T15:59:46Z</time></trkpt><trkpt lat="43.19111762442349" lon="12.052248845689938"><ele>263.0</ele><time>2026-03-23T15:59:47Z</time></trkpt><trkpt lat="43.191176652151924" lon="12.05236434046227"><ele>262.0</ele><time>2026-03-23T15:59:48Z</time></trkpt><trkpt lat="43.191234211863545" lon="12.052504507348866"><ele>261.0</ele><time>2026-03-23T15:59:49Z</time></trkpt><trkpt lat="43.19128059706005" lon="12.052657951074043"><ele>260.0</ele><time>2026-03-23T15:59:50Z</time></trkpt><trkpt lat="43.1913405168145" lon="12.05282327363966"><ele>259.0</ele><time>2026-03-23T15:59:51Z</time></trkpt><trkpt lat="43.19139398462046" lon="12.052971101776226"><ele>259.0</ele><time>2026-03-23T15:59:52Z</time></trkpt><trkpt lat="43.19144631761274" lon="12.053155114502978"><ele>259.0</ele><time>2026-03-23T15:59:53Z</time></trkpt><trkpt lat="43.191504432894284" lon="12.053312529319909"><ele>259.0</ele><time>2026-03-23T15:59:54Z</time></trkpt><trkpt lat="43.19156203304762" lon="12.05346564444561"><ele>259.0</ele><time>2026-03-23T15:59:55Z</time></trkpt><trkpt lat="43.19161018520877" lon="12.053604455656505"><ele>259.0</ele><time>2026-03-23T15:59:56Z</time></trkpt><trkpt lat="43.19166079885248" lon="12.053749663238827"><ele>259.0</ele><time>2026-03-23T15:59:57Z</time></trkpt><trkpt lat="43.191716669757966" lon="12.05390792982912"><ele>259.0</ele><time>2026-03-23T15:59:58Z</time></trkpt><trkpt lat="43.19177933562623" lon="12.054056500487714"><ele>259.0</ele><time>2026-03-23T15:59:59Z</time></trkpt><trkpt lat="43.19183932387317" lon="12.054218508849136"><ele>259.0</ele><time>2026-03-23T16:00:00Z</time></trkpt><trkpt lat="43.19188267259764" lon="12.054381165145395"><ele>259.0</ele><time>2026-03-23T16:00:01Z</time></trkpt><trkpt lat="43.19193251536923" lon="12.054561605588553"><ele>259.0</ele><time>2026-03-23T16:00:02Z</time></trkpt><trkpt lat="43.19198655333316" lon="12.054744288511227"><ele>259.0</ele><time>2026-03-23T16:00:03Z</time></trkpt><trkpt lat="43.19203772344216" lon="12.05492921284206"><ele>258.5</ele><time>2026-03-23T16:00:04Z</time></trkpt><trkpt lat="43.1920863954921" lon="12.05510904484113"><ele>258.0</ele><time>2026-03-23T16:00:05Z</time></trkpt><trkpt lat="43.19213434012288" lon="12.055296065848921"><ele>257.5</ele><time>2026-03-23T16:00:06Z</time></trkpt><trkpt lat="43.192180822192306" lon="12.0554831252038"><ele>257.0</ele><time>2026-03-23T16:00:07Z</time></trkpt><trkpt lat="43.19221834452885" lon="12.055664856047885"><ele>257.25</ele><time>2026-03-23T16:00:08Z</time></trkpt><trkpt lat="43.192254215262494" lon="12.055853186963574"><ele>257.5</ele><time>2026-03-23T16:00:09Z</time></trkpt><trkpt lat="43.19229015838089" lon="12.05604296876406"><ele>257.75</ele><time>2026-03-23T16:00:10Z</time></trkpt><trkpt lat="43.19232587841529" lon="12.056237702512727"><ele>258.0</ele><time>2026-03-23T16:00:11Z</time></trkpt><trkpt lat="43.19236238495296" lon="12.0564313670631"><ele>258.3333333333333</ele><time>2026-03-23T16:00:12Z</time></trkpt><trkpt lat="43.192398892817074" lon="12.05663135753562"><ele>258.66666666666663</ele><time>2026-03-23T16:00:13Z</time></trkpt><trkpt lat="43.19243805530267" lon="12.056838608721707"><ele>259.0</ele><time>2026-03-23T16:00:14Z</time></trkpt><trkpt lat="43.1924733920787" lon="12.05704445052654"><ele>259.0</ele><time>2026-03-23T16:00:15Z</time></trkpt><trkpt lat="43.19250910607861" lon="12.057250329596258"><ele>259.0</ele><time>2026-03-23T16:00:16Z</time></trkpt><trkpt lat="43.19254525424684" lon="12.057457959693"><ele>259.0</ele><time>2026-03-23T16:00:17Z</time></trkpt><trkpt lat="43.192581244257106" lon="12.05765531865023"><ele>259.0</ele><time>2026-03-23T16:00:18Z</time></trkpt><trkpt lat="43.1926188621204" lon="12.05785701775004"><ele>259.0</ele><time>2026-03-23T16:00:19Z</time></trkpt><trkpt lat="43.19265385441272" lon="12.058047982699593"><ele>259.0</ele><time>2026-03-23T16:00:20Z</time></trkpt><trkpt lat="43.192687417154254" lon="12.058246985660912"><ele>259.0</ele><time>2026-03-23T16:00:21Z</time></trkpt><trkpt lat="43.1927234621806" lon="12.058442162112053"><ele>259.25</ele><time>2026-03-23T16:00:22Z</time></trkpt><trkpt lat="43.192759820530455" lon="12.058633707389788"><ele>259.5</ele><time>2026-03-23T16:00:23Z</time></trkpt><trkpt lat="43.19279520881626" lon="12.058818643950099"><ele>259.75</ele><time>2026-03-23T16:00:24Z</time></trkpt><trkpt lat="43.19282227024138" lon="12.058986288578835"><ele>260.0</ele><time>2026-03-23T16:00:25Z</time></trkpt><trkpt lat="43.19284896357631" lon="12.05914838835741"><ele>260.0</ele><time>2026-03-23T16:00:26Z</time></trkpt><trkpt lat="43.192875954887285" lon="12.05929822993058"><ele>260.0</ele><time>2026-03-23T16:00:27Z</time></trkpt><trkpt lat="43.19290772229986" lon="12.059439413391711"><ele>260.0</ele><time>2026-03-23T16:00:28Z</time></trkpt><trkpt lat="43.19293711265906" lon="12.059575088472338"><ele>260.0</ele><time>2026-03-23T16:00:29Z</time></trkpt><trkpt lat="43.192960662157766" lon="12.059720642244764"><ele>260.0</ele><time>2026-03-23T16:00:30Z</time></trkpt><trkpt lat="43.19297546785377" lon="12.059876230319293"><ele>260.0</ele><time>2026-03-23T16:00:31Z</time></trkpt><trkpt lat="43.193006638929816" lon="12.060035934622327"><ele>260.0</ele><time>2026-03-23T16:00:32Z</time></trkpt><trkpt lat="43.193040252778786" lon="12.060193517243816"><ele>260.0</ele><time>2026-03-23T16:00:33Z</time></trkpt><trkpt lat="43.19307433456774" lon="12.060372367675614"><ele>260.0</ele><time>2026-03-23T16:00:34Z</time></trkpt><trkpt lat="43.193103562316495" lon="12.060566936551055"><ele>260.0</ele><time>2026-03-23T16:00:35Z</time></trkpt><trkpt lat="43.19313306739233" lon="12.060756168671924"><ele>260.0</ele><time>2026-03-23T16:00:36Z</time></trkpt><trkpt lat="43.19317199107726" lon="12.060955024949232"><ele>260.0</ele><time>2026-03-23T16:00:37Z</time></trkpt><trkpt lat="43.19320806231095" lon="12.061140847998368"><ele>260.0</ele><time>2026-03-23T16:00:38Z</time></trkpt><trkpt lat="43.193244302950355" lon="12.06134382706783"><ele>260.33333333333337</ele><time>2026-03-23T16:00:39Z</time></trkpt><trkpt lat="43.19328361893998" lon="12.061556408745478"><ele>260.6666666666667</ele><time>2026-03-23T16:00:40Z</time></trkpt><trkpt lat="43.19331962158518" lon="12.061762636303664"><ele>261.0</ele><time>2026-03-23T16:00:41Z</time></trkpt><trkpt lat="43.19335217653476" lon="12.061950306472127"><ele>261.0</ele><time>2026-03-23T16:00:42Z</time></trkpt><trkpt lat="43.19338668942642" lon="12.062150259814654"><ele>261.0</ele><time>2026-03-23T16:00:43Z</time></trkpt><trkpt lat="43.193417758345596" lon="12.062343855899835"><ele>261.0</ele><time>2026-03-23T16:00:44Z</time></trkpt><trkpt lat="43.19345700767563" lon="12.062543293698068"><ele>261.0</ele><time>2026-03-23T16:00:45Z</time></trkpt><trkpt lat="43.1934951202975" lon="12.062744884014876"><ele>260.6666666666667</ele><time>2026-03-23T16:00:46Z</time></trkpt><trkpt lat="43.19352863884777" lon="12.062948061062869"><ele>260.33333333333337</ele><time>2026-03-23T16:00:47Z</time></trkpt><trkpt lat="43.19356354086362" lon="12.0631542816779"><ele>260.0</ele><time>2026-03-23T16:00:48Z</time></trkpt><trkpt lat="43.193598940065954" lon="12.063357355081036"><ele>260.0</ele><time>2026-03-23T16:00:49Z</time></trkpt><trkpt lat="43.19363827707976" lon="12.06355369969743"><ele>260.0</ele><time>2026-03-23T16:00:50Z</time></trkpt><trkpt lat="43.19368046002773" lon="12.063763855955058"><ele>260.0</ele><time>2026-03-23T16:00:51Z</time></trkpt><trkpt lat="43.19371985703028" lon="12.063962532496825"><ele>260.0</ele><time>2026-03-23T16:00:52Z</time></trkpt><trkpt lat="43.19375747221654" lon="12.064171843954735"><ele>260.0</ele><time>2026-03-23T16:00:53Z</time></trkpt><trkpt lat="43.193792560041544" lon="12.064382872097461"><ele>260.0</ele><time>2026-03-23T16:00:54Z</time></trkpt><trkpt lat="43.19382335458314" lon="12.064586052255525"><ele>260.0</ele><time>2026-03-23T16:00:55Z</time></trkpt><trkpt lat="43.193857315438365" lon="12.064788688905434"><ele>260.0</ele><time>2026-03-23T16:00:56Z</time></trkpt><trkpt lat="43.19389289729683" lon="12.06497840641955"><ele>260.0</ele><time>2026-03-23T16:00:57Z</time></trkpt><trkpt lat="43.19393308440418" lon="12.0651720271303"><ele>260.0</ele><time>2026-03-23T16:00:58Z</time></trkpt><trkpt lat="43.19396984499654" lon="12.065366571778414"><ele>260.0</ele><time>2026-03-23T16:00:59Z</time></trkpt><trkpt lat="43.19400608518593" lon="12.065564016934776"><ele>260.0</ele><time>2026-03-23T16:01:00Z</time></trkpt><trkpt lat="43.1940447816128" lon="12.065787469777165"><ele>260.0</ele><time>2026-03-23T16:01:01Z</time></trkpt><trkpt lat="43.1940847992977" lon="12.066004009477144"><ele>260.0</ele><time>2026-03-23T16:01:02Z</time></trkpt><trkpt lat="43.19412089425709" lon="12.066208432403867"><ele>260.0</ele><time>2026-03-23T16:01:03Z</time></trkpt><trkpt lat="43.19416239635117" lon="12.066405627484846"><ele>260.0</ele><time>2026-03-23T16:01:04Z</time></trkpt><trkpt lat="43.1941973975483" lon="12.066595458454303"><ele>260.0</ele><time>2026-03-23T16:01:05Z</time></trkpt><trkpt lat="43.19422967167293" lon="12.066786940279554"><ele>260.33333333333337</ele><time>2026-03-23T16:01:06Z</time></trkpt><trkpt lat="43.19426901173648" lon="12.066996572937121"><ele>260.6666666666667</ele><time>2026-03-23T16:01:07Z</time></trkpt><trkpt lat="43.194308237493104" lon="12.067203420170031"><ele>261.0</ele><time>2026-03-23T16:01:08Z</time></trkpt><trkpt lat="43.19434418346969" lon="12.067403912412564"><ele>261.0</ele><time>2026-03-23T16:01:09Z</time></trkpt><trkpt lat="43.19438369434756" lon="12.067609478879604"><ele>261.0</ele><time>2026-03-23T16:01:10Z</time></trkpt><trkpt lat="43.19441240005393" lon="12.06779674659982"><ele>261.0</ele><time>2026-03-23T16:01:11Z</time></trkpt><trkpt lat="43.19444795157368" lon="12.067990382288105"><ele>261.0</ele><time>2026-03-23T16:01:12Z</time></trkpt><trkpt lat="43.19448063412811" lon="12.068183574843658"><ele>260.75</ele><time>2026-03-23T16:01:13Z</time></trkpt><trkpt lat="43.194515748298315" lon="12.068376279562665"><ele>260.5</ele><time>2026-03-23T16:01:14Z</time></trkpt><trkpt lat="43.19454766861805" lon="12.068572047845597"><ele>260.25</ele><time>2026-03-23T16:01:15Z</time></trkpt><trkpt lat="43.19458304311395" lon="12.06876981534551"><ele>260.0</ele><time>2026-03-23T16:01:16Z</time></trkpt><trkpt lat="43.19462021344166" lon="12.068960176509666"><ele>260.25</ele><time>2026-03-23T16:01:17Z</time></trkpt><trkpt lat="43.194658407003914" lon="12.06915380764592"><ele>260.5</ele><time>2026-03-23T16:01:18Z</time></trkpt><trkpt lat="43.194696205238984" lon="12.069348599564453"><ele>260.75</ele><time>2026-03-23T16:01:19Z</time></trkpt><trkpt lat="43.19472739899345" lon="12.069530807038632"><ele>261.0</ele><time>2026-03-23T16:01:20Z</time></trkpt><trkpt lat="43.19476351090095" lon="12.0697099338482"><ele>261.0</ele><time>2026-03-23T16:01:21Z</time></trkpt><trkpt lat="43.194787913185145" lon="12.06988842074506"><ele>261.0</ele><time>2026-03-23T16:01:22Z</time></trkpt><trkpt lat="43.19481429865383" lon="12.070049726459391"><ele>261.0</ele><time>2026-03-23T16:01:23Z</time></trkpt><trkpt lat="43.19483743356699" lon="12.070200084922083"><ele>261.0</ele><time>2026-03-23T16:01:24Z</time></trkpt><trkpt lat="43.19485772070506" lon="12.070329052417383"><ele>261.0</ele><time>2026-03-23T16:01:25Z</time></trkpt><trkpt lat="43.19488044160079" lon="12.070445367511757"><ele>261.0</ele><time>2026-03-23T16:01:26Z</time></trkpt><trkpt lat="43.194897856181335" lon="12.07054453623066"><ele>261.0</ele><time>2026-03-23T16:01:27Z</time></trkpt><trkpt lat="43.194915367596174" lon="12.070664276966678"><ele>261.0</ele><time>2026-03-23T16:01:29Z</time></trkpt><trkpt lat="43.194823729976804" lon="12.07074088805788"><ele>261.0</ele><time>2026-03-23T16:01:32Z</time></trkpt><trkpt lat="43.19473416932937" lon="12.070771815776693"><ele>261.2</ele><time>2026-03-23T16:01:33Z</time></trkpt><trkpt lat="43.19464023699733" lon="12.070817885644297"><ele>261.40000000000003</ele><time>2026-03-23T16:01:34Z</time></trkpt><trkpt lat="43.19455648714557" lon="12.070860376491064"><ele>261.6</ele><time>2026-03-23T16:01:35Z</time></trkpt><trkpt lat="43.19445785599808" lon="12.070928122354138"><ele>261.8</ele><time>2026-03-23T16:01:36Z</time></trkpt><trkpt lat="43.194346243919014" lon="12.070993960565895"><ele>262.0</ele><time>2026-03-23T16:01:37Z</time></trkpt><trkpt lat="43.19422389156863" lon="12.071061992336325"><ele>262.0</ele><time>2026-03-23T16:01:38Z</time></trkpt><trkpt lat="43.194105829432274" lon="12.071125887369169"><ele>262.0</ele><time>2026-03-23T16:01:39Z</time></trkpt><trkpt lat="43.193999811977996" lon="12.07118755485618"><ele>262.0</ele><time>2026-03-23T16:01:40Z</time></trkpt><trkpt lat="43.19390677440401" lon="12.071225330472437"><ele>262.0</ele><time>2026-03-23T16:01:41Z</time></trkpt><trkpt lat="43.193838676669905" lon="12.071256970274233"><ele>262.0</ele><time>2026-03-23T16:01:42Z</time></trkpt><trkpt lat="43.193693682717324" lon="12.07132951727716"><ele>261.8333333333333</ele><time>2026-03-23T16:01:44Z</time></trkpt><trkpt lat="43.1936245627299" lon="12.07135359754005"><ele>261.66666666666663</ele><time>2026-03-23T16:01:46Z</time></trkpt><trkpt lat="43.19356203810397" lon="12.071379551482089"><ele>261.5</ele><time>2026-03-23T16:01:48Z</time></trkpt><trkpt lat="43.1934643878951" lon="12.07142403911742"><ele>261.3333333333333</ele><time>2026-03-23T16:01:50Z</time></trkpt><trkpt lat="43.19337068477636" lon="12.071467300641173"><ele>261.1666666666667</ele><time>2026-03-23T16:01:52Z</time></trkpt><trkpt lat="43.19329680678204" lon="12.071501463961804"><ele>261.0</ele><time>2026-03-23T16:01:53Z</time></trkpt><trkpt lat="43.19321643072903" lon="12.07154628132652"><ele>261.25</ele><time>2026-03-23T16:01:54Z</time></trkpt><trkpt lat="43.19311213850348" lon="12.071613566964798"><ele>261.5</ele><time>2026-03-23T16:01:55Z</time></trkpt><trkpt lat="43.19299449282976" lon="12.071675935993476"><ele>261.75</ele><time>2026-03-23T16:01:56Z</time></trkpt><trkpt lat="43.19287270717101" lon="12.07173121073201"><ele>262.0</ele><time>2026-03-23T16:01:57Z</time></trkpt><trkpt lat="43.192740080943004" lon="12.071785759533325"><ele>262.0</ele><time>2026-03-23T16:01:58Z</time></trkpt><trkpt lat="43.19261858598976" lon="12.071845576675898"><ele>262.0</ele><time>2026-03-23T16:01:59Z</time></trkpt><trkpt lat="43.19248806091912" lon="12.071907535335196"><ele>262.0</ele><time>2026-03-23T16:02:00Z</time></trkpt><trkpt lat="43.19236596671298" lon="12.071966437189172"><ele>262.0</ele><time>2026-03-23T16:02:01Z</time></trkpt><trkpt lat="43.19223784735966" lon="12.072032700357584"><ele>261.75</ele><time>2026-03-23T16:02:02Z</time></trkpt><trkpt lat="43.19211838289833" lon="12.072089299142997"><ele>261.5</ele><time>2026-03-23T16:02:03Z</time></trkpt><trkpt lat="43.191992659398274" lon="12.072150661760858"><ele>261.25</ele><time>2026-03-23T16:02:04Z</time></trkpt><trkpt lat="43.19187285671271" lon="12.072210736725578"><ele>261.0</ele><time>2026-03-23T16:02:05Z</time></trkpt><trkpt lat="43.1917689568983" lon="12.072261604897339"><ele>261.0</ele><time>2026-03-23T16:02:06Z</time></trkpt><trkpt lat="43.19165743053844" lon="12.07231373180077"><ele>261.0</ele><time>2026-03-23T16:02:07Z</time></trkpt><trkpt lat="43.191555858022234" lon="12.072365441438135"><ele>261.0</ele><time>2026-03-23T16:02:08Z</time></trkpt><trkpt lat="43.19146224781187" lon="12.072430951968029"><ele>261.0</ele><time>2026-03-23T16:02:09Z</time></trkpt><trkpt lat="43.19135513653399" lon="12.072495466053265"><ele>261.0</ele><time>2026-03-23T16:02:10Z</time></trkpt><trkpt lat="43.19125211968751" lon="12.072585357135655"><ele>261.5</ele><time>2026-03-23T16:02:11Z</time></trkpt><trkpt lat="43.19114525032022" lon="12.072670562639471"><ele>262.0</ele><time>2026-03-23T16:02:12Z</time></trkpt><trkpt lat="43.19104346506584" lon="12.072707807803578"><ele>262.5</ele><time>2026-03-23T16:02:13Z</time></trkpt><trkpt lat="43.190926137880865" lon="12.072759465743493"><ele>263.0</ele><time>2026-03-23T16:02:14Z</time></trkpt><trkpt lat="43.19080394524753" lon="12.072808311954109"><ele>263.0</ele><time>2026-03-23T16:02:15Z</time></trkpt><trkpt lat="43.190694849549836" lon="12.072851922624741"><ele>263.0</ele><time>2026-03-23T16:02:16Z</time></trkpt><trkpt lat="43.19059560165798" lon="12.07289159682944"><ele>263.0</ele><time>2026-03-23T16:02:17Z</time></trkpt><trkpt lat="43.19051068878241" lon="12.072928253899278"><ele>263.0</ele><time>2026-03-23T16:02:18Z</time></trkpt><trkpt lat="43.1904311665051" lon="12.07296538644219"><ele>263.0</ele><time>2026-03-23T16:02:19Z</time></trkpt><trkpt lat="43.19035296568117" lon="12.073004275944319"><ele>262.83333333333337</ele><time>2026-03-23T16:02:20Z</time></trkpt><trkpt lat="43.19029004897386" lon="12.073061957307225"><ele>262.6666666666667</ele><time>2026-03-23T16:02:21Z</time></trkpt><trkpt lat="43.190225920618396" lon="12.073112517953232"><ele>262.5</ele><time>2026-03-23T16:02:22Z</time></trkpt><trkpt lat="43.19016603896842" lon="12.073166301947397"><ele>262.3333333333333</ele><time>2026-03-23T16:02:24Z</time></trkpt><trkpt lat="43.19016721198334" lon="12.073261718184424"><ele>262.16666666666663</ele><time>2026-03-23T16:02:27Z</time></trkpt><trkpt lat="43.190258823224625" lon="12.073324323107926"><ele>262.0</ele><time>2026-03-23T16:02:30Z</time></trkpt><trkpt lat="43.19035407033103" lon="12.073279922798651"><ele>262.2</ele><time>2026-03-23T16:02:32Z</time></trkpt><trkpt lat="43.19043182973097" lon="12.07322486796561"><ele>262.4</ele><time>2026-03-23T16:02:33Z</time></trkpt><trkpt lat="43.19052624039602" lon="12.073182438649997"><ele>262.6</ele><time>2026-03-23T16:02:34Z</time></trkpt><trkpt lat="43.19063762242169" lon="12.07310779181641"><ele>262.8</ele><time>2026-03-23T16:02:35Z</time></trkpt><trkpt lat="43.190757546494076" lon="12.07305716543391"><ele>263.0</ele><time>2026-03-23T16:02:36Z</time></trkpt><trkpt lat="43.1908818401012" lon="12.073008695307214"><ele>263.0</ele><time>2026-03-23T16:02:37Z</time></trkpt><trkpt lat="43.19100692015383" lon="12.072958648085375"><ele>263.0</ele><time>2026-03-23T16:02:38Z</time></trkpt><trkpt lat="43.19113929177632" lon="12.072910708731264"><ele>263.0</ele><time>2026-03-23T16:02:39Z</time></trkpt><trkpt lat="43.19126485836879" lon="12.07282704315859"><ele>263.0</ele><time>2026-03-23T16:02:40Z</time></trkpt><trkpt lat="43.19138715370362" lon="12.072735915669096"><ele>263.0</ele><time>2026-03-23T16:02:41Z</time></trkpt><trkpt lat="43.191500770993564" lon="12.072661008947465"><ele>263.0</ele><time>2026-03-23T16:02:42Z</time></trkpt><trkpt lat="43.19161761783505" lon="12.072583814199014"><ele>263.0</ele><time>2026-03-23T16:02:43Z</time></trkpt><trkpt lat="43.19174108455002" lon="12.072510342727501"><ele>263.0</ele><time>2026-03-23T16:02:44Z</time></trkpt><trkpt lat="43.19186680331588" lon="12.072439333973959"><ele>262.75</ele><time>2026-03-23T16:02:45Z</time></trkpt><trkpt lat="43.19199696310844" lon="12.07237256184073"><ele>262.5</ele><time>2026-03-23T16:02:46Z</time></trkpt><trkpt lat="43.192121446556655" lon="12.072312432863393"><ele>262.25</ele><time>2026-03-23T16:02:47Z</time></trkpt><trkpt lat="43.192247422953436" lon="12.072248770981513"><ele>262.0</ele><time>2026-03-23T16:02:48Z</time></trkpt><trkpt lat="43.19236158906198" lon="12.072195711084401"><ele>262.0</ele><time>2026-03-23T16:02:49Z</time></trkpt><trkpt lat="43.19246989959646" lon="12.072144977897674"><ele>262.0</ele><time>2026-03-23T16:02:50Z</time></trkpt><trkpt lat="43.19256969751929" lon="12.072099165156692"><ele>262.0</ele><time>2026-03-23T16:02:51Z</time></trkpt><trkpt lat="43.19267452716921" lon="12.07204723770833"><ele>262.0</ele><time>2026-03-23T16:02:52Z</time></trkpt><trkpt lat="43.192781249463145" lon="12.071995534448336"><ele>262.0</ele><time>2026-03-23T16:02:53Z</time></trkpt><trkpt lat="43.1928841506507" lon="12.07195208905776"><ele>262.0</ele><time>2026-03-23T16:02:54Z</time></trkpt><trkpt lat="43.19298375296355" lon="12.071913494711234"><ele>262.0</ele><time>2026-03-23T16:02:55Z</time></trkpt><trkpt lat="43.19308481727955" lon="12.071873734270866"><ele>262.0</ele><time>2026-03-23T16:02:56Z</time></trkpt><trkpt lat="43.19318854795704" lon="12.071824780593994"><ele>262.0</ele><time>2026-03-23T16:02:57Z</time></trkpt><trkpt lat="43.19330013991834" lon="12.071764974830062"><ele>262.0</ele><time>2026-03-23T16:02:58Z</time></trkpt><trkpt lat="43.19341335290919" lon="12.071704685407578"><ele>261.75</ele><time>2026-03-23T16:02:59Z</time></trkpt><trkpt lat="43.193530370287384" lon="12.07164122326618"><ele>261.5</ele><time>2026-03-23T16:03:00Z</time></trkpt><trkpt lat="43.19364991328569" lon="12.071580455128322"><ele>261.25</ele><time>2026-03-23T16:03:01Z</time></trkpt><trkpt lat="43.193770271210475" lon="12.071518099239231"><ele>261.0</ele><time>2026-03-23T16:03:02Z</time></trkpt><trkpt lat="43.19388540340986" lon="12.07145872911324"><ele>261.0</ele><time>2026-03-23T16:03:03Z</time></trkpt><trkpt lat="43.19399815963895" lon="12.071398089359334"><ele>261.0</ele><time>2026-03-23T16:03:04Z</time></trkpt><trkpt lat="43.194120861229734" lon="12.0713363479054"><ele>261.0</ele><time>2026-03-23T16:03:05Z</time></trkpt><trkpt lat="43.19425276288651" lon="12.071272629828853"><ele>261.0</ele><time>2026-03-23T16:03:06Z</time></trkpt><trkpt lat="43.194374635353824" lon="12.071214871882493"><ele>261.2</ele><time>2026-03-23T16:03:07Z</time></trkpt><trkpt lat="43.1944912197416" lon="12.071151903189827"><ele>261.40000000000003</ele><time>2026-03-23T16:03:08Z</time></trkpt><trkpt lat="43.19459911315664" lon="12.071096814406353"><ele>261.6</ele><time>2026-03-23T16:03:09Z</time></trkpt><trkpt lat="43.19469422433213" lon="12.07104459076249"><ele>261.8</ele><time>2026-03-23T16:03:10Z</time></trkpt><trkpt lat="43.19477191367332" lon="12.071003601212608"><ele>262.0</ele><time>2026-03-23T16:03:11Z</time></trkpt><trkpt lat="43.19487758658554" lon="12.070994720788963"><ele>262.2</ele><time>2026-03-23T16:03:13Z</time></trkpt><trkpt lat="43.19496867118271" lon="12.0710723638092"><ele>262.4</ele><time>2026-03-23T16:03:15Z</time></trkpt><trkpt lat="43.1950124341218" lon="12.071235900150635"><ele>262.6</ele><time>2026-03-23T16:03:17Z</time></trkpt><trkpt lat="43.19502579829351" lon="12.071339287754412"><ele>262.8</ele><time>2026-03-23T16:03:18Z</time></trkpt><trkpt lat="43.195050213686734" lon="12.071491524662648"><ele>263.0</ele><time>2026-03-23T16:03:19Z</time></trkpt><trkpt lat="43.195069310745204" lon="12.07163991613896"><ele>262.5</ele><time>2026-03-23T16:03:20Z</time></trkpt><trkpt lat="43.19509724499842" lon="12.071809105756445"><ele>262.0</ele><time>2026-03-23T16:03:21Z</time></trkpt><trkpt lat="43.195121938615195" lon="12.071976948572978"><ele>261.5</ele><time>2026-03-23T16:03:22Z</time></trkpt><trkpt lat="43.19514834807578" lon="12.072136841462719"><ele>261.0</ele><time>2026-03-23T16:03:23Z</time></trkpt><trkpt lat="43.19517797082856" lon="12.072298348602766"><ele>261.25</ele><time>2026-03-23T16:03:24Z</time></trkpt><trkpt lat="43.1952056299215" lon="12.072473513482137"><ele>261.5</ele><time>2026-03-23T16:03:25Z</time></trkpt><trkpt lat="43.195231950993566" lon="12.072649177451897"><ele>261.75</ele><time>2026-03-23T16:03:26Z</time></trkpt><trkpt lat="43.1952603545063" lon="12.072832562173984"><ele>262.0</ele><time>2026-03-23T16:03:27Z</time></trkpt><trkpt lat="43.1952916446761" lon="12.073010991348992"><ele>262.0</ele><time>2026-03-23T16:03:28Z</time></trkpt><trkpt lat="43.19533077616423" lon="12.07320573699152"><ele>262.0</ele><time>2026-03-23T16:03:29Z</time></trkpt><trkpt lat="43.1953632839154" lon="12.073391877234753"><ele>262.0</ele><time>2026-03-23T16:03:30Z</time></trkpt><trkpt lat="43.195404258190365" lon="12.073583270357473"><ele>262.0</ele><time>2026-03-23T16:03:31Z</time></trkpt><trkpt lat="43.19543894060475" lon="12.073776841158521"><ele>261.75</ele><time>2026-03-23T16:03:32Z</time></trkpt><trkpt lat="43.19545705127064" lon="12.073977533810579"><ele>261.5</ele><time>2026-03-23T16:03:33Z</time></trkpt><trkpt lat="43.19549426014456" lon="12.074172498573935"><ele>261.25</ele><time>2026-03-23T16:03:34Z</time></trkpt><trkpt lat="43.19554560916892" lon="12.074368657464769"><ele>261.0</ele><time>2026-03-23T16:03:35Z</time></trkpt><trkpt lat="43.195582178352105" lon="12.074567941174566"><ele>261.0</ele><time>2026-03-23T16:03:36Z</time></trkpt><trkpt lat="43.19561781760234" lon="12.074770855475908"><ele>261.0</ele><time>2026-03-23T16:03:37Z</time></trkpt><trkpt lat="43.19565383223213" lon="12.074974859214901"><ele>261.0</ele><time>2026-03-23T16:03:38Z</time></trkpt><trkpt lat="43.19569109441596" lon="12.075190990634209"><ele>261.0</ele><time>2026-03-23T16:03:39Z</time></trkpt><trkpt lat="43.195723398241476" lon="12.075388748927876"><ele>261.0</ele><time>2026-03-23T16:03:40Z</time></trkpt><trkpt lat="43.19575853456903" lon="12.0755957082159"><ele>261.0</ele><time>2026-03-23T16:03:41Z</time></trkpt><trkpt lat="43.19579353190196" lon="12.075803538951662"><ele>261.0</ele><time>2026-03-23T16:03:42Z</time></trkpt><trkpt lat="43.195824180908154" lon="12.075985828014497"><ele>261.0</ele><time>2026-03-23T16:03:43Z</time></trkpt><trkpt lat="43.19585510136636" lon="12.076166022397443"><ele>261.0</ele><time>2026-03-23T16:03:44Z</time></trkpt><trkpt lat="43.195881636494775" lon="12.076326309096235"><ele>261.0</ele><time>2026-03-23T16:03:45Z</time></trkpt><trkpt lat="43.19590699097117" lon="12.07646497864936"><ele>261.0</ele><time>2026-03-23T16:03:46Z</time></trkpt><trkpt lat="43.19593171124379" lon="12.076589164026053"><ele>261.0</ele><time>2026-03-23T16:03:47Z</time></trkpt><trkpt lat="43.19595154775079" lon="12.076701406084833"><ele>261.0</ele><time>2026-03-23T16:03:48Z</time></trkpt><trkpt lat="43.19596540350791" lon="12.076809665534313"><ele>261.0</ele><time>2026-03-23T16:03:49Z</time></trkpt><trkpt lat="43.195973889852674" lon="12.076920054102686"><ele>261.0</ele><time>2026-03-23T16:03:50Z</time></trkpt><trkpt lat="43.19596892419074" lon="12.077041933255737"><ele>261.0</ele><time>2026-03-23T16:03:51Z</time></trkpt><trkpt lat="43.19592423558574" lon="12.077148387635667"><ele>261.0</ele><time>2026-03-23T16:03:52Z</time></trkpt><trkpt lat="43.19589855120768" lon="12.077270802679108"><ele>261.0</ele><time>2026-03-23T16:03:53Z</time></trkpt><trkpt lat="43.195849376001455" lon="12.077374478506226"><ele>261.0</ele><time>2026-03-23T16:03:54Z</time></trkpt><trkpt lat="43.19581176001686" lon="12.077459581837429"><ele>261.0</ele><time>2026-03-23T16:03:55Z</time></trkpt><trkpt lat="43.195782914081725" lon="12.077591533306748"><ele>261.0</ele><time>2026-03-23T16:03:57Z</time></trkpt><trkpt lat="43.195778156892416" lon="12.077713655947969"><ele>261.0</ele><time>2026-03-23T16:03:59Z</time></trkpt><trkpt lat="43.19589992138055" lon="12.077679663628894"><ele>261.0</ele><time>2026-03-23T16:04:03Z</time></trkpt><trkpt lat="43.19597537506856" lon="12.077793797282888"><ele>261.0</ele><time>2026-03-23T16:04:04Z</time></trkpt><trkpt lat="43.19606710254899" lon="12.077829866759366"><ele>261.0</ele><time>2026-03-23T16:04:06Z</time></trkpt><trkpt lat="43.196139959347704" lon="12.077936594586582"><ele>261.0</ele><time>2026-03-23T16:04:08Z</time></trkpt><trkpt lat="43.196153329281664" lon="12.078027838571531"><ele>261.0</ele><time>2026-03-23T16:04:09Z</time></trkpt><trkpt lat="43.19618195876311" lon="12.078137486021358"><ele>261.0</ele><time>2026-03-23T16:04:10Z</time></trkpt><trkpt lat="43.196217013924965" lon="12.078262453422402"><ele>261.0</ele><time>2026-03-23T16:04:11Z</time></trkpt><trkpt lat="43.196241680909424" lon="12.078423751991307"><ele>261.0</ele><time>2026-03-23T16:04:12Z</time></trkpt><trkpt lat="43.19625715615575" lon="12.078570323452192"><ele>261.0</ele><time>2026-03-23T16:04:13Z</time></trkpt><trkpt lat="43.196281440711104" lon="12.078723795783121"><ele>261.0</ele><time>2026-03-23T16:04:14Z</time></trkpt><trkpt lat="43.19631084647258" lon="12.078878745316585"><ele>260.5</ele><time>2026-03-23T16:04:15Z</time></trkpt><trkpt lat="43.19634441591326" lon="12.079037138218116"><ele>260.0</ele><time>2026-03-23T16:04:16Z</time></trkpt><trkpt lat="43.196380752585995" lon="12.079200791455419"><ele>259.5</ele><time>2026-03-23T16:04:17Z</time></trkpt><trkpt lat="43.19641120602525" lon="12.079364772358954"><ele>259.0</ele><time>2026-03-23T16:04:18Z</time></trkpt><trkpt lat="43.19644611881616" lon="12.079527838969186"><ele>259.0</ele><time>2026-03-23T16:04:19Z</time></trkpt><trkpt lat="43.19647706640664" lon="12.079694930576643"><ele>259.0</ele><time>2026-03-23T16:04:20Z</time></trkpt><trkpt lat="43.19650653849139" lon="12.079865099052247"><ele>259.0</ele><time>2026-03-23T16:04:21Z</time></trkpt><trkpt lat="43.196532291802676" lon="12.080025073670356"><ele>259.0</ele><time>2026-03-23T16:04:22Z</time></trkpt><trkpt lat="43.19655817925813" lon="12.080176443806659"><ele>259.25</ele><time>2026-03-23T16:04:23Z</time></trkpt><trkpt lat="43.196591195328544" lon="12.080341658362983"><ele>259.5</ele><time>2026-03-23T16:04:24Z</time></trkpt><trkpt lat="43.19662496705883" lon="12.080515363629736"><ele>259.75</ele><time>2026-03-23T16:04:25Z</time></trkpt><trkpt lat="43.19665670747292" lon="12.080687726189042"><ele>260.0</ele><time>2026-03-23T16:04:26Z</time></trkpt><trkpt lat="43.19668531818331" lon="12.080861874190049"><ele>260.0</ele><time>2026-03-23T16:04:27Z</time></trkpt><trkpt lat="43.196714190181886" lon="12.08103349200915"><ele>260.0</ele><time>2026-03-23T16:04:28Z</time></trkpt><trkpt lat="43.19674784086975" lon="12.081199950564562"><ele>260.0</ele><time>2026-03-23T16:04:29Z</time></trkpt><trkpt lat="43.196776747463886" lon="12.081367281807692"><ele>260.0</ele><time>2026-03-23T16:04:30Z</time></trkpt><trkpt lat="43.19680592237165" lon="12.081532651787038"><ele>260.0</ele><time>2026-03-23T16:04:31Z</time></trkpt><trkpt lat="43.196827582003046" lon="12.081689463530545"><ele>260.0</ele><time>2026-03-23T16:04:32Z</time></trkpt><trkpt lat="43.19685102957586" lon="12.081853282885724"><ele>260.0</ele><time>2026-03-23T16:04:33Z</time></trkpt><trkpt lat="43.19687779811561" lon="12.082039278924986"><ele>260.0</ele><time>2026-03-23T16:04:34Z</time></trkpt><trkpt lat="43.19690281464628" lon="12.082233066907603"><ele>260.0</ele><time>2026-03-23T16:04:35Z</time></trkpt><trkpt lat="43.19692930320277" lon="12.08242547753606"><ele>260.0</ele><time>2026-03-23T16:04:36Z</time></trkpt><trkpt lat="43.196950415363716" lon="12.082594714075919"><ele>260.0</ele><time>2026-03-23T16:04:37Z</time></trkpt><trkpt lat="43.196969523879936" lon="12.082770764974725"><ele>260.0</ele><time>2026-03-23T16:04:38Z</time></trkpt><trkpt lat="43.196984328684174" lon="12.082966518014802"><ele>259.75</ele><time>2026-03-23T16:04:39Z</time></trkpt><trkpt lat="43.19699673626536" lon="12.083164133428655"><ele>259.5</ele><time>2026-03-23T16:04:40Z</time></trkpt><trkpt lat="43.197005711100154" lon="12.083343173093205"><ele>259.25</ele><time>2026-03-23T16:04:41Z</time></trkpt><trkpt lat="43.19701867261177" lon="12.083535975622638"><ele>259.0</ele><time>2026-03-23T16:04:42Z</time></trkpt><trkpt lat="43.197028867141015" lon="12.083714094522216"><ele>259.0</ele><time>2026-03-23T16:04:43Z</time></trkpt><trkpt lat="43.19703938421877" lon="12.083896366686039"><ele>259.0</ele><time>2026-03-23T16:04:44Z</time></trkpt><trkpt lat="43.19704417918026" lon="12.084092709146573"><ele>259.0</ele><time>2026-03-23T16:04:45Z</time></trkpt><trkpt lat="43.19703951038895" lon="12.084291562056444"><ele>259.0</ele><time>2026-03-23T16:04:46Z</time></trkpt><trkpt lat="43.19702945794228" lon="12.084487302359017"><ele>259.25</ele><time>2026-03-23T16:04:47Z</time></trkpt><trkpt lat="43.197016505149136" lon="12.084692063949738"><ele>259.5</ele><time>2026-03-23T16:04:48Z</time></trkpt><trkpt lat="43.196998154689496" lon="12.084894958259905"><ele>259.75</ele><time>2026-03-23T16:04:49Z</time></trkpt><trkpt lat="43.196988910808926" lon="12.08508888170196"><ele>260.0</ele><time>2026-03-23T16:04:50Z</time></trkpt><trkpt lat="43.19697369051654" lon="12.085287581316479"><ele>259.75</ele><time>2026-03-23T16:04:51Z</time></trkpt><trkpt lat="43.19695907648517" lon="12.085477053692484"><ele>259.5</ele><time>2026-03-23T16:04:52Z</time></trkpt><trkpt lat="43.19694144027269" lon="12.085662777364043"><ele>259.25</ele><time>2026-03-23T16:04:53Z</time></trkpt><trkpt lat="43.19691219533062" lon="12.085847953309997"><ele>259.0</ele><time>2026-03-23T16:04:54Z</time></trkpt><trkpt lat="43.19690956959056" lon="12.086036294163451"><ele>259.0</ele><time>2026-03-23T16:04:55Z</time></trkpt><trkpt lat="43.19689017605004" lon="12.08624716043996"><ele>259.0</ele><time>2026-03-23T16:04:56Z</time></trkpt><trkpt lat="43.19686711402201" lon="12.086453915936543"><ele>259.0</ele><time>2026-03-23T16:04:57Z</time></trkpt><trkpt lat="43.19684467075153" lon="12.086655371188161"><ele>259.0</ele><time>2026-03-23T16:04:58Z</time></trkpt><trkpt lat="43.19682252164735" lon="12.08685812990257"><ele>259.0</ele><time>2026-03-23T16:04:59Z</time></trkpt><trkpt lat="43.19680611143129" lon="12.087073055681786"><ele>259.0</ele><time>2026-03-23T16:05:00Z</time></trkpt><trkpt lat="43.19677606062133" lon="12.087294035362916"><ele>259.0</ele><time>2026-03-23T16:05:01Z</time></trkpt><trkpt lat="43.1967517627449" lon="12.087514408798274"><ele>259.0</ele><time>2026-03-23T16:05:02Z</time></trkpt><trkpt lat="43.19672740626514" lon="12.087700286989334"><ele>259.0</ele><time>2026-03-23T16:05:03Z</time></trkpt><trkpt lat="43.19669548308249" lon="12.087909877097946"><ele>259.0</ele><time>2026-03-23T16:05:04Z</time></trkpt><trkpt lat="43.196665832716725" lon="12.088115231990107"><ele>259.0</ele><time>2026-03-23T16:05:05Z</time></trkpt><trkpt lat="43.19663500539426" lon="12.08830966917929"><ele>259.0</ele><time>2026-03-23T16:05:06Z</time></trkpt><trkpt lat="43.196603073696195" lon="12.088530642470813"><ele>259.3333333333333</ele><time>2026-03-23T16:05:07Z</time></trkpt><trkpt lat="43.19657136481821" lon="12.088742057580646"><ele>259.6666666666667</ele><time>2026-03-23T16:05:08Z</time></trkpt><trkpt lat="43.19654034409805" lon="12.088949818035383"><ele>260.0</ele><time>2026-03-23T16:05:09Z</time></trkpt><trkpt lat="43.19651033970028" lon="12.089149281530375"><ele>259.75</ele><time>2026-03-23T16:05:10Z</time></trkpt><trkpt lat="43.19648148935737" lon="12.089351774960862"><ele>259.5</ele><time>2026-03-23T16:05:11Z</time></trkpt><trkpt lat="43.19645471499723" lon="12.089540723320656"><ele>259.25</ele><time>2026-03-23T16:05:12Z</time></trkpt><trkpt lat="43.19643303890528" lon="12.089696123552075"><ele>259.0</ele><time>2026-03-23T16:05:13Z</time></trkpt><trkpt lat="43.196414072980126" lon="12.08983747886538"><ele>259.2</ele><time>2026-03-23T16:05:14Z</time></trkpt><trkpt lat="43.196395331551756" lon="12.089955394890454"><ele>259.4</ele><time>2026-03-23T16:05:15Z</time></trkpt><trkpt lat="43.19637810460276" lon="12.090038558987747"><ele>259.6</ele><time>2026-03-23T16:05:16Z</time></trkpt><trkpt lat="43.196350553753774" lon="12.090136896562079"><ele>259.8</ele><time>2026-03-23T16:05:17Z</time></trkpt><trkpt lat="43.19634974025094" lon="12.090282140316365"><ele>260.0</ele><time>2026-03-23T16:05:18Z</time></trkpt><trkpt lat="43.196332642470416" lon="12.090446726663375"><ele>260.0</ele><time>2026-03-23T16:05:19Z</time></trkpt><trkpt lat="43.196325137353526" lon="12.090631778648861"><ele>260.0</ele><time>2026-03-23T16:05:20Z</time></trkpt><trkpt lat="43.196292387743725" lon="12.09083298808879"><ele>260.0</ele><time>2026-03-23T16:05:21Z</time></trkpt><trkpt lat="43.196290155467274" lon="12.091015403539696"><ele>260.0</ele><time>2026-03-23T16:05:22Z</time></trkpt><trkpt lat="43.19625091158818" lon="12.091195004388055"><ele>260.0</ele><time>2026-03-23T16:05:23Z</time></trkpt><trkpt lat="43.196225125716275" lon="12.09137973351687"><ele>260.0</ele><time>2026-03-23T16:05:24Z</time></trkpt><trkpt lat="43.19619366297809" lon="12.09156135712841"><ele>260.0</ele><time>2026-03-23T16:05:25Z</time></trkpt><trkpt lat="43.19616220236987" lon="12.091741540344396"><ele>260.0</ele><time>2026-03-23T16:05:26Z</time></trkpt><trkpt lat="43.1961350039784" lon="12.091928842483602"><ele>260.0</ele><time>2026-03-23T16:05:27Z</time></trkpt><trkpt lat="43.19611003231171" lon="12.092115185353128"><ele>260.0</ele><time>2026-03-23T16:05:28Z</time></trkpt><trkpt lat="43.19608548754275" lon="12.092298805544724"><ele>260.0</ele><time>2026-03-23T16:05:29Z</time></trkpt><trkpt lat="43.19605995035537" lon="12.092497135817414"><ele>260.0</ele><time>2026-03-23T16:05:30Z</time></trkpt><trkpt lat="43.19603510110152" lon="12.092690123054073"><ele>259.6666666666667</ele><time>2026-03-23T16:05:31Z</time></trkpt><trkpt lat="43.196008907940396" lon="12.09289354773518"><ele>259.3333333333333</ele><time>2026-03-23T16:05:32Z</time></trkpt><trkpt lat="43.19598128386098" lon="12.093108085626703"><ele>259.0</ele><time>2026-03-23T16:05:33Z</time></trkpt><trkpt lat="43.19595519119831" lon="12.093309699148776"><ele>259.0</ele><time>2026-03-23T16:05:34Z</time></trkpt><trkpt lat="43.19594715799629" lon="12.093496322645722"><ele>259.0</ele><time>2026-03-23T16:05:35Z</time></trkpt><trkpt lat="43.19592126810433" lon="12.093681545036294"><ele>259.0</ele><time>2026-03-23T16:05:36Z</time></trkpt><trkpt lat="43.19589634565754" lon="12.093869183378505"><ele>259.0</ele><time>2026-03-23T16:05:37Z</time></trkpt><trkpt lat="43.19587026450918" lon="12.09405740790267"><ele>259.25</ele><time>2026-03-23T16:05:38Z</time></trkpt><trkpt lat="43.19584665121181" lon="12.094238683199592"><ele>259.5</ele><time>2026-03-23T16:05:39Z</time></trkpt><trkpt lat="43.195805724481986" lon="12.09442001473865"><ele>259.75</ele><time>2026-03-23T16:05:40Z</time></trkpt><trkpt lat="43.19579691179509" lon="12.094608921303324"><ele>260.0</ele><time>2026-03-23T16:05:41Z</time></trkpt><trkpt lat="43.19575424135907" lon="12.094798790245724"><ele>260.0</ele><time>2026-03-23T16:05:42Z</time></trkpt><trkpt lat="43.195729510445574" lon="12.094980742756402"><ele>260.0</ele><time>2026-03-23T16:05:43Z</time></trkpt><trkpt lat="43.195705177293156" lon="12.095159768466242"><ele>260.0</ele><time>2026-03-23T16:05:44Z</time></trkpt><trkpt lat="43.19568057435976" lon="12.09533797134301"><ele>260.0</ele><time>2026-03-23T16:05:45Z</time></trkpt><trkpt lat="43.1956675054816" lon="12.095547465275079"><ele>259.75</ele><time>2026-03-23T16:05:46Z</time></trkpt><trkpt lat="43.195632134135465" lon="12.095735038361239"><ele>259.5</ele><time>2026-03-23T16:05:47Z</time></trkpt><trkpt lat="43.195595335797535" lon="12.095922754972968"><ele>259.25</ele><time>2026-03-23T16:05:48Z</time></trkpt><trkpt lat="43.19558262581536" lon="12.096109310158687"><ele>259.0</ele><time>2026-03-23T16:05:49Z</time></trkpt><trkpt lat="43.19553858834359" lon="12.096296994614281"><ele>259.0</ele><time>2026-03-23T16:05:50Z</time></trkpt><trkpt lat="43.195505625230496" lon="12.096496716099677"><ele>259.0</ele><time>2026-03-23T16:05:51Z</time></trkpt><trkpt lat="43.195476992249446" lon="12.096692223785448"><ele>259.0</ele><time>2026-03-23T16:05:52Z</time></trkpt><trkpt lat="43.195467740654664" lon="12.096903796284783"><ele>259.0</ele><time>2026-03-23T16:05:53Z</time></trkpt><trkpt lat="43.1954411419945" lon="12.0971081695753"><ele>258.75</ele><time>2026-03-23T16:05:54Z</time></trkpt><trkpt lat="43.19541305509682" lon="12.097313719845397"><ele>258.5</ele><time>2026-03-23T16:05:55Z</time></trkpt><trkpt lat="43.19538607992464" lon="12.097528077455735"><ele>258.25</ele><time>2026-03-23T16:05:56Z</time></trkpt><trkpt lat="43.19536187513396" lon="12.097707892420432"><ele>258.0</ele><time>2026-03-23T16:05:57Z</time></trkpt><trkpt lat="43.195344119254834" lon="12.097887842697164"><ele>258.0</ele><time>2026-03-23T16:05:58Z</time></trkpt><trkpt lat="43.195319688706576" lon="12.098085725074771"><ele>258.0</ele><time>2026-03-23T16:05:59Z</time></trkpt><trkpt lat="43.195297579514886" lon="12.098273349593999"><ele>258.0</ele><time>2026-03-23T16:06:00Z</time></trkpt><trkpt lat="43.1952763344955" lon="12.098432298969184"><ele>258.0</ele><time>2026-03-23T16:06:01Z</time></trkpt><trkpt lat="43.19525458366334" lon="12.098578223533897"><ele>258.0</ele><time>2026-03-23T16:06:02Z</time></trkpt><trkpt lat="43.19523287395898" lon="12.098721616801676"><ele>258.0</ele><time>2026-03-23T16:06:03Z</time></trkpt><trkpt lat="43.19521037971576" lon="12.09889185153126"><ele>258.0</ele><time>2026-03-23T16:06:04Z</time></trkpt><trkpt lat="43.19519261836321" lon="12.099042198582024"><ele>258.0</ele><time>2026-03-23T16:06:05Z</time></trkpt><trkpt lat="43.19517567821641" lon="12.099189985451785"><ele>258.0</ele><time>2026-03-23T16:06:06Z</time></trkpt><trkpt lat="43.19515498639324" lon="12.099336626716044"><ele>258.0</ele><time>2026-03-23T16:06:07Z</time></trkpt><trkpt lat="43.1951320634938" lon="12.099467490459963"><ele>258.0</ele><time>2026-03-23T16:06:08Z</time></trkpt><trkpt lat="43.1951040762379" lon="12.099586138402085"><ele>258.0</ele><time>2026-03-23T16:06:09Z</time></trkpt><trkpt lat="43.195081775237966" lon="12.099700277793035"><ele>258.0</ele><time>2026-03-23T16:06:10Z</time></trkpt><trkpt lat="43.19506174194046" lon="12.099809322041892"><ele>258.0</ele><time>2026-03-23T16:06:11Z</time></trkpt><trkpt lat="43.19504511166725" lon="12.099914086814536"><ele>258.0</ele><time>2026-03-23T16:06:12Z</time></trkpt><trkpt lat="43.19503274457821" lon="12.10001820723598"><ele>258.0</ele><time>2026-03-23T16:06:13Z</time></trkpt><trkpt lat="43.195020104472825" lon="12.100154773743434"><ele>258.0</ele><time>2026-03-23T16:06:14Z</time></trkpt><trkpt lat="43.19500268015839" lon="12.100316051377245"><ele>258.0</ele><time>2026-03-23T16:06:15Z</time></trkpt><trkpt lat="43.194980701544104" lon="12.100477296256171"><ele>258.25</ele><time>2026-03-23T16:06:16Z</time></trkpt><trkpt lat="43.194957073005234" lon="12.100626846564243"><ele>258.5</ele><time>2026-03-23T16:06:17Z</time></trkpt><trkpt lat="43.19493261347925" lon="12.100790557622126"><ele>258.75</ele><time>2026-03-23T16:06:18Z</time></trkpt><trkpt lat="43.19491211944072" lon="12.100952920555784"><ele>259.0</ele><time>2026-03-23T16:06:19Z</time></trkpt><trkpt lat="43.19488710401943" lon="12.101114234794114"><ele>259.0</ele><time>2026-03-23T16:06:20Z</time></trkpt><trkpt lat="43.19485987234713" lon="12.101272904688397"><ele>259.0</ele><time>2026-03-23T16:06:21Z</time></trkpt><trkpt lat="43.19483977088689" lon="12.101438441851503"><ele>259.0</ele><time>2026-03-23T16:06:22Z</time></trkpt><trkpt lat="43.19482021288937" lon="12.10160823442932"><ele>259.0</ele><time>2026-03-23T16:06:23Z</time></trkpt><trkpt lat="43.19479993036428" lon="12.101767388968831"><ele>258.75</ele><time>2026-03-23T16:06:24Z</time></trkpt><trkpt lat="43.194782006557325" lon="12.101930984627538"><ele>258.5</ele><time>2026-03-23T16:06:25Z</time></trkpt><trkpt lat="43.19476228454978" lon="12.102102201944907"><ele>258.25</ele><time>2026-03-23T16:06:26Z</time></trkpt><trkpt lat="43.19473887421596" lon="12.102248416045926"><ele>258.0</ele><time>2026-03-23T16:06:27Z</time></trkpt><trkpt lat="43.19470769813406" lon="12.102395791067677"><ele>258.0</ele><time>2026-03-23T16:06:28Z</time></trkpt><trkpt lat="43.19467968019448" lon="12.102537378249442"><ele>258.0</ele><time>2026-03-23T16:06:29Z</time></trkpt><trkpt lat="43.194654177125244" lon="12.102687159017927"><ele>258.0</ele><time>2026-03-23T16:06:30Z</time></trkpt><trkpt lat="43.19463362370008" lon="12.102835723497876"><ele>258.0</ele><time>2026-03-23T16:06:31Z</time></trkpt><trkpt lat="43.19461182903101" lon="12.102993117910568"><ele>258.0</ele><time>2026-03-23T16:06:32Z</time></trkpt><trkpt lat="43.194593231340136" lon="12.103138843880032"><ele>258.0</ele><time>2026-03-23T16:06:33Z</time></trkpt><trkpt lat="43.19457653349169" lon="12.103283645552398"><ele>258.0</ele><time>2026-03-23T16:06:34Z</time></trkpt><trkpt lat="43.194560660051025" lon="12.1034187204413"><ele>258.0</ele><time>2026-03-23T16:06:35Z</time></trkpt><trkpt lat="43.19453626433902" lon="12.103561438830662"><ele>258.0</ele><time>2026-03-23T16:06:36Z</time></trkpt><trkpt lat="43.19451513156407" lon="12.103696979337913"><ele>258.0</ele><time>2026-03-23T16:06:37Z</time></trkpt><trkpt lat="43.19449488954428" lon="12.10384022560015"><ele>258.0</ele><time>2026-03-23T16:06:38Z</time></trkpt><trkpt lat="43.19447453377435" lon="12.103993154608514"><ele>258.0</ele><time>2026-03-23T16:06:39Z</time></trkpt><trkpt lat="43.19445308340686" lon="12.104149885297277"><ele>258.0</ele><time>2026-03-23T16:06:40Z</time></trkpt><trkpt lat="43.19443258600961" lon="12.104301474617099"><ele>258.0</ele><time>2026-03-23T16:06:41Z</time></trkpt><trkpt lat="43.19441142528976" lon="12.104450271484003"><ele>258.0</ele><time>2026-03-23T16:06:42Z</time></trkpt><trkpt lat="43.194392114787426" lon="12.10459164042651"><ele>258.0</ele><time>2026-03-23T16:06:43Z</time></trkpt><trkpt lat="43.19436890985078" lon="12.104757566463155"><ele>258.0</ele><time>2026-03-23T16:06:44Z</time></trkpt><trkpt lat="43.19434945974169" lon="12.104930252317534"><ele>258.0</ele><time>2026-03-23T16:06:45Z</time></trkpt><trkpt lat="43.19432753242068" lon="12.105101587081986"><ele>258.0</ele><time>2026-03-23T16:06:46Z</time></trkpt><trkpt lat="43.19430928522936" lon="12.105269695598635"><ele>258.0</ele><time>2026-03-23T16:06:47Z</time></trkpt><trkpt lat="43.194285451912165" lon="12.10543873300399"><ele>258.0</ele><time>2026-03-23T16:06:48Z</time></trkpt><trkpt lat="43.19426203062797" lon="12.105610045378052"><ele>258.0</ele><time>2026-03-23T16:06:49Z</time></trkpt><trkpt lat="43.19423738555822" lon="12.10579183168"><ele>258.25</ele><time>2026-03-23T16:06:50Z</time></trkpt><trkpt lat="43.1942110548553" lon="12.10599057095419"><ele>258.5</ele><time>2026-03-23T16:06:51Z</time></trkpt><trkpt lat="43.19418388487845" lon="12.106186086004339"><ele>258.75</ele><time>2026-03-23T16:06:52Z</time></trkpt><trkpt lat="43.19416045312517" lon="12.106372962816227"><ele>259.0</ele><time>2026-03-23T16:06:53Z</time></trkpt><trkpt lat="43.19413651948197" lon="12.106557187964864"><ele>259.25</ele><time>2026-03-23T16:06:54Z</time></trkpt><trkpt lat="43.194114747888285" lon="12.106744689708734"><ele>259.5</ele><time>2026-03-23T16:06:55Z</time></trkpt><trkpt lat="43.1940875061884" lon="12.10692026805414"><ele>259.75</ele><time>2026-03-23T16:06:56Z</time></trkpt><trkpt lat="43.19406179396445" lon="12.107101060484005"><ele>260.0</ele><time>2026-03-23T16:06:57Z</time></trkpt><trkpt lat="43.19403371141303" lon="12.107284459621047"><ele>260.2</ele><time>2026-03-23T16:06:58Z</time></trkpt><trkpt lat="43.19401022103236" lon="12.107449519474848"><ele>260.4</ele><time>2026-03-23T16:06:59Z</time></trkpt><trkpt lat="43.19398470785313" lon="12.107579798171294"><ele>260.6</ele><time>2026-03-23T16:07:00Z</time></trkpt><trkpt lat="43.19396564834014" lon="12.107747005123771"><ele>260.8</ele><time>2026-03-23T16:07:01Z</time></trkpt><trkpt lat="43.19395175665257" lon="12.107867299268532"><ele>261.0</ele><time>2026-03-23T16:07:02Z</time></trkpt><trkpt lat="43.19394152869279" lon="12.107967239114734"><ele>260.5</ele><time>2026-03-23T16:07:03Z</time></trkpt><trkpt lat="43.193908295494715" lon="12.108051261049487"><ele>260.0</ele><time>2026-03-23T16:07:04Z</time></trkpt><trkpt lat="43.19388543284763" lon="12.108156651938451"><ele>259.5</ele><time>2026-03-23T16:07:06Z</time></trkpt><trkpt lat="43.193805201581476" lon="12.108170264276868"><ele>259.0</ele><time>2026-03-23T16:07:08Z</time></trkpt><trkpt lat="43.19373261962305" lon="12.108110232866318"><ele>258.5</ele><time>2026-03-23T16:07:09Z</time></trkpt><trkpt lat="43.193665192751595" lon="12.108062146709253"><ele>258.0</ele><time>2026-03-23T16:07:10Z</time></trkpt><trkpt lat="43.193596919471446" lon="12.108024031033723"><ele>258.0</ele><time>2026-03-23T16:07:11Z</time></trkpt><trkpt lat="43.193536574367386" lon="12.107995504316289"><ele>258.0</ele><time>2026-03-23T16:07:12Z</time></trkpt><trkpt lat="43.193429911567065" lon="12.107981140912049"><ele>258.0</ele><time>2026-03-23T16:07:14Z</time></trkpt><trkpt lat="43.19336900015735" lon="12.108022806646833"><ele>258.0</ele><time>2026-03-23T16:07:15Z</time></trkpt><trkpt lat="43.19332025635685" lon="12.108113194939538"><ele>258.0</ele><time>2026-03-23T16:07:16Z</time></trkpt><trkpt lat="43.19327408195206" lon="12.108186383233624"><ele>258.0</ele><time>2026-03-23T16:07:17Z</time></trkpt><trkpt lat="43.19320498992437" lon="12.108279708683582"><ele>258.0</ele><time>2026-03-23T16:07:18Z</time></trkpt><trkpt lat="43.193129634138565" lon="12.108407318731867"><ele>258.0</ele><time>2026-03-23T16:07:19Z</time></trkpt><trkpt lat="43.19305963162946" lon="12.108564537188798"><ele>258.0</ele><time>2026-03-23T16:07:20Z</time></trkpt><trkpt lat="43.19297408192423" lon="12.10870831408965"><ele>258.0</ele><time>2026-03-23T16:07:21Z</time></trkpt><trkpt lat="43.19288216339241" lon="12.108839794335191"><ele>258.0</ele><time>2026-03-23T16:07:22Z</time></trkpt><trkpt lat="43.192808775105554" lon="12.108986553894757"><ele>258.0</ele><time>2026-03-23T16:07:23Z</time></trkpt><trkpt lat="43.19272417497763" lon="12.109135270812482"><ele>258.0</ele><time>2026-03-23T16:07:24Z</time></trkpt><trkpt lat="43.192644806887905" lon="12.109268886096414"><ele>258.0</ele><time>2026-03-23T16:07:25Z</time></trkpt><trkpt lat="43.19258121364759" lon="12.109379642788818"><ele>257.8</ele><time>2026-03-23T16:07:26Z</time></trkpt><trkpt lat="43.192501462096345" lon="12.109473498857298"><ele>257.6</ele><time>2026-03-23T16:07:27Z</time></trkpt><trkpt lat="43.19242415346622" lon="12.109600749076172"><ele>257.4</ele><time>2026-03-23T16:07:28Z</time></trkpt><trkpt lat="43.19237997441756" lon="12.109711955349322"><ele>257.2</ele><time>2026-03-23T16:07:29Z</time></trkpt><trkpt lat="43.19232946934343" lon="12.109792828503803"><ele>257.0</ele><time>2026-03-23T16:07:30Z</time></trkpt><trkpt lat="43.192284739006105" lon="12.109940152554742"><ele>257.4</ele><time>2026-03-23T16:07:32Z</time></trkpt><trkpt lat="43.19226466981129" lon="12.110048387875013"><ele>257.79999999999995</ele><time>2026-03-23T16:07:33Z</time></trkpt><trkpt lat="43.19224885869096" lon="12.110144071940597"><ele>258.2</ele><time>2026-03-23T16:07:34Z</time></trkpt><trkpt lat="43.192223224536384" lon="12.110232812140778"><ele>258.59999999999997</ele><time>2026-03-23T16:07:35Z</time></trkpt><trkpt lat="43.19219156940812" lon="12.110391689511356"><ele>259.0</ele><time>2026-03-23T16:07:37Z</time></trkpt><trkpt lat="43.192160511851114" lon="12.110542639270633"><ele>259.0</ele><time>2026-03-23T16:07:39Z</time></trkpt><trkpt lat="43.192147855286805" lon="12.11063052720979"><ele>259.0</ele><time>2026-03-23T16:07:40Z</time></trkpt><trkpt lat="43.19217352650578" lon="12.110806076623767"><ele>259.0</ele><time>2026-03-23T16:07:42Z</time></trkpt><trkpt lat="43.192216390267404" lon="12.110915621344287"><ele>259.0</ele><time>2026-03-23T16:07:43Z</time></trkpt><trkpt lat="43.19227615816074" lon="12.111038277042772"><ele>259.0</ele><time>2026-03-23T16:07:44Z</time></trkpt><trkpt lat="43.19234249877925" lon="12.111155827754565"><ele>258.75</ele><time>2026-03-23T16:07:45Z</time></trkpt><trkpt lat="43.19238658384199" lon="12.111265262398083"><ele>258.5</ele><time>2026-03-23T16:07:46Z</time></trkpt><trkpt lat="43.19244351831657" lon="12.111409443017589"><ele>258.25</ele><time>2026-03-23T16:07:47Z</time></trkpt><trkpt lat="43.1924917660716" lon="12.111562215941028"><ele>258.0</ele><time>2026-03-23T16:07:48Z</time></trkpt><trkpt lat="43.19250502781665" lon="12.11173928131081"><ele>258.0</ele><time>2026-03-23T16:07:49Z</time></trkpt><trkpt lat="43.192527114445404" lon="12.111928581799347"><ele>258.0</ele><time>2026-03-23T16:07:50Z</time></trkpt><trkpt lat="43.19255693950607" lon="12.112129990885295"><ele>258.0</ele><time>2026-03-23T16:07:51Z</time></trkpt><trkpt lat="43.192595401726436" lon="12.11232308356462"><ele>258.0</ele><time>2026-03-23T16:07:52Z</time></trkpt><trkpt lat="43.19264631581166" lon="12.112529244088389"><ele>258.0</ele><time>2026-03-23T16:07:53Z</time></trkpt><trkpt lat="43.192705065111255" lon="12.112720270588689"><ele>258.0</ele><time>2026-03-23T16:07:54Z</time></trkpt><trkpt lat="43.192752769686045" lon="12.112914680325927"><ele>258.0</ele><time>2026-03-23T16:07:55Z</time></trkpt><trkpt lat="43.1927970765073" lon="12.113101791857233"><ele>258.0</ele><time>2026-03-23T16:07:56Z</time></trkpt><trkpt lat="43.19281692516763" lon="12.113274151443749"><ele>258.0</ele><time>2026-03-23T16:07:57Z</time></trkpt><trkpt lat="43.19284989180255" lon="12.113459332560971"><ele>258.0</ele><time>2026-03-23T16:07:58Z</time></trkpt><trkpt lat="43.192847657487896" lon="12.113661054192313"><ele>258.0</ele><time>2026-03-23T16:07:59Z</time></trkpt><trkpt lat="43.192847790477764" lon="12.113840383421854"><ele>258.0</ele><time>2026-03-23T16:08:00Z</time></trkpt><trkpt lat="43.19282770176625" lon="12.11402209513079"><ele>258.3333333333333</ele><time>2026-03-23T16:08:01Z</time></trkpt><trkpt lat="43.19280252777769" lon="12.114233068169586"><ele>258.66666666666663</ele><time>2026-03-23T16:08:02Z</time></trkpt><trkpt lat="43.19277990890036" lon="12.114436638046541"><ele>259.0</ele><time>2026-03-23T16:08:03Z</time></trkpt><trkpt lat="43.192758256488915" lon="12.114643822950958"><ele>259.0</ele><time>2026-03-23T16:08:04Z</time></trkpt><trkpt lat="43.192758344324965" lon="12.114853961646663"><ele>259.0</ele><time>2026-03-23T16:08:05Z</time></trkpt><trkpt lat="43.192746541814905" lon="12.11506604126872"><ele>259.0</ele><time>2026-03-23T16:08:06Z</time></trkpt><trkpt lat="43.19273554843892" lon="12.11527036988851"><ele>259.25</ele><time>2026-03-23T16:08:07Z</time></trkpt><trkpt lat="43.192713191550546" lon="12.115456376449774"><ele>259.5</ele><time>2026-03-23T16:08:08Z</time></trkpt><trkpt lat="43.19272191466805" lon="12.115638191601292"><ele>259.75</ele><time>2026-03-23T16:08:09Z</time></trkpt><trkpt lat="43.19271520939152" lon="12.115804790637755"><ele>260.0</ele><time>2026-03-23T16:08:10Z</time></trkpt><trkpt lat="43.19271125030781" lon="12.115961794462812"><ele>260.0</ele><time>2026-03-23T16:08:11Z</time></trkpt><trkpt lat="43.19270231804754" lon="12.11610218948728"><ele>260.0</ele><time>2026-03-23T16:08:12Z</time></trkpt><trkpt lat="43.1926971773585" lon="12.116233723247612"><ele>260.0</ele><time>2026-03-23T16:08:13Z</time></trkpt><trkpt lat="43.192691122334814" lon="12.116352117475643"><ele>260.0</ele><time>2026-03-23T16:08:14Z</time></trkpt><trkpt lat="43.19268630954049" lon="12.116461180092877"><ele>260.0</ele><time>2026-03-23T16:08:15Z</time></trkpt><trkpt lat="43.192678038137494" lon="12.116572470809158"><ele>260.0</ele><time>2026-03-23T16:08:16Z</time></trkpt><trkpt lat="43.19267239669842" lon="12.116682179604405"><ele>260.4</ele><time>2026-03-23T16:08:17Z</time></trkpt><trkpt lat="43.192672255742316" lon="12.116816225652352"><ele>260.8</ele><time>2026-03-23T16:08:18Z</time></trkpt><trkpt lat="43.19266534877791" lon="12.116919267754753"><ele>261.2</ele><time>2026-03-23T16:08:19Z</time></trkpt><trkpt lat="43.19266566319848" lon="12.117022318121487"><ele>261.6</ele><time>2026-03-23T16:08:20Z</time></trkpt><trkpt lat="43.192670330429756" lon="12.117151506756704"><ele>262.0</ele><time>2026-03-23T16:08:22Z</time></trkpt><trkpt lat="43.19272307224367" lon="12.117288745508434"><ele>262.0</ele><time>2026-03-23T16:08:24Z</time></trkpt><trkpt lat="43.1928049323028" lon="12.117395868957647"><ele>262.0</ele><time>2026-03-23T16:08:26Z</time></trkpt><trkpt lat="43.19285084980432" lon="12.117458159630573"><ele>262.0</ele><time>2026-03-23T16:08:27Z</time></trkpt><trkpt lat="43.19287507778192" lon="12.117539421131719"><ele>262.0</ele><time>2026-03-23T16:08:28Z</time></trkpt><trkpt lat="43.192921048067845" lon="12.117633227593462"><ele>262.0</ele><time>2026-03-23T16:08:29Z</time></trkpt><trkpt lat="43.19289777197767" lon="12.117836597194696"><ele>262.0</ele><time>2026-03-23T16:08:31Z</time></trkpt><trkpt lat="43.192897602617435" lon="12.117929843332398"><ele>262.0</ele><time>2026-03-23T16:08:32Z</time></trkpt><trkpt lat="43.19289039833026" lon="12.118069050864326"><ele>262.0</ele><time>2026-03-23T16:08:33Z</time></trkpt><trkpt lat="43.19286412637791" lon="12.118245325681777"><ele>262.0</ele><time>2026-03-23T16:08:34Z</time></trkpt><trkpt lat="43.19282115229151" lon="12.118426935144957"><ele>262.0</ele><time>2026-03-23T16:08:35Z</time></trkpt><trkpt lat="43.1927747542238" lon="12.118628795200733"><ele>262.25</ele><time>2026-03-23T16:08:36Z</time></trkpt><trkpt lat="43.192734670752216" lon="12.118831290576518"><ele>262.5</ele><time>2026-03-23T16:08:37Z</time></trkpt><trkpt lat="43.192693892155795" lon="12.119038297611594"><ele>262.75</ele><time>2026-03-23T16:08:38Z</time></trkpt><trkpt lat="43.192655422518754" lon="12.11922188718514"><ele>263.0</ele><time>2026-03-23T16:08:39Z</time></trkpt><trkpt lat="43.19261772381089" lon="12.119397471612269"><ele>263.0</ele><time>2026-03-23T16:08:40Z</time></trkpt><trkpt lat="43.19258564031097" lon="12.119563798339234"><ele>263.0</ele><time>2026-03-23T16:08:41Z</time></trkpt><trkpt lat="43.192558253625904" lon="12.119723440699651"><ele>263.0</ele><time>2026-03-23T16:08:42Z</time></trkpt><trkpt lat="43.19253273657547" lon="12.1198804443648"><ele>263.0</ele><time>2026-03-23T16:08:43Z</time></trkpt><trkpt lat="43.19251562866619" lon="12.120042656904653"><ele>263.75</ele><time>2026-03-23T16:08:44Z</time></trkpt><trkpt lat="43.1925292796259" lon="12.120212162724915"><ele>264.5</ele><time>2026-03-23T16:08:45Z</time></trkpt><trkpt lat="43.192562438814925" lon="12.120356961445145"><ele>265.25</ele><time>2026-03-23T16:08:46Z</time></trkpt><trkpt lat="43.192620567231394" lon="12.120505869777597"><ele>266.0</ele><time>2026-03-23T16:08:47Z</time></trkpt><trkpt lat="43.19269765772043" lon="12.12065877828473"><ele>265.0</ele><time>2026-03-23T16:08:48Z</time></trkpt><trkpt lat="43.19278301672646" lon="12.120810701589816"><ele>264.0</ele><time>2026-03-23T16:08:49Z</time></trkpt><trkpt lat="43.19285214145204" lon="12.120979785650212"><ele>263.0</ele><time>2026-03-23T16:08:50Z</time></trkpt><trkpt lat="43.192921562755984" lon="12.121155268096881"><ele>262.0</ele><time>2026-03-23T16:08:51Z</time></trkpt><trkpt lat="43.193005033131925" lon="12.121348238183735"><ele>262.0</ele><time>2026-03-23T16:08:52Z</time></trkpt><trkpt lat="43.19308301971614" lon="12.121531438860902"><ele>262.0</ele><time>2026-03-23T16:08:53Z</time></trkpt><trkpt lat="43.1931468847606" lon="12.121688879818098"><ele>262.0</ele><time>2026-03-23T16:08:54Z</time></trkpt><trkpt lat="43.1932042766597" lon="12.121849073867002"><ele>262.0</ele><time>2026-03-23T16:08:55Z</time></trkpt><trkpt lat="43.19323475583236" lon="12.122026347921343"><ele>262.25</ele><time>2026-03-23T16:08:56Z</time></trkpt><trkpt lat="43.193246475831785" lon="12.12221328658898"><ele>262.5</ele><time>2026-03-23T16:08:57Z</time></trkpt><trkpt lat="43.193245946818884" lon="12.122401045231266"><ele>262.75</ele><time>2026-03-23T16:08:58Z</time></trkpt><trkpt lat="43.193217318986804" lon="12.122589587001556"><ele>263.0</ele><time>2026-03-23T16:08:59Z</time></trkpt><trkpt lat="43.19321544463949" lon="12.12276785903692"><ele>263.0</ele><time>2026-03-23T16:09:00Z</time></trkpt><trkpt lat="43.193195587926624" lon="12.122930924103345"><ele>263.0</ele><time>2026-03-23T16:09:01Z</time></trkpt><trkpt lat="43.19317583897426" lon="12.123087240752005"><ele>263.0</ele><time>2026-03-23T16:09:02Z</time></trkpt><trkpt lat="43.19315912793932" lon="12.123236387096261"><ele>263.0</ele><time>2026-03-23T16:09:03Z</time></trkpt><trkpt lat="43.1931384019698" lon="12.123400576180781"><ele>262.25</ele><time>2026-03-23T16:09:04Z</time></trkpt><trkpt lat="43.19311601026255" lon="12.123558863681843"><ele>261.5</ele><time>2026-03-23T16:09:05Z</time></trkpt><trkpt lat="43.19309401089487" lon="12.123721152071154"><ele>260.75</ele><time>2026-03-23T16:09:06Z</time></trkpt><trkpt lat="43.19307512144443" lon="12.123880888098341"><ele>260.0</ele><time>2026-03-23T16:09:07Z</time></trkpt><trkpt lat="43.193052964978385" lon="12.12405672823759"><ele>260.25</ele><time>2026-03-23T16:09:08Z</time></trkpt><trkpt lat="43.193031337441155" lon="12.124250405073576"><ele>260.5</ele><time>2026-03-23T16:09:09Z</time></trkpt><trkpt lat="43.19300573704938" lon="12.124412886847992"><ele>260.75</ele><time>2026-03-23T16:09:10Z</time></trkpt><trkpt lat="43.192976623511186" lon="12.124572619564269"><ele>261.0</ele><time>2026-03-23T16:09:11Z</time></trkpt><trkpt lat="43.192944121729134" lon="12.124740365314926"><ele>261.0</ele><time>2026-03-23T16:09:12Z</time></trkpt><trkpt lat="43.1929170675188" lon="12.12489405715296"><ele>261.0</ele><time>2026-03-23T16:09:13Z</time></trkpt><trkpt lat="43.19289328200266" lon="12.125033796414971"><ele>261.0</ele><time>2026-03-23T16:09:14Z</time></trkpt><trkpt lat="43.19286771085352" lon="12.125179107404294"><ele>261.0</ele><time>2026-03-23T16:09:15Z</time></trkpt><trkpt lat="43.192841026426706" lon="12.125327167405665"><ele>261.0</ele><time>2026-03-23T16:09:16Z</time></trkpt><trkpt lat="43.19281034115645" lon="12.125481341152238"><ele>261.0</ele><time>2026-03-23T16:09:17Z</time></trkpt></trkseg></trk></gpx>